     2              OBSERVATION DATA    GPS                 RINEX VERSION / TYPE
TRRINEXO V2.7.0 LH UCSD 05-MAR-96 11:07                     PGM / RUN BY / DATE
                                                            COMMENT
PI: Duncan Agnew, IGPP/Scripps/UCSD                         COMMENT
PI: Duncan Agnew, IGPP/Scripps/UCSD                         COMMENT
PI: Duncan Agnew, IGPP/Scripps/UCSD                         COMMENT
Original Marker Name: Alamo 1934                            COMMENT
Campaign Name: DHL Surveys 94-96                            COMMENT
4-Character Station Name: ALAM                              COMMENT
6-Character Antenna Code: TRMSST                            COMMENT
Vertical Measurement Point: BGP                             COMMENT
Vertical Offset to Rinex Ref. Point: 0.0597                 COMMENT
Radial Measurement Point: NGP                               COMMENT
Radial Offset to Rinex Ref. Point: 0.2334                   COMMENT
Antenna Height from Field Measurement: 0.9840 m             COMMENT
Original XYZ: -2309357.2147 -4817633.6303 3472165.6544      COMMENT
New XYZ position is based on association with SCEC monument COMMENT
E1D0I4P2+0011. Position of that monument is believed to be  COMMENT
valid to within 1 m horizontally; vertical accuracy         COMMENT
should be no worse than 3-times this value.                 COMMENT
                                                            COMMENT
Revised Rinex header created by UCSD GPS archive for        COMMENT
GSAC on 26-May-1999 (1999:146) 20:45:51 GMT                 COMMENT
For assistance contact dagnew@ucsd.edu or hjohnson@ucsd.edu COMMENT
                                                            COMMENT
ALAMO 1934                                                  MARKER NAME
S Dockter SCRIPPS INSTITUTION OF OCEANOGRAPHY               OBSERVER / AGENCY
436 TRIMBLE 4000 SST 4.81 / 4.20                            REC # / TYPE / VERS
26 TR 4000SST L1/L2 GEO                                     ANT # / TYPE
 -2309367.0000 -4817609.0000  3472162.0000                  APPROX POSITION XYZ
        0.8962        0.0000        0.0000                  ANTENNA: DELTA H/E/N
     1     2     0                                          WAVELENGTH FACT L1/2
     3    C1    L1    L2                                    # / TYPES OF OBSERV
    30                                                      INTERVAL
  1996     3     2    15    49    0.000000                  TIME OF FIRST OBS
  1996     3     3     0    10   60.000000                  TIME OF LAST OBS
                                                            END OF HEADER
 96  3  2 15 49  0.0000000  0  7 14 18 22 25 29 19 04
  20532982.750          -0.86217
  23172908.617          -0.05515
  21352464.539          -0.64517
  24548908.922          -0.41315
  21279984.133          -0.95017
  24526762.188          -0.75013
  25166569.414          -0.86013
 96  3  2 15 49 30.0000000  0  8 14 18 22 25 29 19 04 15
  20526237.648      -35441.960 7        -0.07712
  23147589.227     -133052.263 5        -0.26211
  21345124.547      -38566.448 7        -0.31513
  24555038.961       32203.787 5        -0.02011
  21262762.109      -90497.851 7        -0.13213
  24500094.398     -140127.988 3
  25153078.789      -70919.865 3
  25189094.047       37338.023 3
 96  3  2 15 50  0.0000000  0  8 14 18 22 25 29 19 04 15
  20519583.664      -70411.075 7    -27248.756 2
  23122258.836     -266169.876 5   -103728.255 1
  21337888.047      -76588.213 7    -29627.662 3
  24561142.953       64282.774 5     24996.561 1
  21245551.203     -180944.029 7    -70477.667 3
  24473438.664     -280206.260 3        -0.41111
  25139655.141     -141449.825 4
  25196144.969       74424.393 3        -0.32711
 96  3  2 15 50 30.0000000  0  8 14 18 22 25 29 19 04 15
  20513012.500     -104945.323 7    -54158.578 2
  23096907.508     -399390.680 5   -207536.656 1
  21330749.375     -114102.483 7    -58859.564 3
  24567216.563       96215.076 5     49878.817 1
  21228342.352     -271376.594 7   -140944.603 3
  24446787.039     -420252.043 4   -109127.071 1
  25126301.820     -211622.259 4        -0.26411
  25203155.789      111226.807 2     28676.750 1
 96  3  2 15 51  0.0000000  0  8 14 18 22 25 29 19 04 15
  20506531.734     -139012.448 7    -80704.405 2
  23071543.602     -532682.975 5   -311400.759 1
  21323706.922     -151111.277 7    -87697.583 3
  24573268.125      128007.652 5     74652.206 1
  21211142.148     -361768.681 7   -211379.993 3
  24420149.133     -560229.896 4   -218200.761 1
  25113019.625     -281430.360 3    -54396.216 1
  25210110.766      147760.311 1     57144.370 1
 96  3  2 15 51 30.0000000  0  7 14 18 22 25 29 19 04
  20500145.289     -172579.766 7   -106860.782 2
  23046174.273     -665990.724 5   -415276.906 1
  21316765.672     -187577.223 7   -116112.603 3
  24579296.977      159688.312 5     99338.409 1
  21193954.906     -452089.529 7   -281759.877 3
  24393535.266     -700093.585 4   -327185.528 1
  25099810.867     -350832.116 3   -108475.500 1
 96  3  2 15 52  0.0000000  0  7 14 18 22 25 29 19 04
  20493847.539     -205679.477 7   -132652.784 3
  23020798.563     -799342.428 6   -519187.312 1
  21309920.758     -223543.381 7   -144138.181 3
  24585297.773      191227.803 5    123914.595 1
  21176774.844     -542370.244 7   -352108.486 3
  24366936.117     -839873.501 4   -436104.970 1
  25086672.250     -419855.113 4   -162259.701 1
 96  3  2 15 52 30.0000000  0  7 14 18 22 25 29 19 04
  20487638.008     -238298.105 7   -158069.916 2
  22995418.648     -932720.197 5   -623118.026 1
  21303166.742     -259037.294 7   -171795.774 3
  24591273.875      222628.754 5    148382.829 1
  21159607.266     -632588.948 7   -422408.771 3
  24340350.539     -979586.519 4   -544972.243 1
  25073611.141     -488506.200 3   -215754.101 1
 96  3  2 15 53  0.0000000  0  7 14 18 22 25 29 19 04
  20481523.250     -270427.674 7   -183105.966 2
  22970032.766    -1066120.410 5   -727066.225 1
  21296504.914     -294051.874 7   -199079.861 3
  24597220.711      253894.055 5    172745.362 1
  21142453.430     -722725.854 7   -492645.319 3
  24313775.375    -1119244.629 4   -653796.780 1
  25060621.125     -556778.557 3   -268953.400 1
 96  3  2 15 53 30.0000000  0  7 14 18 22 25 29 19 04
  20475501.477     -302060.260 7   -207754.751 2
  22944645.672    -1199534.341 6   -831025.118 1
  21289943.500     -328546.372 7   -225958.690 3
  24603151.859      285063.532 5    197033.247 1
  21125319.313     -812765.315 7   -562805.942 3
  24287212.016    -1258833.414 4   -762567.258 1
  25047703.844     -624636.538 3   -321829.770 1
 96  3  2 15 54  0.0000000  0  7 14 18 22 25 29 19 04
  20469579.461     -333183.128 7   -232006.355 2
  22919253.336    -1332965.989 6   -934997.832 1
  21283477.781     -362522.673 7   -252433.729 3
  24609072.055      316154.514 5    221259.952 1
  21108209.609     -902682.810 7   -632871.517 3
  24260665.805    -1398341.753 4   -871275.077 1
  25034869.664     -692088.830 3
 96  3  2 15 54 30.0000000  0  8 14 18 22 25 29 19 04 15
  20463748.461     -363834.002 7   -255890.172 2
  22893852.383    -1466450.138 6  -1039011.440 1
  21277106.195     -395999.729 7   -278519.753 3
  24614965.320      347133.296 5    245399.240 1
  21091119.500     -992496.235 7   -702856.009 3
  24234128.719    -1537787.974 4   -979934.464 1
  25022107.445     -759165.310 3        -0.44111
  25257392.422          -0.97412
 96  3  2 15 55  0.0000000  0  8 14 18 22 25 29 19 04 15
  20458007.359     -394022.406 7   -279413.624 2
  22868439.727    -1599993.817 6  -1143071.433 1
  21270833.094     -428949.632 7   -304195.004 3
  24620842.414      377994.484 5    269446.888 1
  21074044.875    -1082219.605 7   -772770.326 3
  24207608.023    -1677148.219 4  -1088526.917 1
  25009415.766     -825849.064 3    -51961.900 1
  25263950.813       34446.010 3        -0.45311
 96  3  2 15 55 30.0000000  0  8 14 18 22 25 29 19 04 15
  20452351.648     -423741.962 7   -302571.735 2
  22843019.086    -1733583.245 6  -1247167.084 1
  21264662.391     -461377.206 7   -329463.249 3
  24626690.672      408746.857 5    293409.738 1
  21056988.109    -1171853.499 7   -842614.924 3
  24181108.031    -1816405.567 4  -1197039.077 1
  24996803.477     -892143.989 3   -103620.290 1
  25270453.797       68629.272 3     26635.787 1
 96  3  2 15 56  0.0000000  0  8 14 18 22 25 29 19 04 15
  20446782.664     -452981.440 7   -325355.763 2
  22817590.148    -1867206.533 6  -1351289.100 1
  21258594.078     -493286.383 7   -354327.546 3
  24632522.008      439388.490 5    317286.315 1
  21039949.609    -1261393.731 7   -912386.535 3
  24154629.914    -1955563.225 4  -1305473.644 1
  24984265.406     -958054.964 3   -154979.546 1
  25276912.422      102550.895 3     53068.128 1
 96  3  2 15 56 30.0000000  0  8 14 18 22 25 29 19 04 15
  20441313.680     -481737.866 7   -347763.390 2
  22792155.766    -2000869.148 6  -1455441.779 1
  21252619.445     -524675.010 7   -378786.213 3
  24638327.734      469906.059 5    341066.187 1
  21022923.508    -1350856.127 7   -982097.497 3
  24128160.969    -2094647.479 4  -1413851.019 1
  24971792.922    -1023571.451 3
  25283315.414      136203.068 4     79290.480 1
 96  3  2 15 57  0.0000000  0  8 14 18 22 25 29 19 04 15
  20435936.109     -510007.585 7   -369791.765 2
  22766714.844    -2134563.734 6  -1559619.357 1
  21246742.664     -555548.058 7   -402843.138 3
  24644114.992      500311.317 5    364758.572 1
  21005913.984    -1440253.058 7  -1051757.444 3
  24101704.055    -2233678.458 5  -1522186.878 1
  24959397.180    -1088691.270 3
  25289666.359      169583.163 4
 96  3  2 15 57 30.0000000  0  8 14 18 22 25 29 19 04 15
  20430646.438     -537783.243 7   -391435.156 3
  22741265.891    -2268286.022 6  -1663818.535 1
  21240965.320     -585924.236 7   -426512.891 3
  24649878.164      530605.677 5    388364.563 1
  20988916.898    -1529571.264 7  -1121356.051 3
  24075256.695    -2372672.111 5  -1630493.640 1
  24947079.203    -1153418.576 4
  25295960.992      202688.794 4        -0.09211
 96  3  2 15 58  0.0000000  0  8 14 18 22 25 29 19 04 15
  20425454.883     -565065.461 7   -412694.047 2
  22715815.391    -2402036.199 6  -1768039.434 1
  21235281.867     -615792.042 7   -449786.512 3
  24655621.813      560784.049 5    411880.136 1
  20971940.359    -1618785.181 7  -1190873.383 3
  24048813.891    -2511614.385 5  -1738760.356 1
  24934845.852    -1217720.585 4
  25302213.688      235527.810 3     25588.645 1
 96  3  2 15 58 30.0000000  0  8 14 18 22 25 29 19 04 15
  20420361.727     -591856.358 7   -433570.096 3
  22690357.750    -2535808.390 6  -1872277.492 1
  21229690.867     -645153.016 7   -472665.201 3
  24661341.477      590849.008 5    435307.334 1
  20954985.984    -1707877.270 7  -1260295.793 3
  24022390.312    -2650486.384 5  -1846972.296 1
  24922691.758    -1281597.540 4
  25308413.898      268099.670 4
 96  3  2 15 59  0.0000000  0  8 14 18 22 25 29 19 04 15
  20415345.508     -618190.540 7   -454090.259 3
  22664895.859    -2669609.171 6  -1976537.826 1
  21224196.953     -674034.102 7   -495169.950 3
  24667041.742      620783.780 5    458633.098 1
  20938054.594    -1796857.879 7  -1329631.329 3
  23995978.875    -2789277.505 5  -1955121.202 1
  24910612.438    -1345080.326 4
  25314555.813      300382.479 3
 96  3  2 15 59 30.0000000  0  8 14 18 22 25 29 19 04 15
  20410428.281     -644034.849 7   -474228.698 2
  22639438.180    -2803410.199 6  -2080798.353 1
  21218799.281     -702404.948 7   -517277.109 3
  24672714.305      650612.262 5    481876.032 1
  20921149.523    -1885688.846 7  -1398850.269 3
  23969589.836    -2927943.443 5  -2063172.524 1
  24898610.422    -1408143.045 4
  25320651.891      332401.857 3        -0.38711
 96  3  2 16  0  0.0000000  0  8 14 18 22 25 29 19 04 15
  20405604.828     -669395.198 7   -493990.036 2
  22613976.742    -2937207.008 6  -2185055.587 1
  21213498.680     -730246.000 7   -538971.444 3
  24678372.242      680344.156 5    505043.711 1
  20904271.594    -1974384.151 7  -1467963.498 3
  23943227.266    -3066478.262 4  -2171121.722 1
  24886693.242    -1470795.747 3        -0.12611
  25326693.531      364156.118 3     24743.122 1
 96  3  2 16  0 30.0000000  0  7 14 18 22 25 29 19 04
  20400870.781     -694254.716 7   -513361.109 2
  22588519.500    -3070988.467 6  -2289300.856 1
  21208309.016     -757536.746 7   -560236.966 3
  24684019.031      709997.175 5    528149.952 1
  20887415.656    -2062964.944 7  -1536987.486 3
  23916890.422    -3204884.872 4  -2278971.015 1
  24874838.500    -1533057.655 3    -48516.012 1
 96  3  2 16  1  0.0000000  0  7 14 18 22 25 29 19 04
  20396240.141     -718610.081 7   -532339.340 3
  22563062.359    -3204761.826 6  -2393539.820 1
  21203217.367     -784276.688 7   -581073.289 3
  24689646.219      739573.479 5    551196.386 1
  20870579.273    -2151439.820 7  -1605928.963 3
  23890575.203    -3343168.544 5  -2386724.496 1
  24863069.828    -1594915.308 3
 96  3  2 16  1 29.9990000  0  7 14 18 22 25 29 19 04
  20391695.745     -742466.921 7   -550929.108 2
  22537604.792    -3338543.131 6  -2497784.975 1
  21198234.901     -810478.671 7   -601490.422 3
  24695254.847      769063.193 5    574175.317 1
  20853759.839    -2239825.111 7  -1674800.622 3
  23864280.644    -3481357.761 5  -2494404.401 1
  24851371.823    -1656382.544 3        -0.39511
 96  3  2 16  1 59.9990000  0  7 14 18 22 25 29 19 04
  20387255.112     -765828.022 7   -569132.589 2
  22512145.026    -3472333.511 6  -2602037.202 1
  21193346.917     -836143.106 7   -621488.690 3
  24700852.558      798474.524 4    597093.204 1
  20836958.120    -2328117.345 7  -1743599.771 3
  23838001.214    -3619444.273 5  -2602004.233 1
  24839750.894    -1717458.040 3    -47591.775 1
 96  3  2 16  2 29.9990000  0  7 14 18 22 25 29 19 04
  20382898.073     -788697.857 7   -586953.262 2
  22486685.104    -3606129.716 6  -2706293.968 1
  21188562.495     -861303.995 7   -641094.583 3
  24706431.503      827780.200 5    619928.734 1
  20820178.878    -2416296.343 7  -1812310.678 3
  23811744.651    -3757425.207 5  -2709521.838 1
  24828202.276    -1778134.982 3
 96  3  2 16  2 59.9990000  0  7 14 18 22 25 29 19 04
  20378643.933     -811078.272 7   -604392.571 3
  22461227.081    -3739913.325 6  -2810540.929 1
  21183863.792     -885978.474 7   -660321.462 3
  24711984.722      856974.218 4    642677.298 1
  20803424.722    -2504341.582 7  -1880917.360 3
  23785508.464    -3895297.432 4  -2816954.722 1
  24816736.933    -1838400.812 4        -0.48411
 96  3  2 16  3 29.9990000  0  7 14 18 22 25 29 19 04
  20374474.698     -832966.442 7   -621448.311 3
  22435773.011    -3873668.851 6  -2914765.999 1
  21179268.409     -910149.319 7   -679155.895 3
  24717519.831      886063.466 4    665344.174 1
  20786697.550    -2592241.789 7  -1949411.026 3
  23759293.237    -4033060.740 5  -2924302.759 1
  24805347.933    -1898257.195 4    -46641.894 1
 96  3  2 16  3 59.9990000  0  7 14 18 22 25 29 19 04
  20370407.659     -854359.222 7   -638118.037 3
  22410326.831    -4007393.273 6  -3018966.841 1
  21174762.331     -933806.962 7   -697590.430 3
  24723035.706      915034.312 5    687918.817 1
  20769998.589    -2679994.348 7  -2017789.651 3
  23733099.878    -4170708.227 5  -3031560.550 1
  24794038.034    -1957690.766 4    -92953.823 1
 96  3  2 16  4 29.9990000  0  7 14 18 22 25 29 19 04
  20366436.948     -875212.146 7   -654367.094 3
  22384892.331    -4141058.915 6  -3123121.883 1
  21170368.464     -956916.637 7   -715597.975 3
  24728530.690      943915.599 4    710423.670 1
  20753331.323    -2767577.791 7  -2086036.487 3
  23706932.245    -4308224.953 5  -3138716.447 1
  24782812.370    -2016661.966 4   -138905.447 1
 96  3  2 16  4 59.9990000  0  7 14 18 22 25 29 19 04
  20362573.573     -895524.135 7   -670194.642 3
  22359460.190    -4274694.573 6  -3227253.554 1
  21166075.917     -979457.622 7   -733162.387 3
  24734009.659      972715.282 4    732864.918 1
  20736693.722    -2855018.560 7  -2154172.157 3
  23680787.526    -4445618.232 5  -3245776.181 1
  24771678.612    -2075181.526 4   -184505.111 1
 96  3  2 16  5 29.9990000  0  7 14 18 22 25 29 19 04
  20358801.870     -915334.081 7   -685630.992 3
  22334029.784    -4408346.140 6  -3331397.627 1
  21161891.019    -1001459.799 7   -750306.950 3
  24739468.050     1001397.608 4    755214.734 1
  20720072.597    -2942356.223 7  -2222227.482 3
  23654660.198    -4582910.351 5  -3352757.038 1
  24760622.300    -2133282.725 4   -229778.827 1
 96  3  2 16  5 59.9990000  0  7 14 18 22 25 29 19 04
  20355126.315     -934648.402 7   -700681.137 3
  22308591.792    -4542017.083 6  -3435556.796 1
  21157800.519    -1022949.827 7   -767052.435 3
  24744903.378     1029955.947 4    777467.936 1
  20703472.675    -3029594.535 7  -2290205.386 3
  23628557.026    -4720090.639 5  -3459650.753 1
  24749643.089    -2190969.350 4   -274729.497 1
 96  3  2 16  6 29.9990000  0  7 14 18 22 25 29 19 04
  20351547.628     -953469.657 7   -715347.078 3
  22283151.964    -4675695.816 6  -3539722.036 1
  21153807.472    -1043927.065 7   -783398.344 3
  24750319.144     1058411.411 4    799640.975 1
  20686892.120    -3116722.028 7  -2358096.941 3
  23602472.511    -4857150.741 5  -3566450.823 1
  24738743.503    -2248248.359 4
 96  3  2 16  6 59.9990000  0  7 14 18 22 25 29 19 04
  20348052.831     -971814.996 7   -729642.176 3
  22257717.651    -4809366.026 6  -3643880.639 1
  21149916.722    -1064393.941 7   -799346.564 3
  24755714.542     1086765.790 5    821735.257 1
  20670337.542    -3203717.053 7  -2425885.276 3
  23576413.667    -4994090.914 5  -3673157.471 1
  24727917.792    -2305138.552 4        -0.13111
 96  3  2 16  7 29.9990000  0  7 14 18 22 25 29 19 04
  20344651.831     -989701.945 7   -743580.084 3
  22232287.065    -4942999.027 6  -3748010.244 1
  21146111.386    -1084367.245 7   -814910.189 3
  24761091.511     1115018.532 5    843750.329 1
  20653812.144    -3290556.759 7  -2493552.583 3
  23550375.644    -5130922.936 5  -3779779.846 1
  24717163.042    -2361649.463 3    -44034.682 1
 96  3  2 16  7 59.9990000  0  7 14 18 22 25 29 19 04
  20341337.034    -1007124.094 7   -757155.818 3
  22206864.315    -5076592.959 6  -3852109.401 1
  21142409.331    -1103833.865 7   -830078.995 3
  24766447.714     1143179.422 4    865693.844 1
  20637319.894    -3377229.519 7  -2561089.805 3
  23524355.925    -5267653.855 5  -3886323.429 1
  24706481.003    -2417790.622 3    -87781.089 1
 96  3  2 16  8 29.9990000  0  7 14 18 22 25 29 19 04
  20338108.675    -1024071.562 7   -770361.663 3
  22181452.526    -5210141.850 6  -3956173.460 1
  21138808.159    -1122772.431 7   -844836.332 3
  24771792.847     1171248.949 4    887566.183 1
  20620860.026    -3463724.530 7  -2628488.524 3
  23498355.144    -5404291.957 5  -3992794.643 1
  24695872.862    -2473554.711 3   -131233.623 1
 96  3  2 16  8 59.9990000  0  7 14 18 22 25 29 19 04
  20334973.409    -1040559.214 7   -783209.216 3
  22156043.394    -5343655.062 6  -4060209.732 1
  21135298.433    -1141203.031 7   -859197.845 3
  24777108.558     1199211.560 4    909355.133 1
  20604433.589    -3550050.003 7  -2695755.131 3
  23472368.222    -5540847.430 5  -4099201.482 1
  24685329.667    -2528946.344 3   -174396.023 1
 96  3  2 16  9 29.9990000  0  7 14 18 22 25 29 19 04
  20331926.472    -1056583.288 7   -795695.538 3
  22130642.073    -5477151.153 6  -4164232.655 1
  21131884.245    -1159138.798 7   -873173.782 3
  24782412.901     1227067.576 5    931061.100 1
  20588033.284    -3636226.310 7  -2762905.503 3
  23446402.909    -5677310.314 5  -4205536.185 1
  24674859.480    -2583948.806 3   -217255.118 1
 96  3  2 16  9 59.9990000  0  7 14 18 22 25 29 19 04
  20328965.026    -1072143.014 7   -807820.036 3
  22105233.800    -5610668.754 6  -4268272.335 1
  21128562.620    -1176598.488 7   -886778.743 3
  24787687.315     1254793.041 4    952665.324 1
  20571656.261    -3722291.112 7  -2829968.994 3
  23420452.573    -5813687.760 5  -4311804.307 1
  24664472.690    -2638556.775 3   -259806.877 1
 96  3  2 16 10 29.9990000  0  7 14 18 22 25 29 19 04
  20326083.823    -1087268.681 7   -819606.298 3
  22079816.112    -5744237.085 6  -4372351.548 1
  21125321.542    -1193638.229 7   -900056.479 3
  24792932.823     1282341.582 4    974131.670 1
  20555292.753    -3808281.152 7  -2896974.225 3
  23394512.159    -5950006.871 5  -4418026.967 1
  24654150.386    -2692795.258 3   -302070.709 1
 96  3  2 16 10 59.9990000  0  7 14 18 22 25 29 19 04
  20323303.386    -1101883.599 7   -830994.574 3
  22054405.394    -5877778.257 6  -4476409.604 1
  21122168.917    -1210192.167 7   -912955.661 3
  24798151.378     1309797.129 4    995525.612 1
  20538958.581    -3894123.500 7  -2963864.369 3
  23368596.894    -6086179.661 5  -4524135.604 1
  24643913.183    -2746592.085 3   -343990.345 1
 96  3  2 16 11 29.9990000  0  7 14 18 22 25 29 19 04
  20320638.308    -1115904.289 7   -841919.816 3
  22029010.065    -6011223.401 6  -4580392.824 1
  21119125.979    -1226180.542 7   -925414.139 3
  24803371.573     1337222.022 4   1016895.591 1
  20522665.042    -3979740.460 7  -3030578.881 3
  23342724.847    -6222134.070 5  -4630074.088 1
  24633774.878    -2799869.749 3
 96  3  2 16 11 59.9990000  0  7 14 18 22 25 29 19 04
  20318076.542    -1129352.981 7   -852399.345 3
  22003635.940    -6144570.517 6  -4684299.661 1
  21116191.206    -1241616.844 7   -937442.433 3
  24808582.120     1364587.708 4   1038219.457 1
  20506413.823    -4065140.203 7  -3097124.139 3
  23316895.058    -6357888.747 5  -4735856.939 1
  24623728.245    -2852663.754 3        -0.18911
 96  3  2 16 12 29.9990000  0  8 14 18 22 25 29 19 04 28
  20315609.011    -1142309.715 7   -862495.528 3
  21978270.956    -6277856.445 6  -4788158.824 1
  21113348.253    -1256557.359 7   -949084.401 3
  24813764.886     1391845.022 4   1059458.845 1
  20490197.964    -4150358.263 7  -3163527.823 3
  23291087.151    -6493484.646 5  -4841516.071 1
  24613758.347    -2905049.819 3    -40820.544 1
  24962928.800          -0.97813
 96  3  2 16 12 59.9990000  0  8 14 18 22 25 29 19 04 28
  20313237.354    -1154787.590 7   -872218.579 3
  21952917.612    -6411092.679 6  -4891979.264 1
  21110597.886    -1270995.813 7   -960335.145 3
  24818939.261     1418996.435 4   1080615.767 1
  20474016.878    -4235392.331 7  -3229788.139 3
  23265316.565    -6628928.811 5  -4947056.968 1
  24603871.370    -2957032.303 3    -81326.393 1
  24938052.011     -130737.660 4
 96  3  2 16 13 29.9990000  0  7 14 18 22 29 19 04 28
  20310954.237    -1166798.572 7   -881577.814 3
  21927573.526    -6544282.443 6  -4995763.485 1
  21107945.808    -1284933.206 7   -971195.458 3
  20457868.862    -4320246.899 7  -3295908.586 3
  23239569.948    -6764231.553 5  -5052487.671 1
  24594053.144    -3008612.512 3   -121518.823 1
  24913154.667     -261557.139 1
 96  3  2 16 13 59.9990000  0  7 14 18 22 29 19 04 28
  20308751.378    -1178352.853 7   -890581.182 3
  21902236.144    -6677429.407 6  -5099514.362 1
  21105390.394    -1298371.450 7   -981666.817 3
  20441754.315    -4404935.393 7  -3361899.636 3
  23213847.011    -6899392.957 5  -5157808.250 1
  24584311.206    -3059801.485 3   -161406.428 1
  24888249.136     -392459.354 4
 96  3  2 16 14 29.9980000  0  7 14 18 22 29 19 04 28
  20306642.272    -1189432.440 7   -899214.658 3
  21876907.967    -6810529.165 6  -5203228.449 1
  21102935.303    -1311283.671 7   -991728.286 3
  20425672.084    -4489441.188 7  -3427748.297 3
  23188155.318    -7034408.402 5  -5263015.070 1
  24574647.146    -3110576.841 3   -200971.746 1
  24863327.443     -523424.431 4
 96  3  2 16 14 59.9980000  0  6 14 18 22 29 19 04
  20304628.357    -1200017.699 7   -907462.945 3
  21851588.053    -6943587.800 6  -5306910.493 1
  21100578.857    -1323659.253 7  -1001371.607 3
  20409621.475    -4573785.339 7  -3493471.010 3
  23162486.006    -7169312.165 5  -5368134.872 1
  24565067.092    -3160942.292 3
 96  3  2 16 15 29.9980000  0  7 14 18 22 29 19 04 28
  20302710.889    -1210112.291 7   -915328.895 3
  21826275.186    -7076601.323 6  -5410557.380 1
  21098322.350    -1335507.717 7  -1010604.181 3
  20393600.045    -4657982.715 7  -3559079.357 3
  23136835.811    -7304109.976 5  -5473172.119 1
  24555557.678    -3210915.332 3
  24813438.201          -0.84513
 96  3  2 16 15 59.9980000  0  7 14 18 22 29 19 04 28
  20300887.748    -1219690.296 7   -922792.308 3
  21800974.771    -7209558.615 6  -5514160.458 1
  21096169.248    -1346819.981 7  -1019418.932 3
  20377609.764    -4742012.677 7  -3624557.253 3
  23111204.365    -7438789.372 5  -5578117.114 1
  24546123.811    -3260493.464 3        -0.49711
  24788472.647     -131182.190 3
 96  3  2 16 16 29.9980000  0  7 14 18 22 29 19 04 28
  20299163.318    -1228758.596 7   -929858.550 3
  21775683.826    -7342465.488 6  -5617724.242 1
  21094112.920    -1357628.112 7  -1027840.859 3
  20361648.631    -4825886.146 7  -3689913.200 3
  23085596.537    -7573366.955 5  -5682982.745 1
  24536762.311    -3309692.487 3    -38337.443 1
  24763498.467     -262429.498 3        -0.17011
 96  3  2 16 16 59.9980000  0  7 14 18 22 29 19 04 28
  20297530.490    -1237324.933 7   -936533.648 3
  21750401.826    -7475323.587 6  -5721250.030 1
  21092145.584    -1367967.207 7  -1035897.299 3
  20345717.592    -4909604.762 7  -3755148.487 3
  23060007.084    -7707834.757 5  -5787762.821 1
  24527466.217    -3358517.900 3    -76383.290 1
  24738505.201     -393738.842 1   -102319.109 1
 96  3  2 16 17 29.9980000  0  7 14 18 22 29 19 04 28
  20295991.068    -1245408.464 7   -942832.534 3
  21725127.459    -7608149.850 6  -5824751.003 1
  21090264.154    -1377870.141 7  -1043613.877 3
  20329817.576    -4993157.429 7  -3820254.468 3
  23034438.248    -7842189.633 5  -5892454.937 1
  24518246.170    -3406973.540 3   -114140.962 1
  24713512.162     -525108.516 3   -204685.029 1
 96  3  2 16 17 59.9980000  0  7 14 18 22 29 19 04 28
  20294543.568    -1253019.852 7   -948763.513 3
  21699859.272    -7740932.255 6  -5928217.798 1
  21088463.998    -1387329.751 7  -1050985.009 3
  20313953.147    -5076526.358 7  -3885217.272 3
  23008896.459    -7976416.981 5  -5997047.669 1
  24509101.287    -3455045.270 3
  24688504.943                          -0.93514
 96  3  2 16 18 29.9980000  0  6 14 18 22 29 19 04
  20293185.459    -1260162.627 7   -954329.336 3
  21674602.037    -7873653.485 6  -6031636.922 1
  21086748.459    -1396332.956 7  -1058000.500 3
  20298128.045    -5159694.946 7  -3950023.965 3
  22983382.826    -8110496.293 5  -6101525.050 1
  24500031.904    -3502719.222 3        -0.11711
 96  3  2 16 18 59.9980000  0  7 14 18 22 29 19 04 28
  20291912.178    -1266863.509 7   -959550.833 3
  21649354.740    -8006330.538 6  -6135021.631 1
  21085121.170    -1404877.238 7  -1064658.386 3
  20282340.467    -5242655.684 7  -4014668.695 3
  22957895.850    -8244441.475 5  -6205897.919 1
  24491026.592    -3550015.916 2
  24638458.787          -0.88913
 96  3  2 16 19 29.9980000  0  7 14 18 22 29 19 04 28
  20290723.131    -1273104.515 7   -964413.987 3
  21624118.904    -8138940.843 6  -6238354.331 1
  21083592.061    -1412919.993 7  -1070925.481 3
  20266595.600    -5325397.220 7  -4079142.619 3
  22932431.943    -8378235.565 5  -6310153.033 1
  24482098.553    -3596927.097 2
  24613420.725          -0.76614
 96  3  2 16 19 59.9980000  0  7 14 18 22 29 19 04 28
  20289622.928    -1278877.342 7   -968912.319 3
  21598899.514    -8271476.148 6  -6341628.585 1
  21082161.209    -1420450.351 7  -1076793.304 3
  20250888.850    -5407933.801 7  -4143456.840 3
  22907002.592    -8511879.009 5  -6414290.768 1
  24473244.498    -3643450.145 3        -0.21611
  24588375.139     -131611.549 2
 96  3  2 16 20 29.9980000  0  7 14 18 22 29 19 04 28
  20288613.014    -1284173.953 7   -973039.580 3
  21573691.451    -8403942.965 6  -6444849.469 1
  21080824.295    -1427476.597 7  -1082268.306 3
  20235220.498    -5490275.420 7  -4207619.144 3
  22881595.576    -8645395.717 5  -6518329.769 1
  24464468.654    -3689585.277 2
  24563319.686     -263261.065 3
 96  3  2 16 20 59.9980000  0  7 14 18 22 29 19 04 28
  20287696.490    -1288993.184 7   -976794.853 3
  21548497.076    -8536337.512 6  -6548014.043 1
  21079582.248    -1433998.801 7  -1087350.552 3
  20219586.787    -5572431.815 7  -4271637.113 3
  22856212.232    -8778790.803 5  -6622273.973 1
  24455761.334    -3735322.578 3
  24538265.131     -394946.471 4
 96  3  2 16 21 29.9980000  0  7 14 18 22 29 19 04 28
  20286871.850    -1293338.695 7   -980180.999 3
  21523320.279    -8668653.338 6  -6651117.271 1
  21078434.303    -1440029.739 7  -1092049.995 2
  20203984.037    -5654424.426 7  -4335527.459 3
  22830850.061    -8912055.540 5  -6726116.614 1
  24447142.217    -3780644.767 3
  24513195.537     -526661.284 3
 96  3  2 16 21 59.9980000  0  7 14 18 22 29 19 04 28
  20286135.115    -1297211.008 7   -983198.407 2
  21498157.068    -8800879.817 6  -6754150.876 1
  21077377.193    -1445580.197 7  -1096375.035 2
  20188416.037    -5736233.068 7  -4399274.457 3
  22805518.209    -9045178.188 5  -6829848.546 1
  24438598.045    -3825535.065 3
  24488131.857     -658390.165 4
 96  3  2 16 22 29.9980000  0  7 14 18 22 29 19 04 28
  20285485.193    -1300633.876 7   -985865.597 3
  21473009.381    -8933033.022 6  -6857127.389 1
  21076406.272    -1450666.345 7  -1100338.284 2
  20172883.350    -5817861.612 7  -4462881.120 3
  22780211.209    -9178165.705 5  -6933475.186 1
  24430135.053    -3870019.452 3
  24463059.311     -790144.617 4
 96  3  2 16 22 59.9980000  0  7 14 18 22 29 19 04 28
  20284922.225    -1303592.413 7   -988170.975 3
  21447876.990    -9065101.314 6  -6960037.728 1
  21075526.936    -1455291.460 7  -1103942.281 2
  20157387.568    -5899288.331 7  -4526330.513 3
  22754940.592    -9310979.421 5  -7036966.369 1
  24421743.818    -3914098.900 3
  24437986.740     -921911.772 3        -0.02511
 96  3  2 16 23 29.9980000  0  7 14 18 22 29 19 04 28
  20284450.404    -1306081.016 7   -990110.177 3
  21422762.459    -9197082.704 6
  21074732.584    -1459462.405 7  -1107192.379 2
  20141933.311    -5980504.216 7  -4589615.622 3
  22729695.178    -9443630.446 5  -7140330.782 1
  24413432.725    -3957780.851 3
  24412911.678    -1053686.977 3
 96  3  2 16 23 59.9980000  0  7 14 18 22 29 19 04 28
  20284065.904    -1308082.274 7   -991669.624 3
  21397663.568    -9328977.998 6
  21074027.506    -1463166.332 7  -1110078.567 2
  20126521.076    -6061496.014 7  -4652726.121 3
  22704481.842    -9576133.187 5  -7243579.665 1
  24405197.506    -4001079.147 3        -0.48711
  24387833.232    -1185470.333 4
 96  3  2 16 24 29.9980000  0  6 14 18 22 29 19 04
  20283776.303    -1309600.682 7   -992852.829 3
  21372577.146    -9460799.198 6  -7268373.713 1
  21073413.615    -1466408.973 7  -1112605.316 2
  20111150.857    -6142268.694 7  -4715665.888 3
  22679294.256    -9708503.743 5  -7346725.547 1
  24397022.873    -4044007.234 3    -33450.994 1
 96  3  2 16 24 59.9980000  0  7 14 18 22 29 19 04 28
  20283580.404    -1310640.182 7   -993662.860 3
  21347506.998    -9592539.885 6
  21072886.592    -1469188.944 7  -1114771.532 2
  20095819.522    -6222827.876 7  -4778439.277 3
  22654127.842    -9840746.648 5  -7449771.948 1
  24388927.186    -4086567.951 3    -66615.241 1
  24337670.443          -0.63413
 96  3  2 16 25 29.9980000  0  7 14 18 22 29 19 04 28
  20283469.771    -1311217.899 7   -994113.071 3
  21322455.600    -9724194.444 6  -7473616.743 1
  21072448.248    -1471485.991 7  -1116561.447 2
  20080528.014    -6303184.085 7  -4841054.505 3
  22628986.373    -9972871.669 5  -7552726.519 1
  24380902.811    -4128755.512 3    -99488.701 1
  24312583.287     -131816.919 3
 96  3  2 16 25 59.9980000  0  7 14 18 22 29 19 04 28
  20283440.045    -1311357.269 7
  21297415.756    -9855776.323 6  -7576148.065 1
  21072103.084    -1473313.534 7  -1117985.511 2
  20065275.412    -6383342.091 7  -4903515.295 3
  22603867.225   -10104862.692 5
  24372937.545    -4170589.566 3   -132086.720 1
  24287502.873     -263642.906 3
 96  3  2 16 26 29.9980000  0  7 14 18 22 29 19 04 28
  20283498.920    -1311066.570 7
  21272392.631    -9987280.089 6  -7678618.519 1
  21071841.357    -1474679.053 7  -1119049.549 2
  20050060.240    -6463294.339 7  -4965815.757 3
  22578780.311   -10236690.552 5
  24365045.248    -4212062.099 3
  24262417.256          -0.70214
 96  3  2 16 26 59.9980000  0  7 14 18 22 29 19 04 28
  20283635.248    -1310344.812 7   -993432.814 2
  21247384.295   -10118704.445 6  -7781027.094 1
  21071672.123    -1475572.069 7  -1119745.417 2
  20034886.295    -6543032.548 7  -5027949.434 3
  22553726.701   -10368349.666 5  -7860891.173 1
  24357223.771    -4253159.124 4        -0.17511
  24237328.545     -131811.291 2
 96  3  2 16 27 29.9970000  0  7 14 18 22 29 19 04 28
  20283852.360    -1309195.828 7   -992537.522 3
  21222387.501   -10250054.300 6
  21071584.314    -1476014.150 7
  20019757.720    -6622542.825 7  -5089905.496 3
  22528706.173   -10499843.264 5
  24349478.774    -4293878.167 3    -31729.361 1
  24212252.564     -263605.225 4   -422956.097 1
 96  3  2 16 27 59.9970000  0  7 14 18 22 29 19 04 28
  20284159.009    -1307604.650 7   -991297.663 3
  21197407.446   -10381330.972 6
  21071584.149    -1476022.923 7
  20004671.931    -6701810.936 7  -5151672.860 3
  22503708.376   -10631175.436 5
  24341801.079    -4334220.305 3    -63164.824 1
  24187180.407     -395385.717 4   -525642.154 1
 96  3  2 16 28 29.9970000  0  7 14 18 22 29 19 04 28
  20284540.829    -1305586.240 7   -989724.937 3
  21172436.517   -10512542.591 6
  21071663.126    -1475613.644 7
  19989630.704    -6780861.545 7  -5213270.735 3
  22478751.837   -10762385.878 5
  24334187.657    -4374199.474 4    -94317.483 1
  24162097.751     -527165.925 3   -628327.977 1
 96  3  2 16 28 59.9970000  0  7 14 18 22 29 19 04 28
  20285011.134    -1303122.782 7   -987805.378 3
  21147489.962   -10643653.433 6
  21071821.017    -1474771.776 7  -1119121.815 2
  19974629.970    -6859688.951 7  -5274694.689 3
  22453796.110   -10893482.144 5
  24326653.579    -4413800.534 3   -125175.465 1
  24137019.743     -658926.815 3   -730998.827 1
 96  3  2 16 29 29.9970000  0  7 14 18 22 29 19 04 28
  20285564.282    -1300214.658 7   -985539.303 3
  21122566.501   -10774636.218 6
  21072063.665    -1473504.184 7  -1118134.092 2
  19959669.056    -6938306.447 7  -5335955.069 3
  22428866.798   -11024461.809 5
  24319190.274    -4453041.069 3   -155752.522 1
  24111954.899     -790667.370 3   -833653.767 1
 96  3  2 16 29 59.9970000  0  7 14 18 22 29 19 04 28
  20286205.931    -1296846.330 7   -982914.617 3
  21097665.384   -10905478.066 6
  21072390.470    -1471780.687 7  -1116791.112 2
  19944746.985    -7016723.973 7  -5397059.643 3
  22403971.071   -11155319.782 5
  24311788.228    -4491916.793 3   -186045.328 1
  24086895.298     -922381.244 3   -936287.961 1
 96  3  2 16 30 29.9970000  0  7 14 18 22 29 19 04 28
  20286933.665    -1293022.930 7   -979935.424 3
  21072792.938   -11036180.848 6
  21072809.556    -1469584.323 7  -1115079.668 2
  19929863.142    -7094942.980 7  -5458009.520 3
  22379093.048   -11286056.256 5
  24304464.845    -4530419.954 3   -216047.840 1
  24061831.118    -1054067.902 4  -1038900.881 1
 96  3  2 16 30 59.9970000  0  7 14 18 22 29 19 04 28
  20287749.524    -1288740.436 7   -976598.507 3
  21047948.368   -11166737.928 7
  21073316.360    -1466918.076 7  -1113002.072 2
  19915018.157    -7172950.015 7  -5518794.222 3
  22354242.556   -11416652.005 5
  24297209.735    -4568547.496 3   -245757.682 1
  24036779.743    -1185717.302 3  -1141484.806 1
 96  3  2 16 31 29.9970000  0  7 14 18 22 29 19 04 28
  20288649.118    -1284001.578 7   -972905.903 3
  21023125.517   -11297182.890 7
  21073911.220    -1463790.690 7  -1110565.158 2
  19900215.993    -7250740.959 7  -5579410.547 3
  22329420.735   -11547089.947 5
  24290024.985    -4606314.022 3   -275186.143 1
  24011729.282    -1317336.145 2  -1244044.922 1
 96  3  2 16 31 59.9970000  0  7 14 18 22 29 19 04 28
  20289636.290    -1278812.086 7   -968862.169 3
  20998318.923   -11427546.523 7
  21074594.368    -1460211.062 7  -1107775.843 2
  19885454.899    -7328304.614 7  -5639849.759 3
  22304630.040   -11677369.778 5
  24282906.876    -4643715.498 3   -304330.192 1
  23986690.399    -1448921.079 3  -1346578.659 1
 96  3  2 16 32 29.9970000  0  7 14 18 22 29 19 04 28
  20290710.009    -1273174.712 7   -964469.425 3
  20973526.517   -11557832.586 7  -8902425.520 1
  21075356.103    -1456206.104 7  -1104655.102 2
  19870741.392    -7405625.704 7  -5700099.960 3
  22279867.899   -11807481.038 5  -7980546.674 1
  24275858.157    -4680755.429 3   -333192.510 1
  23961659.931    -1580463.257 4  -1449078.949 1
 96  3  2 16 32 59.9970000  0  7 14 18 22 29 19 04 28
  20291865.978    -1267089.138 7   -959727.429 2
  20948747.181   -11688045.814 7  -9003890.368 2
  21076197.095    -1451787.793 7  -1101212.263 2
  19856073.415    -7482707.519 7  -5760163.713 3
  22255142.438   -11937421.437 5  -8081798.938 1
  24268876.571    -4717448.651 2   -361784.668 1
  23936637.603    -1711956.675 4  -1551541.308 1
 96  3  2 16 33 29.9970000  0  7 14 18 22 29 19 04 28
  20293106.485    -1260573.846 7   -954650.597 2
  20923978.595   -11818205.984 7  -9105313.877 2
  21077116.056    -1446963.971 7  -1097453.449 2
  19841448.579    -7559557.084 7  -5820046.498 3
  22230447.134   -12067206.565 5  -8182930.183 1
  24261958.024    -4753802.753 2   -390112.590 1
  23911624.298    -1843412.620 4  -1653974.515 1
 96  3  2 16 33 59.9970000  0  7 14 18 22 29 19 04 28
  20294425.103    -1253640.947 7   -949248.342 2
  20899225.103   -11948287.155 7  -9206675.825 2
  21078113.751    -1441726.528 7  -1093372.338 2
  19826869.845    -7636166.257 7  -5879741.957 3
  22205775.157   -12196848.754 5  -8283950.061 1
  24255107.673    -4789799.984 2   -418162.393 1
  23886618.337    -1974816.523 3  -1756367.146 1
 96  3  2 16 34 29.9970000  0  7 14 18 22 29 19 04 28
  20295824.829    -1246293.180 7   -943522.823 3
  20874491.931   -12078265.219 7  -9307957.426 2
  21079186.649    -1436078.383 7  -1088971.187 2
  19812336.228    -7712543.654 7  -5939256.813 3
  22181132.978   -12326344.495 5  -8384855.812 1
  24248322.415    -4825442.674 2   -445935.948 1
  23861622.782    -2106166.288 3  -1858717.539 1
 96  3  2 16 34 59.9970000  0  7 14 18 22 29 19 04 28
  20297297.814    -1238549.057 7   -937488.463 2
  20849779.618   -12208125.845 7  -9409147.517 2
  21080341.024    -1430006.298 7  -1084239.698 2
  19797847.267    -7788693.158 7  -5998594.090 3
  22156518.345   -12455703.400 5  -8485654.938 1
  24241604.384    -4860732.131 2   -473434.233 1
  23836641.907    -2237463.467 4  -1961027.036 1
 96  3  2 16 35 29.9970000  0  6 14 18 22 29 19 28
  20298849.321    -1230400.511 7   -931138.983 3
  20825092.806   -12337843.211 7  -9510225.982 2
  21081577.321    -1423508.129 7  -1079176.201 2
  19783398.071    -7864618.226 7  -6057756.484 3
  22131929.720   -12584922.113 5  -8586344.831 1
  23811668.001    -2368701.579 4  -2063290.356 1
 96  3  2 16 35 59.9970000  0  6 14 18 22 29 19 28
  20300481.392    -1221827.814 7   -924458.990 2
  20800441.798   -12467397.275 7  -9611177.196 2
  21082892.735    -1416585.806 7  -1073782.191 2
  19768990.853    -7940323.640 7  -6116747.703 3
  22107365.485   -12713993.152 5  -8686919.636 1
  23786706.079    -2499871.796 4  -2165500.925 1
 96  3  2 16 36 29.9970000  0  6 14 18 22 29 19 28
  20302194.978    -1212821.610 7   -917441.210 2
  20775816.603   -12596799.844 7  -9712010.360 2
  21084289.603    -1409246.186 7  -1068063.011 2
  19754627.681    -8015807.444 7  -6175566.276 3
  22082832.790   -12842917.592 5  -8787380.214 1
  23761755.478    -2630978.136 4  -2267661.711 1
 96  3  2 16 36 59.9970000  0  6 14 18 22 29 19 28
  20303992.228    -1203383.912 7   -910087.183 2
  20751217.501   -12726071.921 7  -9812741.844 2
  21085765.610    -1401490.190 7  -1062019.394 2
  19740306.759    -8091062.380 7  -6234206.487 3
  22058326.884   -12971703.587 5  -8887732.902 1
  23736816.564    -2762021.574 4  -2369773.387 1
 96  3  2 16 37 29.9970000  0  6 14 18 22 29 19 28
  20305869.829    -1193514.417 7   -902396.694 2
  20726641.376   -12855224.306 7  -9913380.062 2
  21087318.540    -1393326.149 7  -1055657.815 2
  19726032.259    -8166078.502 7  -6292660.617 3
  22033845.017   -13100341.354 5  -8987970.086 1
  23711893.399    -2892996.659 4  -2471831.895 1
 96  3  2 16 37 59.9970000  0  6 14 18 22 29 19 28
  20307827.024    -1183221.669 7   -894376.404 2
  20702085.540   -12984258.800 7 -10013926.420 2
  21088953.095    -1384746.480 7  -1048972.368 2
  19711808.337    -8240821.955 7  -6350902.277 3
  22009399.329   -13228814.847 5  -9088079.279 1
  23686985.923    -3023890.255 4  -2573826.827 1
 96  3  2 16 38 29.9970000  0  6 14 18 22 29 19 28
  20309862.704    -1172525.813 7   -886041.995 2
  20677552.017   -13113180.023 7 -10114384.513 2
  21090666.751    -1375748.462 7  -1041960.936 2
  19697639.181    -8315283.688 7  -6408924.412 3
  21984985.282   -13357123.109 5  -9188059.693 1
  23662095.446    -3154695.880 5  -2675753.252 1
 96  3  2 16 38 59.9970000  0  6 14 18 22 29 19 28
  20311971.001    -1161438.404 7   -877402.477 2
  20653041.790   -13241985.731 7 -10214752.592 2
  21092459.728    -1366343.012 7  -1034632.030 2
  19683520.017    -8389472.913 7  -6466734.201 3
  21960596.735   -13485262.776 5  -9287908.757 1
  23637221.860    -3285415.452 4  -2777612.601 1
 96  3  2 16 39 29.9970000  0  6 14 18 22 29 19 28
  20314153.728    -1149967.362 7   -868464.035 2
  20628554.509   -13370666.608 7 -10315023.404 2
  21094322.009    -1356544.078 7  -1026996.512 2
  19669454.079    -8463398.904 7  -6524338.879 3
  21936243.782   -13613251.887 5  -9387640.480 1
  23612360.274    -3416053.582 5  -2879408.510 1
 96  3  2 16 39 59.9970000  0  6 14 18 22 29 19 28
  20316409.860    -1138113.367 7   -859227.179 2
  20604092.048   -13499220.610 7 -10415195.352 2
  21096263.228    -1346357.129 7  -1019058.648 2
  19655433.712    -8537072.884 7  -6581747.181 3
  21911910.524   -13741115.025 5  -9487274.063 1
  23587514.829    -3546612.143 4  -2981142.401 1
 96  3  2 16 40 29.9960000  0  6 14 18 22 29 19 28
  20318740.965    -1125859.805 7   -849678.973 2
  20579656.098   -13627631.491 7 -10515255.769 2
  21098272.496    -1335781.760 7  -1010818.116 2
  19641461.754    -8610500.045 7  -6638963.158 3
  21887606.262   -13868853.275 5  -9586810.318 1
  23562689.309    -3677080.208 4  -3082805.757 1
 96  3  2 16 40 59.9960000  0  6 14 18 22 29 19 28
  20321154.004    -1113194.171 7   -839809.678 2
  20555248.574   -13755895.727 7 -10615201.923 2
  21100357.543    -1324818.904 7  -1002275.646 2
  19627535.277    -8683679.522 7  -6695986.136 3
  21863317.879   -13996470.967 5  -9686252.635 1
  23537875.105    -3807462.564 3  -3184402.350 1
 96  3  2 16 41 29.9960000  0  6 14 18 22 29 19 28
  20323645.418    -1100108.734 7   -829613.272 2
  20530871.020   -13883998.476 7 -10715022.236 2
  21102517.520    -1313459.365 7   -993424.076 2
  19613661.121    -8756592.057 7  -6752801.103 3
  21839060.168   -14123953.400 5  -9785589.552 1
  23513087.996    -3937735.503 4  -3285913.656 1
 96  3  2 16 41 59.9960000  0  7 14 18 22 31 29 19 28
  20326213.902    -1086609.329 7   -819094.294 2
  20506520.020   -14011963.710 7 -10814735.395 2
  21104752.223    -1301712.306 7   -984270.545 2
  23978187.559          -0.02411
  19599834.816    -8829249.329 7  -6809417.161 3
  21814829.098   -14251288.874 6  -9884811.967 1
  23488319.457    -4067904.940 5  -3387344.320 1
 96  3  2 16 42 29.9960000  0  7 14 18 22 31 29 19 28
  20328862.957    -1072687.233 7   -808245.956 2
  20482192.996   -14139804.646 7 -10914351.703 2
  21107062.973    -1289586.332 7   -974821.750 2
  23950366.441     -146189.845 2
  19586055.238    -8901660.715 7  -6865841.632 3
  21790628.965   -14378451.346 6  -9983899.563 1
  23463565.848    -4197970.043 4  -3488693.658 1
 96  3  2 16 42 59.9960000  0  7 14 18 22 31 29 19 28
  20331589.559    -1058344.118 7   -797069.550 2
  20457890.793   -14267511.408 7 -11013863.455 2
  21109443.082    -1277079.846 7   -965076.452 2
  23922520.129     -292539.248 3
  19572325.934    -8973810.692 7  -6922062.394 3
  21766469.238   -14505430.761 6 -10082844.523 1
  23438838.691    -4327915.448 4  -3589949.795 1
 96  3  2 16 43 29.9960000  0  7 14 18 22 31 29 19 28
  20334394.926    -1043603.948 7   -785583.745 2
  20433613.488   -14395095.536 7 -11113279.652 2
  21111891.246    -1264207.249 7   -955045.870 2
  23894642.441     -439058.775 3
  19558642.090    -9045719.158 7  -6978094.976 3
  21742334.434   -14632242.776 6 -10181659.052 1
  23414129.738    -4457750.506 5  -3691119.917 1
 96  3  2 16 43 59.9960000  0  7 14 18 22 31 29 19 28
  20337278.316    -1028461.492 7   -773784.458 2
  20409362.590   -14522528.572 7 -11212578.112 2
  21114413.145    -1250947.826 6   -944713.875 2
  23866722.816     -585746.138 2        -0.06211
  19545004.824    -9117382.051 7  -7033936.201 3
  21718239.527   -14758879.500 6 -10280336.984 1
  23389452.137    -4587464.990 5  -3792196.055 1
 96  3  2 16 44 29.9960000  0  7 14 18 22 31 29 19 28
  20340230.379    -1012946.998 7   -761695.264 2
  20385146.160   -14649792.229 7 -11311744.583 2
  21117009.887    -1237314.602 7   -934090.607 2
  23838781.582     -732605.056 2   -114435.525 1
  19531414.848    -9188795.306 7  -7089582.902 3
  21694166.098   -14885375.864 6 -10378905.550 1
  23364787.254    -4717065.897 5  -3893183.762 1
 96  3  2 16 44 59.9960000  0  7 14 18 22 31 29 19 28
  20343250.301     -997073.669 7   -749326.466 2
  20360966.652   -14776852.812 7 -11410752.828 2
  21119679.480    -1223286.238 7   -923159.431 2
  23810801.184     -879619.392 2   -228992.038 1
  19517878.699    -9259933.749 7  -7145015.462 3
  21670120.020   -15011744.600 6 -10477374.669 1
  23340145.895    -4846542.489 4  -3994074.518 1
 96  3  2 16 45 29.9960000  0  8 14 18 22 31 29 19 04 28
  20346337.590     -980844.708 7   -736680.563 2
  20336824.035   -14903723.206 7 -11509612.873 2
  21122427.324    -1208849.789 6   -911910.265 2
  23782799.035    -1026794.494 3   -343673.892 1
  19504394.043    -9330797.472 7  -7200233.951 3
  21646094.449   -15137984.011 6 -10575743.019 1
  24115342.465          -0.79713
  23315528.949    -4975897.171 4  -4094870.369 1
 96  3  2 16 45 59.9960000  0  8 14 18 22 31 29 19 04 28
  20349496.637     -964242.052 7   -723743.469 2
  20312717.145   -15030409.749 7 -11608329.658 2
  21125250.645    -1194009.001 6   -900346.034 2
  23754764.301    -1174111.085 3   -458465.980 1
  19490964.660    -9401360.364 7  -7255218.033 3
  21622100.863   -15264083.648 6 -10674002.454 1
  24110014.356      -27996.624 2        -0.43511
  23290941.262    -5105118.747 5  -4195562.414 1
 96  3  2 16 46 29.9960000  0  8 14 18 22 31 29 19 04 28
  20352727.270     -947267.029 7   -710516.217 2
  20288640.535   -15156931.874 7 -11706918.315 2
  21128147.895    -1178775.137 6   -888475.505 2
  23726706.723    -1321552.597 3   -573355.395 1
  19477597.566    -9471615.418 7  -7309962.236 3
  21598132.668   -15390038.224 6 -10772148.866 1
  24104750.340      -55659.334 3    -21555.830 1
  23266381.965    -5234201.408 5  -4296146.297 1
 96  3  2 16 46 59.9960000  0  8 14 18 22 31 29 19 04 28
  20356031.629     -929913.943 7   -696994.371 2
  20264591.160   -15283310.861 7 -11805395.445 2
  21131122.363    -1163152.362 6   -876301.924 2
  23698633.434    -1469107.164 3   -688332.904 1
  19464284.090    -9541572.706 7  -7364474.410 3
  21574194.559   -15515816.866 6 -10870158.185 1
  24099543.723      -83009.774 3    -42867.829 1
  23241843.324    -5363137.818 4  -4396616.169 1
 96  3  2 16 47 29.9960000  0  8 14 18 22 31 29 19 04 28
  20359408.426     -912179.110 7   -683175.062 2
  20240563.973   -15409568.024 7 -11903777.644 2
  21134162.113    -1147169.638 6   -863847.877 1
  23670524.660    -1616776.205 2   -803399.693 1
  19451025.395    -9611247.452 7  -7418766.432 3
  21550295.988   -15641429.946 6 -10968038.472 1
  24094394.816     -110060.026 2    -63945.934 1
  23217328.051    -5491932.217 4  -4496975.440 1
 96  3  2 16 47 59.9960000  0  8 14 18 22 31 29 19 04 28
  20362853.363     -894066.219 7   -669061.161 2
  20216564.512   -15535691.128 7 -12002055.386 2
  21137269.410    -1130839.107 6   -851122.798 2
  23642407.793    -1764561.282 3   -918556.836 1
  19437817.395    -9680654.002 7  -7472849.474 3
  21526415.543   -15766893.298 6 -11065802.096 1
  24089305.246     -136824.889 2    -84801.693 1
  23192855.441    -5620583.823 5  -4597223.393 1
 96  3  2 16 48 29.9960000  0  8 14 18 22 31 29 19 04 28
  20366368.590     -875586.291 7   -654661.248 2
  20192594.254   -15661656.303 7 -12100210.066 2
  21140446.660    -1114154.534 6   -838121.850 2
  23614260.535    -1912462.905 3  -1033804.837 1
  19424659.059    -9749802.306 7  -7526731.271 3
  21502570.918   -15892210.587 6 -11163451.910 1
  24084266.027     -163309.685 2   -105439.208 1
  23168394.043    -5749086.623 5  -4697355.336 1
 96  3  2 16 48 59.9960000  0  8 14 18 22 31 29 19 04 28
  20369953.488     -856737.869 7   -639974.206 2
  20168656.535   -15787449.797 7 -12198230.973 2
  21143687.996    -1097123.425 6   -824850.881 2
  23586088.723    -2060489.302 3  -1149150.082 1
  19411550.559    -9818686.632 7  -7580407.377 3
  21478751.371   -16017386.374 6 -11260991.467 1
  24079281.387     -189501.235 2   -125848.212 1
  23143970.574    -5877440.463 5  -4797371.354 1
 96  3  2 16 49 29.9960000  0  8 14 18 22 31 29 19 04 28
  20373608.863     -837533.317 7   -625009.663 2
  20144753.090   -15913064.704 7 -12296112.717 2
  21146994.684    -1079745.030 6   -811309.299 2
  23557894.746    -2208660.713 3
  19398491.324    -9887313.006 7  -7633882.482 3
  21454952.723   -16142442.130 6 -11358437.488 1
  24074353.527     -215405.658 3
  23119580.262    -6005651.856 5  -4897276.223 1
 96  3  2 16 49 59.9960000  0  8 14 18 22 31 29 19 04 28
  20377335.074     -817966.091 7   -609762.510 2
  20120886.145   -16038476.275 7 -12393836.020 2
  21150367.777    -1062005.539 6   -797486.336 1
  23529673.629    -2356968.116 3
  19385486.785    -9955653.649 7  -7687134.936 3
  21431187.348   -16267342.540 6 -11455762.475 1
  24069480.895     -241003.701 2
  23095211.105    -6133700.868 5  -4997054.618 1
 96  3  2 16 50 29.9960000  0  8 14 18 22 31 29 19 04 28
  20381130.301     -798024.976 7   -594224.023 2
  20097062.480   -16163685.494 7 -12491401.641 2
  21153813.449    -1043899.929 6   -783378.092 1
  23501429.348    -2505392.338 3
  19372543.832   -10023672.669 7  -7740136.782 3
  21407455.238   -16392047.483 6 -11552935.143 1
  24064669.465     -266279.897 2
  23070874.059    -6261569.537 5  -5096692.491 1
 96  3  2 16 50 59.9960000  0  8 14 18 22 31 29 19 04 28
  20384991.285     -777722.712 7   -578404.110 2
  20073267.098   -16288725.064 7 -12588835.068 2
  21157326.434    -1025449.459 6   -769001.126 1
  23473160.332    -2653945.255 3
  19359659.074   -10091380.843 7  -7792896.403 3
  21383757.660   -16516574.759 6 -11649969.382 1
  24059910.152     -291264.083 2        -0.43911
  23046573.754    -6389276.193 5  -5196204.126 1
 96  3  2 16 51 29.9960000  0  8 14 18 22 31 29 19 04 28
  20388924.152     -757051.150 7   -562296.431 2
  20049505.152   -16413592.978 7 -12686134.738 2
  21160905.395    -1006648.552 6   -754351.099 2
  23444870.707    -2802607.343 2        -0.27211
  19346834.309   -10158774.849 7  -7845411.219 3
  21360098.043   -16640919.271 6 -11746861.179 1
  24055218.340     -315961.090 2    -19244.876 1
  23022306.371    -6516811.069 5  -5295581.906 1
 96  3  2 16 51 59.9960000  0  8 14 18 22 31 29 19 04 28
  20392931.832     -736001.425 7   -545894.069 2
  20025774.098   -16538303.820 7 -12783312.014 2
  21164543.160     -987518.595 6   -739444.671 1
  23416565.004    -2951366.313 3   -115916.286 1
  19334070.918   -10225848.744 7  -7897676.605 3
  21336466.895   -16765087.271 6 -11843615.458 1
  24050571.027     -340369.999 2    -38264.810 1
  22998068.277    -6644177.105 5  -5394828.128 1
 96  3  2 16 52 29.9960000  0  8 14 18 22 31 29 19 04 28
  20397010.957     -714565.712 7   -529190.948 2
  20002074.941   -16662844.250 7 -12880356.502 2
  21168246.668     -968050.641 6   -724274.862 1
  23388237.840    -3100204.458 3   -231894.020 1
  19321365.816   -10292610.168 7  -7949698.496 3
  21312870.316   -16889087.224 6 -11940238.780 1
  24045979.184     -364499.429 2
  22973863.621    -6771368.910 5  -5493938.545 1
 96  3  2 16 52 59.9950000  0  8 14 18 22 31 29 19 04 28
  20401163.007     -692748.983 7   -512190.946 2
  19978413.062   -16787182.822 7 -12977243.701 2
  21172017.788     -948251.119 6   -708846.693 2
  23359902.147    -3249113.144 3   -347926.746 1
  19308716.421   -10359083.412 7  -8001495.840 3
  21289308.241   -17012928.663 6 -12036738.581 1
  24041440.874     -388349.481 2
  22949695.202    -6898380.124 5  -5592908.294 1
 96  3  2 16 53 29.9950000  0  8 14 18 22 31 29 19 04 28
  20405385.327     -670548.461 6   -494891.881 2
  19954794.022   -16911304.448 7 -13073961.850 2
  21175850.335     -928106.130 6   -693149.329 1
  23331557.460    -3398098.062 3   -464018.804 1
  19296122.515   -10425271.620 7  -8053071.079 3
  21265771.218   -17136601.567 6 -12133107.062 1
  24036952.202     -411908.904 3        -0.43611
  22925562.140    -7025202.202 5  -5691730.606 1
 96  3  2 16 53 59.9950000  0  8 14 18 22 31 29 19 27 28
  20409679.015     -648001.569 6   -477322.923 2
  19931214.663   -17035217.118 7 -13170517.177 3
  21179741.983     -907642.177 6   -677203.419 1
  23303182.015    -3547184.877 2   -580190.332 1
  19283575.124   -10491206.285 7  -8104448.746 3
  21242266.538   -17260117.424 6 -12229353.158 1
  24234870.202          -0.74513
  22901458.179    -7151851.969 5  -5790418.699 1
 96  3  2 16 54 29.9950000  0  8 14 18 22 31 29 19 27 28
  20414027.616     -625135.912 6   -459505.575 2
  19907677.491   -17158902.726 7 -13266895.567 3
  21183704.905     -886846.657 6   -660999.139 1
  23274793.890    -3696371.086 3   -696439.226 1
  19271074.929   -10556896.971 7  -8155636.305 3
  21218794.577   -17383469.694 6 -12325471.780 1
  24207976.562     -141354.667 3
  22877386.148    -7278322.388 4  -5888967.007 1
 96  3  2 16 54 59.9950000  0  8 14 18 22 31 29 19 27 28
  20418437.671     -601963.196 6   -441448.955 2
  19884179.812   -17282379.887 7 -13363111.538 3
  21187723.468     -865712.994 6   -644531.376 1
  23246386.890    -3845657.281 3   -812766.095 1
  19258622.843   -10622328.121 7  -8206621.626 3
  21195355.233   -17506653.314 6 -12421458.990 1
  24181084.843     -282650.353 3        -0.19711
  22853362.702    -7404606.779 5  -5987370.369 1
 96  3  2 16 55 29.9950000  0  8 14 18 22 31 29 19 27 28
  20422906.983     -578487.563 6   -423156.294 2
  19860717.601   -17405675.602 7 -13459186.116 3
  21191809.382     -844239.107 6   -627798.506 1
  23217960.366    -3995044.216 2   -929171.471 1
  19246226.202   -10687472.356 7  -8257383.373 3
  21171944.054   -17629679.962 6 -12517323.885 1
  24154208.444     -423909.023 3   -110071.890 1
  22829369.648    -7530705.447 5  -6085628.990 1
 96  3  2 16 55 59.9950000  0  8 14 18 22 31 29 19 27 28
  20427430.382     -554708.073 6   -404626.863 2
  19837289.108   -17528801.014 7 -13555127.991 3
  21195959.030     -822431.812 6   -610805.832 1
  23189511.960    -4144518.732 2  -1045645.064 1
  19233888.062   -10752312.336 7  -8307908.048 3
  21148558.710   -17752564.714 6 -12613078.216 1
  24127329.921     -565139.463 2   -220121.604 1
  22805405.335    -7656617.532 5  -6183742.238 1
 96  3  2 16 56 29.9950000  0  8 14 18 22 31 29 19 27 28
  20431992.538     -530730.414 6   -385943.028 2
  19813868.515   -17651876.679 7 -13651031.105 3
  21200152.858     -800398.640 6   -593637.156 1
  23161032.593    -4294179.381 2  -1162263.734 1
  19221592.788   -10816925.052 7  -8358255.638 3
  21125174.952   -17875430.618 6 -12708817.863 1
  24100445.288     -706438.478 2   -330224.738 1
  22781461.687    -7782439.718 5  -6281785.425 1
 96  3  2 16 56 59.9950000  0  8 14 18 22 31 29 19 27 28
  20436616.358     -506435.195 6   -367011.732 1
  19790476.265   -17774810.620 7
  21204401.335     -778066.298 6   -576235.350 1
  23132538.155    -4443940.503 3  -1278960.618 1
  19209361.179   -10881201.650 7  -8408341.309 3
  21101815.632   -17998184.924 6
  24073558.351     -847710.849 2   -440307.109 1
  22757557.421    -7908072.411 5  -6379680.973 1
 96  3  2 16 57 29.9950000  0  8 14 18 22 31 29 19 27 28
  20441310.655     -481767.446 6   -347790.144 1
  19767120.835   -17897535.034 7
  21208714.405     -755406.521 6   -558578.399 1
  23104026.405    -4593754.840 3  -1395699.022 1
  19197201.069   -10945104.990 7  -8458136.131 3
  21078487.093   -18120771.835 6
  24046692.108     -988899.858 2   -550324.542 1
  22733692.530    -8033464.496 5  -6477389.023 1
 96  3  2 16 57 59.9950000  0  8 14 18 22 31 29 19 27 28
  20446062.233     -456794.374 6   -328330.654 1
  19743800.210   -18020082.895 7
  21213077.171     -732482.374 6   -540715.447 1
  23075498.054    -4743683.634 3  -1512526.624 1
  19185098.273   -11008706.649 7  -8507695.873 3
  21055183.616   -18243244.565 6
  24019835.515    -1130056.905 2   -660317.045 1
  22709871.796    -8158671.737 5  -6574953.041 1
 96  3  2 16 58 29.9950000  0  8 14 18 22 31 29 19 27 28
  20450885.749     -431452.240 6   -308583.571 1
  19720531.671   -18142362.263 7
  21217500.499     -709236.944 6   -522602.150 1
  23046952.077    -4893670.111 2  -1629399.181 1
  19173061.554   -11071957.055 7  -8556981.913 3
  21031915.077   -18365518.963 6
  23992985.819    -1271125.219 2   -770240.401 1
  22686091.124    -8283626.409 5  -6672320.258 1
 96  3  2 16 58 59.9950000  0  8 14 18 22 31 29 19 27 28
  20455770.405     -405789.938 6   -288587.021 1
  19697308.015   -18264408.306 7
  21221974.280     -685718.638 6   -504276.215 1
  23018391.116    -5043755.765 3  -1746349.011 1
  19161075.952   -11134937.359 7  -8606057.492 3
  21008680.249   -18487622.453 6
  23966139.655    -1412171.448 2   -880146.583 1
  22662348.202    -8408385.125 5  -6769534.741 1
 96  3  2 16 59 29.9950000  0  8 14 18 22 31 29 19 27 28
  20460718.655     -379775.091 6   -268315.762 1
  19674134.921   -18386174.651 7
  21226516.030     -661863.429 6   -485687.761 1
  22989832.593    -5193875.854 3  -1863325.633 1
  19149150.663   -11197605.532 7  -8654889.843 3
  20985483.140   -18609516.316 6
  23939318.437    -1553166.058 2   -990012.530 1
  22638655.335    -8532904.538 5  -6866562.795 1
 96  3  2 16 59 59.9950000  0  7 14 18 22 31 29 19 28
  20465735.366     -353419.112 6   -247778.678 2
  19651016.155   -18507672.220 7 -14317884.704 3
  21231118.226     -637665.698 6   -466832.401 1
  22961259.562    -5344027.013 4  -1980326.468 1
  19137284.241   -11259966.299 7  -8703482.657 3
  20962324.562   -18731220.938 6 -13375667.317 1
  22615002.272    -8657192.117 5  -6963410.163 1
 96  3  2 17  0 29.9950000  0  8 14 18 22 31 29 19 27 28
  20470786.780     -326875.634 6   -227095.516 1
  19627912.116   -18629077.683 7 -14412486.364 3
  21235759.952     -613285.891 6   -447835.193 1
  22932652.780    -5494355.049 4  -2097465.187 1
  19125447.437   -11322169.474 7  -8751952.683 3
  20939175.226   -18852887.024 6 -13470472.062 1
  23885639.358          -0.07012
  22591367.468    -8781401.886 5  -7060196.927 1
 96  3  2 17  0 59.9950000  0  8 14 18 22 31 29 19 27 28
  20475889.671     -300053.943 6   -206195.537 2
  19604840.640   -18750317.605 7 -14506959.014 3
  21240453.101     -588615.830 6   -428611.788 1
  22904030.155    -5644753.333 4  -2214658.624 1
  19113663.913   -11384097.759 7  -8800208.498 3
  20916044.616   -18974438.163 6 -13565187.202 1
  23858789.101     -141103.271 1        -0.41511
  22567763.733    -8905434.862 5  -7156845.902 1
 96  3  2 17  1 29.9950000  0  8 14 18 22 31 29 19 27 28
  20481064.319     -272867.481 6   -185011.315 1
  19581818.718   -18871301.358 7 -14601232.059 3
  21245220.687     -563565.073 6   -409091.738 1
  22875408.444    -5795128.146 4  -2331833.754 1
  19101953.991   -11445627.876 7  -8848154.048 3
  20892947.648   -19095805.354 6 -13659759.021 1
  23831962.210     -282123.737 2   -109886.510 1
  22544213.523    -9029187.554 5  -7253276.510 1
 96  3  2 17  1 59.9950000  0  7 14 18 22 31 29 19 28
  20486296.241     -245362.619 6   -163579.012 1
  19558840.968   -18992057.833 7 -14695328.004 3
  21250051.655     -538181.766 6   -389312.559 1
  22846791.671    -5945518.447 4  -2449020.960 1
  19090314.952   -11506787.195 7  -8895810.670 3
  20869879.483   -19217013.578 6 -13754206.971 1
  22520714.155    -9152683.264 5  -7349506.844 1
 96  3  2 17  2 29.9950000  0  7 14 18 22 31 29 19 28
  20491637.101     -217309.462 6   -141719.455 1
  19535947.226   -19112355.955 7 -14789066.770 3
  21254984.694     -512243.201 6   -369100.691 1
  22818219.648    -6095686.051 4  -2566034.630 1
  19078793.843   -11567332.780 7  -8942989.037 3
  20846894.390   -19337819.261 6 -13848341.222 1
  22497309.468    -9275680.298 5  -7445348.624 1
 96  3  2 17  2 59.9950000  0  7 14 18 22 31 29 19 28
  20497091.077     -188636.806 6   -119377.167 1
  19513157.304   -19232119.615 7 -14882389.074 3
  21260042.507     -485675.841 6   -348398.868 1
  22789700.952    -6245548.363 4  -2682810.394 1
  19067400.452   -11627215.116 7  -8989650.595 3
  20823992.265   -19458162.907 6 -13942115.458 1
  22474013.148    -9398105.301 5  -7540744.649 1
 96  3  2 17  3 29.9950000  0  7 14 18 22 31 29 19 28
  20502590.077     -159737.701 6    -96858.430 1
  19490401.835   -19351714.247 7 -14975579.683 3
  21265139.843     -458884.836 6   -327522.790 1
  22761173.397    -6395483.972 4  -2799643.299 1
  19056053.257   -11686835.872 7  -9036108.332 3
  20801108.194   -19578416.329 6 -14035819.388 1
  22450748.312    -9520339.207 5  -7635991.806 1
 96  3  2 17  3 59.9950000  0  7 14 18 22 31 29 19 28
  20508130.648     -130639.253 6    -74184.368 1
  19467665.765   -19471170.129 7 -15068662.174 3
  21270272.374     -431913.789 6   -306506.421 1
  22732615.733    -6545523.139 4  -2916556.899 1
  19044749.944   -11746238.646 7  -9082396.217 3
  20778241.968   -19698590.991 6 -14129461.942 1
  22427522.460    -9642412.097 5  -7731113.512 1
 96  3  2 17  4 29.9950000  0  7 14 18 22 31 29 19 28
  20513676.624     -101476.896 6    -51460.521 1
  19444935.749   -19590629.826 7 -15161747.654 3
  21275412.194     -404909.274 6   -285463.985 1
  22704020.093    -6695801.376 3  -3033656.779 1
  19033460.288   -11805569.449 7  -9128628.041 3
  20755355.437   -19818844.987 6 -14223166.355 1
  22404294.444    -9764470.114 5  -7826223.647 1
 96  3  2 17  4 59.9950000  0  7 14 18 22 31 29 19 28
  20519268.249      -72101.870 6    -28570.936 1
  19422235.046   -19709924.771 7 -15254704.738 3
  21280583.249     -377728.704 6   -264284.354 1
  22675407.187    -6846171.414 3  -3150828.148 1
  19022212.999   -11864671.247 7  -9174681.388 3
  20732488.062   -19939023.382 6 -14316811.837 1
  22381099.077    -9886357.190 5  -7921200.556 1
 96  3  2 17  5 29.9940000  0  7 14 18 22 31 29 19 28
  20524886.502      -42574.444 6     -5562.620 1
  19399557.119   -19829092.004 7 -15347562.320 3
  21285778.580     -350435.459 6   -243016.933 1
  22646762.315    -6996695.634 3  -3268119.724 1
  19011008.236   -11923554.559 7  -9220564.505 3
  20709628.830   -20059149.968 6 -14410416.953 1
  22357930.283   -10008112.192 5  -8016074.591 1
 96  3  2 17  5 59.9940000  0  7 14 18 22 31 29 19 28
  20530531.432      -12909.392 6     17552.947 1
  19376897.830   -19948176.745 7 -15440355.617 3
  21290989.807     -323039.433 6   -221669.397 1
  22618080.393    -7147410.825 3  -3385560.094 1
  18999842.713   -11982237.266 7  -9266291.302 3
  20686769.596   -20179257.545 6 -14504007.254 1
  22334782.729   -10129761.995 5  -8110866.626 1
 96  3  2 17  6 29.9940000  0  8 14 18 22 31 29 19 27 28
  20536226.057       17007.405 6     40864.687 1
  19354275.861   -20067045.279 7 -15532980.433 3
  21296248.557     -295406.474 6   -200137.243 1
  22589397.354    -7298185.004 3  -3503046.395 1
  18988737.674   -12040588.527 7  -9311759.819 3
  20663944.416   -20299219.593 6 -14597484.147 1
  23564503.205     -140698.491 2
  22311675.033   -10251172.736 5  -8205472.369 1
 96  3  2 17  6 59.9940000  0  8 14 18 22 31 29 19 27 28
  20541975.525       47220.027 6     64406.927 1
  19331708.768   -20185634.740 7 -15625387.798 3
  21301564.471     -267476.497 6   -178373.653 1
  22560697.713    -7448968.111 3  -3620539.682 1
  18977705.627   -12098556.270 7  -9356929.503 3
  20641160.299   -20418967.049 6 -14690793.828 1
  23537744.064     -281322.493 3        -0.18911
  22288632.315   -10372288.215 5  -8299848.039 1
 96  3  2 17  7 29.9940000  0  8 14 18 22 31 29 19 27 28
  20547770.025       77676.649 6     88139.316 1
  19309184.932   -20304001.875 7 -15717621.917 3
  21306929.244     -239285.670 6   -156406.797 1
  22531995.971    -7599812.800 3  -3738080.881 1
  18966736.315   -12156205.297 7  -9401850.827 3
  20618400.697   -20538562.432 6 -14783985.009 1
  23510989.525     -421929.390 3
  22265626.744   -10493161.127 5  -8394034.659 1
 96  3  2 17  7 59.9940000  0  8 14 18 22 31 29 19 27 28
  20553608.658      108361.953 6    112049.889 1
  19286700.588   -20422160.779 7 -15809693.779 3
  21312340.854     -210850.473 6   -134249.525 1
  22503275.916    -7750726.859 3  -3855676.194 1
  18955816.518   -12213587.383 7  -9446564.149 3
  20595660.596   -20658053.095 6 -14877094.594 1
  23484228.190     -562548.128 3        -0.15911
  22242668.541   -10613813.890 5  -8488049.739 1
 96  3  2 17  8 29.9940000  0  8 14 18 22 31 29 19 27 28
  20559570.283      139681.846 6    136454.947 1
  19264336.205   -20539689.398 7 -15901274.500 3
  21317872.736     -181779.520 6   -111596.858 1
  22474622.025    -7901307.856 3  -3973011.973 1
  18945024.307   -12270304.436 7  -9490759.254 3
  20573017.268   -20777032.932 6 -14969806.108 1
  23457542.932     -702779.474 3   -109271.313 1
  22219831.400   -10733842.635 5  -8581578.564 1
 96  3  2 17  8 59.9940000  0  8 14 18 22 31 29 19 27 28
  20565581.619      171285.610 6    161081.210 1
  19242022.471   -20656947.563 7 -15992644.476 3
  21323456.346     -152443.559 6    -88737.679 1
  22445962.104    -8051917.849 4  -4090370.285 1
  18934288.830   -12326715.258 7  -9534715.741 3
  20550404.369   -20895868.408 6 -15062405.144 1
  23430868.283     -842969.205 3   -218510.078 1
  22197037.244   -10853604.005 5  -8674899.022 1
 96  3  2 17  9 29.9940000  0  8 14 18 22 31 29 19 27 28
  20571641.299      203111.126 6    185880.254 1
  19219742.783   -20774027.431 7 -16083875.530 3
  21329071.205     -122927.516 6    -65738.192 1
  22417283.361    -8202614.808 4  -4207796.382 1
  18923599.065   -12382890.553 7  -9578488.707 3
  20527802.471   -21014642.076 6 -15154956.028 1
  23404185.994     -983174.831 3
  22174287.658   -10973164.844 5  -8768063.228 1
 96  3  2 17  9 59.9940000  0  8 14 18 22 31 29 19 27 28
  20577755.213      235245.961 6    210920.333 1
  19197512.096   -20890845.589 7 -16174902.655 3
  21334734.525      -93164.859 6    -42546.531 1
  22388610.705    -8353285.887 3  -4325202.328 1
  18912973.525   -12438728.198 7  -9621998.565 3
  20505233.502   -21133260.455 6 -15247385.915 1
  23377523.572    -1123293.573 3
  22151591.729   -11092430.817 5  -8860997.660 1
 96  3  2 17 10 29.9940000  0  8 14 18 22 31 29 19 27 28
  20583917.791      267633.274 6    236157.143 1
  19175320.479   -21007460.204 7 -16265771.169 3
  21340434.447      -63211.844 6    -19206.546 1
  22359938.190    -8503970.981 4  -4442619.175 1
  18902406.799   -12494254.811 7  -9665266.060 3
  20482685.229   -21251761.716 6 -15339724.527 1
  23350869.643    -1263378.165 3        -0.07711
  22128943.830   -11211445.618 5  -8953736.381 1
 96  3  2 17 10 59.9940000  0  8 14 18 22 31 29 19 27 28
  20590131.400      300280.580 6    261596.545 1
  19153171.533   -21123860.161 7 -16356472.419 3
  21346175.283      -33036.544 6      4306.636 1
  22331265.713    -8654619.986 3  -4560007.912 1
  18891906.135   -12549439.724 7  -9708267.293 3
  20460156.986   -21370128.882 6 -15431958.651 1
  23324219.096    -1403413.960 3   -109118.916 1
  22106350.463   -11330179.975 5  -9046256.568 1
 96  3  2 17 11 29.9940000  0  8 14 18 22 31 29 19 27 28
  20596394.080      333194.655 6    287243.822 1
  19131069.518   -21240011.052 7 -16446979.598 3
  21351965.463       -2616.913 6     28010.213 1
  22302613.885    -8805199.078 4  -4677342.156 1
  18881472.979   -12604266.362 7  -9750989.361 3
  20437663.479   -21488328.341 6
  23297579.299    -1543402.550 4   -218200.964 1
  22083810.369   -11448611.477 5
 96  3  2 17 11 59.9940000  0  8 14 18 22 31 29 19 27 28
  20602701.104      366331.953 6    313065.035 1
  19109011.291   -21355914.339 7 -16537293.832 3
  21357794.900       28015.660 6     51879.722 1
  22273961.721    -8955756.091 3  -4794659.200 1
  18871101.783   -12658761.647 7  -9793453.228 3
  20415202.893   -21606380.491 6
  23270937.369    -1683396.057 4   -327286.850 1
  22061328.729   -11566769.915 5
 96  3  2 17 12 29.9940000  0  8 14 18 22 31 29 19 27 28
  20609050.658      399705.974 6    339070.715 1
  19087012.900   -21471533.384 7 -16627386.576 3
  21363671.744       58892.945 6     75939.915 1
  22245321.713    -9106287.568 4  -4911956.307 1
  18860797.533   -12712913.117 7  -9835649.185 3
  20392764.744   -21724266.076 6
  23244300.588    -1823392.881 4   -436375.307 1
  22038895.150   -11684635.159 5
 96  3  2 17 12 59.9940000  0  8 14 18 22 31 29 19 27 28
  20615462.877      433397.078 6    365323.479 1
  19065080.729   -21586771.851 7 -16717182.766 3
  21369611.619       90104.545 6    100260.607 1
  22216693.236    -9256711.103 3  -5029169.356 1
  18850573.182   -12766643.857 7  -9877517.298 3
  20370386.127   -21841892.348 6 -15799566.428 1
  23217677.729    -1963288.630 4   -545385.014 1
  22016545.830   -11802117.876 5  -9414000.075 1
 96  3  2 17 13 29.9940000  0  8 14 18 22 31 29 19 27 28
  20621907.854      467273.964 6    391720.991 1
  19043201.775   -21701755.594 7 -16806780.476 3
  21375583.955      121501.721 6    124725.906 1
  22188063.541    -9407169.898 4  -5146409.830 1
  18840403.736   -12820083.380 7  -9919158.486 3
  20348024.650   -21959386.181 6 -15891120.019 1
  23191050.760    -2103211.794 3
  21994234.041   -11919349.060 5  -9505348.992 1
 96  3  2 17 13 59.9940000  0  8 14 18 22 31 29 19 27 28
  20628396.768      501370.037 6    418289.302 1
  19021373.580   -21816467.201 7 -16896166.137 3
  21381603.385      153128.129 6    149369.825 1
  22159435.838    -9557614.621 3  -5263639.376 1
  18830299.408   -12873186.945 7  -9960537.894 3
  20325693.947   -22076727.963 6 -15982555.139 1
  23164428.221    -2243102.486 3
  21971981.861   -12036288.353 5  -9596470.447 1
 96  3  2 17 14 29.9940000  0  8 14 18 22 31 29 19 27 28
  20634926.963      535684.425 6    445027.733 1
  18999592.377   -21930918.629 7 -16985349.054 3
  21387667.775      184997.990 6    174203.443 1
  22130814.783    -9708006.327 4  -5380827.590 1
  18820258.947   -12925944.657 7 -10001647.806 3
  20303395.236   -22193921.391 6 -16073874.661 1
  23137823.244    -2382930.789 3        -0.43811
  21949788.400   -12152920.479 5  -9687352.563 1
 96  3  2 17 14 59.9940000  0  8 14 18 22 31 29 19 27 28
  20641501.697      570231.976 6    471947.839 1
  18977864.424   -22045103.472 7 -17074324.250 3
  21393779.861      217126.748 6    199238.808 1
  22102215.916    -9858313.390 4  -5497949.845 1
  18810290.885   -12978324.940 7 -10042463.621 3
  20281127.986   -22310949.309 6 -16165065.207 1
  23111231.049    -2522666.922 3   -108885.748 1
  21927654.533   -12269216.079 5  -9777972.456 1
 96  3  2 17 15 29.9940000  0  8 14 18 22 31 29 19 27 28
  20648112.065      604976.540 6    499021.469 1
  18956179.463   -22159055.239 7 -17163117.816 3
  21399935.393      249467.631 6    224439.460 1
  22073619.041   -10008576.685 4  -5615038.015 1
  18800391.119   -13030356.350 7 -10083007.582 3
  20258879.690   -22427859.523 6 -16256164.045 1
  23084649.971    -2662352.881 3   -217731.860 1
  21905582.744   -12385208.011 5  -9868355.726 1
 96  3  2 17 15 59.9940000  0  8 14 18 22 31 29 19 27 28
  20654761.182      639917.375 6    526248.038 1
  18934541.494   -22272765.010 7 -17251722.823 3
  21406131.924      282032.670 6    249814.782 1
  22045029.229   -10158808.446 4  -5732101.606 1
  18790555.924   -13082042.184 7 -10123282.263 3
  20236655.182   -22544657.790 6 -16347175.645 1
  23058077.346    -2801987.894 3   -326538.353 1
  21883570.244   -12500894.628 5  -9958501.112 1
 96  3  2 17 16 29.9940000  0  8 14 18 22 31 29 19 27 28
  20661449.518      675063.120 6    553634.268 1
  18912952.479   -22386212.822 7 -17340123.705 3
  21412368.791      314800.054 6    275347.785 1
  22016447.463   -10309027.222 5  -5849155.053 1
  18780783.986   -13133388.233 7 -10163292.176 3
  20214452.393   -22661327.077 6 -16438086.746 1
  23031512.955    -2941583.557 2   -435314.149 1
  21861612.604   -12616271.791 5 -10048405.344 1
 96  3  2 17 16 59.9940000  0  8 14 18 22 31 29 19 27 28
  20668178.322      710420.891 6    581185.707 1
  18891417.963   -22499386.841 7 -17428311.245 3
  21418637.166      347746.323 6    301020.168 1
  21987861.627   -10459252.610 4  -5966213.675 1
  18771075.471   -13184407.522 7 -10203047.472 3
  20192274.986   -22777857.494 6 -16528889.633 1
  23004952.736    -3081154.504 2   -544070.736 1
  21839714.619   -12731344.364 5 -10138072.241 1
 96  3  2 17 17 29.9940000  0  8 14 18 22 31 29 19 27 28
  20674977.510      746159.647 6    609034.034 1
  18869967.447   -22612110.548 7 -17516147.877 3
  21424971.674      381031.003 6    326956.266 1
  21959299.807   -10609318.664 5  -6083148.120 1
  18761459.955   -13234935.223 7 -10242419.702 3
  20170156.549   -22894079.052 6 -16619451.836 1
  22978427.010    -3220542.515 2   -652684.729 1
  21817906.705   -12845951.024 5 -10227376.086 1
 96  3  2 17 17 59.9930000  0  8 14 18 22 31 29 19 27 28
  20681801.646      782005.797 6    636966.023 1
  18848549.388   -22724650.578 7 -17603841.408 3
  21431319.146      414385.238 6    352946.539 1
  21930729.974   -10759471.107 5  -6200149.918 1
  18751887.271   -13285241.161 7 -10281619.152 3
  20148053.802   -23010252.450 6 -16709976.549 1
  22951883.161    -3360031.254 2   -761377.235 1
  21796137.481   -12960358.266 5 -10316524.553 1
 96  3  2 17 18 29.9930000  0  8 14 18 22 31 29 19 27 28
  20688657.294      818035.602 6    665041.129 1
  18827182.817   -22836938.488 7 -17691338.472 3
  21437689.028      447865.634 6    379035.129 1
  21902156.606   -10909616.920 5  -6317146.528 1
  18742372.294   -13335251.660 7 -10320588.380 3
  20125965.505   -23126302.039 6 -16800404.760 1
  22925337.614    -3499550.231 2   -870093.296 1
  21774418.474   -13074492.887 5 -10405460.592 1
 96  3  2 17 18 59.9930000  0  8 14 18 22 31 29 19 27 28
  20695556.411      854300.625 6    693299.511 1
  18805874.802   -22948916.520 7 -17778594.068 3
  21444098.919      481540.177 6    405275.003 1
  21873599.481   -11059686.149 5  -6434083.476 1
  18732925.052   -13384894.328 7 -10359270.986 3
  20103917.153   -23242185.190 6 -16890703.282 1
  22898795.317    -3639030.630 2   -978779.304 1
  21752761.591   -13188294.429 5 -10494137.074 1
 96  3  2 17 19 29.9930000  0  8 14 18 22 31 29 19 27 28
  20702504.708      890801.128 6    721741.379 1
  18784629.239   -23060572.425 7 -17865598.657 3
  21450548.786      515438.978 6    431689.627 1
  21845059.224   -11209661.645 4  -6550947.378 1
  18723550.888   -13434153.328 7 -10397654.627 3
  20081894.169   -23357900.900 6 -16980871.335 1
  22872259.872    -3778463.619 3  -1087428.358 1
  21731169.583   -13301751.204 5 -10582544.917 1
 96  3  2 17 19 59.9930000  0  8 14 18 22 31 29 19 27 28
  20709496.138      927552.301 6    750378.587 1
  18763444.138   -23171887.789 7 -17952337.889 3
  21457045.958      549582.304 6    458294.786 1
  21816546.989   -11359502.049 5  -6667706.035 1
  18714252.411   -13483015.130 7 -10435728.763 3
  20059913.067   -23473425.413 6 -17070890.400 1
  22845744.692          -0.44912
  21709652.528   -13414832.327 5 -10670660.038 1
 96  3  2 17 20 29.9930000  0  8 14 18 22 31 29 19 27 28
  20716530.685      964514.069 6    779179.898 1
  18742318.661   -23282896.111 7 -18038837.861 3
  21463585.208      583949.722 5    485074.551 1
  21788050.544   -11509239.613 5  -6784384.550 1
  18705026.036   -13531502.690 7 -10473511.285 3
  20037961.161   -23588795.374 6 -17160789.043 1
  22819234.708     -139281.966 2        -0.46311
  21688202.794   -13527559.458 5 -10758499.323 1
 96  3  2 17 20 59.9930000  0  8 14 18 22 31 29 19 27 28
  20723597.872     1001650.615 6    808117.392 1
  18721246.997   -23393632.087 7 -18125125.618 3
  21470167.786      618532.493 6    512022.119 1
  21759571.356   -11658902.695 5  -6901005.036 1
  18695867.317   -13579631.909 7 -10511014.594 3
  20016030.528   -23704044.010 6 -17250593.143 1
  22792740.841     -278526.219 2   -108502.428 1
  21666815.872   -13639958.705 5 -10846083.105 1
 96  3  2 17 21 29.9930000  0  8 14 18 22 31 29 19 27 28
  20730685.263     1038899.328 6    837142.283 1
  18700215.122   -23504152.859 7 -18211245.694 3
  21476775.927      653264.299 5    539085.835 1
  21731103.263   -11808520.993 5  -7017590.632 1
  18686766.771   -13627455.375 7 -10548279.639 3
  19994113.778   -23819211.805 6 -17340334.260 1
  22766241.958     -417791.654 2   -217020.902 1
  21645479.692   -13752076.237 5 -10933447.370 1
 96  3  2 17 21 59.9930000  0  8 14 18 22 31 29 19 27 28
  20737808.489     1076324.805 6    866304.917 1
  18679237.208   -23614391.664 7 -18297146.047 3
  21483420.067      688180.937 5    566293.577 1
  21702644.950   -11958035.001 5  -7134094.971 1
  18677738.231   -13674901.245 7 -10585250.454 3
  19972225.513   -23934236.431 6 -17429963.795 1
  22739746.325                          -0.94013
  21624212.544   -13863843.556 5 -11020538.726 1
 96  3  2 17 22 29.9930000  0  8 14 18 22 31 29 19 27 28
  20744969.239     1113953.576 6    895625.960 1
  18658319.521   -23724320.138 7 -18382804.588 3
  21490105.864      723299.811 5    593658.911 1
  21674217.880   -12107448.394 5  -7250520.904 1
  18668785.786   -13721945.577 7 -10621908.383 3
  19950362.677   -24049099.888 6 -17519467.750 1
  22713267.208                          -0.71513
  21603014.903   -13975244.470 5 -11107344.582 1
 96  3  2 17 22 59.9930000  0  8 14 18 22 31 29 19 27 28
  20752166.349     1151775.875 6    925097.804 1
  18637458.849   -23833949.517 7 -18468230.064 3
  21496818.114      758574.544 5    621145.675 1
  21645799.333   -12256781.544 5  -7366884.308 1
  18659904.802   -13768616.008 7 -10658274.963 3
  19928534.208   -24163814.950 6 -17608856.081 1
  22686786.942     -139126.485 3        -0.25311
  21581877.294   -14086299.671 5 -11193881.046 1
 96  3  2 17 23 29.9930000  0  8 14 18 22 31 29 19 27 28
  20759406.052     1189833.509 6    954753.027 1
  18616664.544   -23943218.049 7 -18553374.359 3
  21503565.263      794031.533 5    648774.458 1
  21617404.106   -12406000.441 5  -7483158.683 1
  18651100.536   -13814881.088 7 -10694325.676 3
  19906745.981   -24278334.335 6 -17698091.927 1
  22660328.192     -278172.588 3   -108347.825 1
  21560820.075   -14196962.336 5 -11280111.646 1
 96  3  2 17 23 59.9930000  0  8 14 18 22 31 29 19 27 28
  20766729.630     1228304.793 6    984730.581 1
  18595979.091   -24051930.971 7 -18638085.715 3
  21510383.177      829874.922 5    676704.335 1
  21589062.466   -12554932.185 5  -7599209.316 1
  18642408.856   -13860557.768 7 -10729917.896 3
  19885024.278   -24392468.607 6 -17787027.680 1
  22633922.177     -416952.933 3   -216488.786 1
  21539867.536   -14307046.203 5 -11365891.222 1
 96  3  2 17 24 29.9930000  0  8 14 18 22 31 29 19 27 28
  20774073.442     1266896.834 6   1014802.242 1
  18575342.302   -24160373.067 7 -18722586.038 3
  21517229.333      865841.328 5    704730.077 1
  21560727.505   -12703839.950 5  -7715241.249 1
  18633774.216   -13905932.134 7 -10765274.557 3
  19863328.528   -24506486.960 6 -17875873.113 1
  22607510.333     -555741.229 4   -324635.452 1
  21518974.708   -14416828.887 5 -11451436.134 1
 96  3  2 17 24 59.9930000  0  8 14 18 22 31 29 19 27 28
  20781398.192     1305389.919 6   1044796.767 1
  18554720.161   -24268741.313 7 -18807028.831 3
  21524056.810      901728.676 6    732694.192 1
  21532358.856   -12852904.856 5  -7831395.651 1
  18625158.841   -13951206.199 7 -10800553.065 3
  19841616.927   -24620593.804 6 -17964787.518 1
  22581063.505     -694745.088 4   -432950.128 1
  21498108.247   -14526505.330 5 -11536898.255 1
 96  3  2 17 25 29.9930000  0  8 14 18 22 31 29 19 27 28
  20788754.560     1344051.554 6   1074922.638 1
  18534163.646   -24376767.171 7 -18891204.818 3
  21530921.716      937824.123 5    760820.493 1
  21504016.685   -13001850.162 5  -7947456.847 1
  18616614.200   -13996106.047 7 -10835539.971 2
  19819935.739   -24734519.885 6 -18053561.052 1
  22554619.919     -833698.352 4   -541225.361 1
  21477308.028   -14635800.840 5 -11622063.549 1
 96  3  2 17 25 59.9930000  0  8 14 18 22 31 29 19 27 28
  20796144.810     1382888.932 6   1105185.450 1
  18513671.231   -24484457.899 7 -18975119.664 3
  21537834.325      974128.336 5    789109.448 1
  21475698.153   -13150665.891 5  -8063417.045 1
  18608142.630   -14040630.588 7 -10870234.434 3
  19798287.435   -24848271.302 6 -18142198.488 1
  22528187.013     -972592.439 4   -649454.532 1
  21456586.896   -14744711.940 5 -11706929.311 1
 96  3  2 17 26 29.9930000  0  8 14 18 22 31 29 19 27 28
  20803572.888     1421919.514 6   1135598.816 1
  18493242.810   -24591812.564 7 -19058772.642 3
  21544779.950     1010617.958 5    817542.881 1
  21447406.817   -13299342.851 5  -8179269.112 1
  18599740.349   -14084776.997 7 -10904634.239 3
  19776672.778   -24961853.355 6 -18230703.953 1
  22501771.278    -1111417.804 4   -757630.115 1
  21435934.575   -14853229.089 6 -11791488.090 1
 96  3  2 17 26 59.9930000  0  8 14 18 22 31 29 19 27 28
  20811053.669     1461223.241 5   1166225.016 1
  18472890.060   -24698760.082 7 -19142108.357 3
  21551771.005     1047349.948 5    846165.188 1
  21419153.411   -13447807.789 5  -8294955.968 1
  18591428.708   -14128459.929 7 -10938672.890 3
  19755105.646   -25075212.225 6 -18319035.496 1
  22475378.669    -1250104.476 4   -865697.612 1
  21415371.911   -14961275.181 5 -11875679.797 1
 96  3  2 17 27 29.9930000  0  8 14 18 22 31 29 19 27 28
  20818549.021     1500615.323 6   1196920.061 1
  18452578.169   -24805494.931 7 -19225278.368 3
  21558766.388     1084126.559 5    874822.242 1
  21390901.513   -13596260.554 5  -8410633.342 1
  18583169.185   -14171864.234 7 -10972494.442 3
  19733536.255   -25188546.268 6 -18407347.719 1
  22448983.083    -1388829.768 4   -973795.207 1
  21394869.067   -15069040.028 5 -11959652.370 1
 96  3  2 17 27 59.9930000  0  8 14 18 22 31 29 19 27 28
  20826074.552     1540169.848 5   1227741.703 1
  18432326.286   -24911929.215 7 -19308214.169 3
  21565788.521     1121023.998 5    903573.454 1
  21362675.732   -13744603.657 5  -8526225.259 1
  18574979.442   -14214902.942 7 -11006031.110 3
  19711989.864   -25301766.568 6 -18495571.307 1
  22422594.239    -1527502.702 4  -1081852.002 1
  21374428.966   -15176435.170 5 -12043336.855 1
 96  3  2 17 28 29.9930000  0  8 14 18 22 31 29 19 27 28
  20833652.263     1579988.381 6   1258769.070 1
  18412150.192   -25017946.706 7 -19390825.178 3
  21572854.677     1158164.691 5    932514.236 1
  21334491.474   -13892711.471 5  -8641633.811 1
  18566883.974   -14257447.258 7 -11039182.518 3
  19690494.599   -25414745.874 6 -18583607.092 1
  22396233.263    -1666017.790 4  -1189785.788 1
  21354086.482   -15283340.655 5 -12126639.782 1
 96  3  2 17 28 59.9930000  0  8 14 18 22 31 29 19 27 28
  20841284.622     1620094.092 5   1290020.192 1
  18392065.278   -25123505.103 7 -19473078.475 3
  21579981.669     1195600.827 5    961685.220 1
  21306361.091   -14040539.153 5  -8756824.122 1
  18558887.060   -14299468.497 7 -11071926.356 3
  19669046.005   -25527442.152 6 -18671422.360 1
  22369909.802    -1804347.893 4  -1297575.450 1
  21333841.521   -15389723.365 5 -12209535.376 1
 96  3  2 17 29 29.9930000  0  8 14 18 22 31 29 19 27 28
  20848902.083     1660128.167 5   1321215.472 1
  18372001.122   -25228942.401 7 -19555237.409 3
  21587095.810     1232987.101 5    990817.332 1
  21278219.552   -14188429.743 5  -8872063.451 1
  18550919.396   -14341336.406 7 -11104550.721 3
  19647591.247   -25640177.893 6 -18759268.377 1
  22343554.864    -1942851.888 4  -1405500.615 1
  21313630.356   -15495933.266 6 -12292296.308 1
 96  3  2 17 29 59.9920000  0  8 14 18 22 31 29 19 27 28
  20856537.805     1700251.546 5   1352480.363 1
  18351992.281   -25334087.808 7 -19637168.892 3
  21594230.836     1270490.437 5   1020040.683 1
  21250099.953   -14336189.460 5  -8987200.781 1
  18543012.531   -14382888.035 7 -11136928.622 3
  19626168.859   -25752758.180 6 -18846993.247 1
  22317194.469    -2081369.472 4  -1513436.337 1
  21293487.523   -15601796.437 6 -12374787.058 1
 96  3  2 17 30 29.9920000  0  8 14 18 22 31 29 19 27 28
  20864203.391     1740533.302 5   1383868.668 1
  18332051.531   -25438870.659 7 -19718817.865 3
  21601403.727     1308176.002 5   1049406.011 1
  21222017.453   -14483765.918 5  -9102195.322 1
  18535178.703   -14424058.552 7 -11169009.544 3
  19604785.961   -25865135.627 6 -18934560.069 1
  22290840.820    -2219849.470 4  -1621342.816 1
  21273419.438   -15707251.860 6 -12456960.085 1
 96  3  2 17 30 59.9920000  0  8 14 18 22 31 29 19 27 28
  20871897.281     1780971.952 5   1415379.213 1
  18312182.609   -25543288.312 7 -19800182.268 3
  21608599.711     1346016.592 5   1078892.150 1
  21193968.063   -14631157.417 5  -9217045.753 1
  18527412.531   -14464865.768 7 -11200807.387 3
  19583437.133   -25977324.732 6 -19021980.122 1
  22264496.586    -2358284.920 4  -1729214.559 1
  21253428.750   -15812301.103 6 -12538816.609 1
 96  3  2 17 31 29.9920000  0  8 14 18 22 31 29 19 27 28
  20879653.234     1821724.838 5   1447134.633 1
  18292410.063   -25647190.767 7 -19881145.202 3
  21615860.867     1384154.623 5   1108610.053 1
  21165984.633   -14778217.583 5  -9331637.969 1
  18519750.219   -14505135.617 7 -11232186.483 3
  19562149.477   -26089180.140 6 -19109140.148 1
  22238192.875    -2496510.603 4  -1836922.825 1
  21233548.180   -15916783.334 5 -12620231.300 1
 96  3  2 17 31 59.9920000  0  8 14 18 22 31 29 19 27 28
  20887430.500     1862592.167 5   1478979.216 1
  18272696.805   -25750782.766 7 -19961866.249 3
  21623136.078     1422384.174 5   1138399.260 1
  21138023.078   -14925156.357 5  -9446135.619 1
  18512154.500   -14545046.748 7 -11263286.084 3
  19540886.125   -26200929.591 6 -19196217.643 1
  22211896.750    -2634719.896 4  -1944618.346 1
  21213733.469   -16020896.877 6 -12701358.728 1
 96  3  2 17 32 29.9920000  0  8 14 18 22 31 29 19 27 28
  20895207.633     1903448.797 5   1510815.464 1
  18253018.539   -25854190.990 7 -20042444.080 3
  21630399.453     1460571.596 5   1168155.653 1
  21110058.469   -15072121.626 5  -9560653.919 1
  18504605.492   -14584715.286 7 -11294196.631 3
  19519614.719   -26312716.836 6 -19283324.571 1
  22185577.563    -2773017.096 4  -2052382.330 1
  21193969.797   -16124764.920 6 -12782294.846 1
 96  3  2 17 32 59.9920000  0  8 14 18 22 31 29 19 27 28
  20903010.891     1944467.177 5   1542777.744 1
  18233406.789   -25957253.429 7 -20122752.473 3
  21637694.836     1498890.028 5   1198014.113 1
  21082116.688   -15218947.549 5  -9675063.640 1
  18497137.680   -14623963.856 7 -11324779.947 3
  19498370.945   -26424354.668 6 -19370315.072 1
  22159281.398    -2911215.951 4  -2160069.727 1
  21174284.445   -16228210.618 6 -12862901.872 1
 96  3  2 17 33 29.9920000  0  8 14 18 22 31 29 19 27 28
  20910846.922     1985637.584 5   1574858.489 1
  18213862.383   -26059967.818 7 -20202789.663 3
  21645012.219     1537347.248 5   1227980.759 1
  21054203.375   -15365650.798 5  -9789377.785 1
  18489751.891   -14662776.434 7 -11355023.521 3
  19477152.570   -26535839.134 6 -19457186.068 1
  22132998.359    -3049326.139 4  -2267688.013 1
  21154680.219   -16331237.271 6 -12943182.369 1
 96  3  2 17 33 59.9920000  0  8 14 18 22 31 29 19 27 28
  20918710.664     2026968.557 5   1607064.333 1
  18194386.828   -26162303.351 7 -20282531.631 3
  21652362.734     1575962.339 5   1258070.398 1
  21026312.055   -15512201.075 5  -9903572.707 1
  18482449.305   -14701152.502 7 -11384926.951 3
  19455974.461   -26647143.226 7 -19543916.506 1
  22106734.891    -3187337.761 4  -2375229.486 1
  21135152.844   -16433828.885 6 -13023123.874 1
 96  3  2 17 34 29.9920000  0  8 14 18 22 31 29 19 27 28
  20926636.719     2068620.911 5   1639520.630 1
  18175018.555   -26264086.097 7
  21659772.242     1614909.244 5   1288418.588 1
  20998487.578   -15658413.156 5 -10017504.112 1
  18475257.922   -14738937.914 7 -11414370.133 3
  19434862.367   -26758089.032 6 -19630367.753 1
  22080520.836    -3325095.166 4  -2482572.880 1
  21115744.148   -16535814.513 6
 96  3  2 17 34 59.9920000  0  8 14 18 22 31 29 19 27 28
  20934571.352     2110324.562 5   1672016.885 1
  18155708.273   -26365566.560 7
  21667197.992     1653928.677 5   1318823.276 1
  20970683.734   -15804518.950 5 -10131352.716 1
  18468129.172   -14776400.614 7 -11443561.865 3
  19413767.398   -26868942.202 7 -19716746.843 2
  22054297.938    -3462899.726 4  -2589953.040 1
  21096403.500   -16637459.838 6
 96  3  2 17 35 29.9920000  0  8 14 18 22 31 29 19 27 28
  20942502.320     2151985.937 5   1704480.202 1
  18136440.844   -26466820.390 7
  21674619.141     1692926.957 5   1349211.502 1
  20942892.867   -15950580.049 5 -10245166.478 1
  18461043.797   -14813636.405 7 -11472576.777 3
  19392668.641   -26979810.689 7 -19803137.842 2
  22028043.930    -3600860.616 4  -2697455.025 1
  21077108.656   -16738854.154 6
 96  3  2 17 35 59.9920000  0  8 14 18 22 31 29 19 27 28
  20950462.945     2193822.396 5   1737079.948 1
  18117255.094   -26567627.239 7
  21682077.281     1732127.731 5   1379757.506 1
  20915151.211   -16096349.045 5 -10358752.631 1
  18454040.719   -14850436.345 7 -11501252.062 3
  19371610.922   -27090481.354 7 -19889374.696 2
  22001806.352    -3738754.571 4  -2804904.811 1
  21057908.633   -16839765.856 5
 96  3  2 17 36 29.9920000  0  8 14 18 22 31 29 19 27 28
  20958438.852     2235734.364 5   1769738.522 1
  18098139.133   -26668090.507 7
  21689554.953     1771423.209 5   1410377.302 1
  20887452.695   -16241923.956 5 -10472187.562 1
  18447105.461   -14886884.947 7 -11529653.589 3
  19350566.906   -27201053.065 7 -19975534.455 2
  21975556.695    -3876677.293 4  -2912377.062 1
  21038783.734   -16940284.513 5
 96  3  2 17 36 59.9920000  0  8 14 18 22 31 29 19 27 28
  20966454.195     2277869.579 5   1802571.065 1
  18079113.055   -26768070.894 7
  21697077.289     1810945.511 5   1441173.863 1
  20859810.711   -16387168.384 5 -10585364.954 1
  18440266.195   -14922824.750 7 -11557658.630 3
  19329575.641   -27311371.533 7 -20061496.859 2
  21949336.898    -4014461.730 4  -3019741.536 1
  21019756.258   -17040254.858 6
 96  3  2 17 37 29.9920000  0  8 14 18 22 31 29 19 27 28
  20974485.344     2320052.284 5   1835440.592 1
  18060143.367   -26867754.043 7
  21704604.469     1850516.125 5   1472008.048 1
  20832199.828   -16532277.813 5 -10698437.171 1
  18433490.844   -14958430.653 7 -11585403.512 3
  19308603.648   -27421588.079 7 -20147379.867 1
  21923114.914    -4152255.443 4  -3127113.250 1
  21000807.289   -17139839.735 6
 96  3  2 17 37 59.9920000  0  8 14 18 22 31 29 19 27 28
  20982511.758     2362242.688 5   1868316.119 1
  18041221.586   -26967186.308 7 -20909713.138 3
  21712138.117     1890091.088 5   1502845.636 1
  20804598.203   -16677309.823 5 -10811449.048 1
  18426771.031   -14993744.175 7 -11612920.557 3
  19287647.117   -27531720.404 7 -20233197.244 2
  21896887.461    -4290079.173 4  -3234508.355 1
  20981920.297   -17239075.542 6 -13223015.198 1
 96  3  2 17 38 29.9920000  0  8 14 18 22 31 29 19 27 28
  20990576.758     2404622.003 5   1901338.856 1
  18022381.094   -27066196.999 7 -20986864.310 3
  21719698.930     1929830.584 5   1533811.448 1
  20777046.680   -16822088.157 5 -10924263.257 1
  18420139.203   -15028594.348 7 -11640076.541 3
  19266741.891   -27641582.739 7 -20318804.219 2
  21870692.133    -4427754.115 4  -3341787.474 1
  20963131.867   -17337793.961 6 -13299938.610 1
 96  3  2 17 38 59.9920000  0  8 14 18 22 31 29 19 27 28
  20998668.711     2447152.111 5   1934479.072 1
  18003613.039   -27164821.478 7 -21063714.567 3
  21727285.469     1969701.381 5   1564879.537 1
  20749541.891   -16966643.272 5 -11036903.562 1
  18413584.422   -15063039.957 7 -11666917.307 3
  19245873.398   -27751225.691 7 -20404240.281 2
  21844516.656    -4565314.887 4  -3448977.688 1
  20944442.906   -17436040.129 6 -13376494.067 1
 96  3  2 17 39 29.9920000  0  8 14 18 22 31 29 19 27 28
  21006759.695     2489669.568 5   1967609.449 1
  17984893.563   -27263206.088 7 -21140377.893 3
  21734867.461     2009541.509 5   1595923.752 1
  20722047.008   -17111121.272 5 -11149483.769 1
  18407072.344   -15097261.684 7 -11693583.588 3
  19225013.680   -27860837.302 7 -20489651.901 2
  21818324.875    -4702936.577 4  -3556215.342 1
  20925803.703   -17533982.791 6 -13452813.005 1
 96  3  2 17 39 59.9920000  0  8 14 18 22 31 29 19 27 28
  21014876.453     2532319.729 5   2000843.228 1
  17966247.266   -27361182.043 7 -21216722.783 3
  21742470.891     2049502.657 5   1627062.259 1
  20694602.703   -17255345.459 5 -11261866.190 1
  18400631.938   -15131105.529 7 -11719955.431 3
  19204190.547   -27970290.707 7 -20574940.248 2
  21792153.328    -4840477.092 4  -3663389.747 1
  20907251.000   -17631476.879 6 -13528782.396 1
 96  3  2 17 40 29.9920000  0  8 14 18 22 31 29 19 27 28
  21023020.859     2575117.050 5   2034191.686 1
  17947688.391   -27458716.613 7 -21292723.740 3
  21750103.117     2089604.708 5   1658310.575 1
  20667212.336   -17399283.128 5 -11374025.346 1
  18394270.391   -15164538.365 7 -11746006.999 3
  19183390.242   -28079575.468 7 -20660097.174 2
  21765998.336    -4977920.810 4  -3770488.700 1
  20888791.227   -17728500.830 6 -13604385.441 1
 96  3  2 17 40 59.9920000  0  8 14 18 22 31 29 19 27 28
  21031220.070     2618203.221 5   2067765.222 1
  17929246.547   -27555631.243 7 -21368241.624 3
  21757793.742     2130009.307 5   1689794.630 1
  20639900.719   -17542791.920 5 -11485850.307 1
  18388017.570   -15197393.711 7 -11771608.573 3
  19162654.164   -28188539.115 7 -20745003.897 2
  21739889.953    -5115112.926 4  -3877391.607 1
  20870446.039   -17824891.996 6 -13679495.414 1
 96  3  2 17 41 29.9920000  0  8 14 18 22 31 29 19 27 28
  21039422.578     2661314.452 5   2101358.278 1
  17910876.961   -27652167.920 7 -21443465.005 3
  21765490.477     2170460.692 5   1721315.121 1
  20612628.031   -17686130.208 5 -11597542.409 1
  18381833.078   -15229891.892 7 -11796931.838 3
  19141936.031   -28297412.863 7 -20829840.568 2
  21713782.453    -5252310.487 4  -3984298.750 1
  20852175.648   -17920890.986 6 -13754299.808 1
 96  3  2 17 41 59.9910000  0  8 14 18 22 31 29 19 27 28
  21047600.386     2704281.124 5   2134838.684 1
  17892545.034   -27748496.985 7 -21518526.619 3
  21773167.355     2210807.142 5   1752753.835 1
  20585349.987   -17829462.257 5 -11709229.665 1
  18375691.370   -15262170.766 7 -11822084.229 3
  19121210.698   -28406330.323 7 -20914711.303 2
  21687644.933    -5389671.304 4  -4091333.074 1
  20833955.925   -18016649.357 6 -13828916.712 1
 96  3  2 17 42 29.9910000  0  8 14 18 22 31 29 19 27 28
  21055788.511     2747311.147 5   2168368.467 1
  17874288.355   -27844431.224 7 -21593280.567 3
  21780864.066     2251256.319 5   1784272.629 1
  20558113.073   -17972597.535 5 -11820763.580 1
  18369630.628   -15294020.767 7 -11846902.429 3
  19100516.675   -28515093.158 7 -20999461.550 2
  21661511.323    -5526994.344 4  -4198338.005 1
  20815818.019   -18111959.858 6 -13903184.619 1
 96  3  2 17 42 59.9910000  0  8 14 18 22 31 29 19 27 28
  21063990.214     2790412.076 5   2201953.482 1
  17856108.698   -27939969.204 7 -21667725.743 3
  21788586.339     2291822.197 5   1815882.345 1
  20530915.542   -18115513.405 5 -11932126.524 1
  18363653.073   -15325429.610 7 -11871376.863 3
  19079849.534   -28623684.182 7 -21084077.909 2
  21635393.425    -5664267.560 4  -4305304.077 1
  20797773.816   -18206798.158 6 -13977084.572 1
 96  3  2 17 43 29.9910000  0  8 14 18 22 31 29 19 27 28
  21072206.940     2833585.988 5   2235595.371 1
  17837995.300   -28035144.464 7 -21741888.282 3
  21796324.753     2332495.699 5   1847575.906 1
  20503767.058   -18258195.959 5 -12043307.655 1
  18357758.339   -15356402.220 7 -11895511.381 3
  19059220.511   -28732104.430 7 -21168561.204 2
  21609272.620    -5801502.950 4  -4412240.682 1
  20779814.198   -18301166.436 6 -14050618.282 1
 96  3  2 17 43 59.9910000  0  8 14 18 22 31 29 19 27 28
  21080435.972     2876831.294 5   2269292.892 1
  17819951.448   -28129974.304 7 -21815781.654 3
  21804080.315     2373249.753 5   1879332.269 1
  20476658.683   -18400642.634 5 -12154304.991 1
  18351941.808   -15386971.280 7 -11919331.447 3
  19038616.370   -28840372.632 7 -21252926.023 2
  21583165.714    -5938708.826 4  -4519154.266 1
  20761942.753   -18395080.576 6 -14123798.109 1
 96  3  2 17 44 29.9910000  0  8 14 18 22 31 29 19 27 28
  21088698.159     2920247.051 5   2303123.251 1
  17801992.401   -28224358.287 7 -21889327.598 3
  21811864.370     2414150.373 5   1911202.847 1
  20449614.144   -18542759.270 5 -12265045.144 1
  18346215.761   -15417061.781 7 -11942778.594 3
  19018057.386   -28948403.852 7 -21337106.161 2
  21557082.433    -6075791.995 4  -4625972.245 1
  20744173.105   -18488450.295 6 -14196553.685 1
 96  3  2 17 44 59.9910000  0  8 14 18 22 31 29 19 27 28
  21096991.534     2963824.663 5   2337079.703 1
  17784114.433   -28318305.432 7 -21962533.183 3
  21819667.933     2455169.220 5   1943165.515 1
  20422628.901   -18684570.342 5 -12375547.226 1
  18340575.620   -15446700.044 7 -11965873.375 3
  18997543.894   -29056202.300 7 -21421104.941 2
  21531010.245    -6212778.393 4  -4732714.845 1
  20726506.472   -18581292.265 6 -14268898.065 1
 96  3  2 17 45 29.9910000  0  8 14 18 22 31 29 19 27 28
  21105266.706     3007325.466 5   2370976.307 1
  17766275.847   -28412041.240 7 -22035574.062 3
  21827451.261     2496054.335 5   1975023.997 1
  20395654.573   -18826324.250 5 -12486004.742 1
  18334974.190   -15476140.448 7 -11988813.957 3
  18977031.120   -29164012.944 7 -21505113.215 2
  21504918.159    -6349914.390 4  -4839573.991 1
  20708892.433   -18673857.735 6 -14341026.982 1
 96  3  2 17 45 59.9910000  0  8 14 18 22 31 29 19 27 28
  21113567.792     3050946.553 5   2404966.648 1
  17748519.761   -28505345.915 7 -22108279.003 3
  21835244.253     2537012.240 5   2006939.191 1
  20368729.589   -18967817.661 5 -12596259.282 1
  18329444.839   -15505193.037 7 -12011452.352 3
  18956549.542   -29271652.385 7 -21588988.085 2
  21478833.003    -6486988.011 4  -4946384.500 1
  20691368.167   -18765947.001 6 -14412784.820 1
 96  3  2 17 46 29.9910000  0  8 14 18 22 31 29 19 27 28
  21121887.550     3094658.419 5   2439027.708 1
  17730847.097   -28598230.675 7 -22180656.738 3
  21843050.355     2578047.011 5   2038914.266 1
  20341850.972   -19109060.130 5 -12706318.285 1
  18323989.620   -15533862.029 7 -12033791.836 3
  18936092.362   -29379130.996 7 -21672737.634 2
  21452755.667    -6624006.637 4  -5053152.206 1
  20673935.003   -18857562.430 6 -14484173.435 1
 96  3  2 17 46 59.9910000  0  8 14 18 22 31 29 19 27 28
  21130238.964     3138544.629 5   2473224.630 1
  17713271.855   -28690579.887 7 -22252617.157 3
  21850899.948     2619284.894 5   2071047.639 1
  20315047.948   -19249919.770 6 -12816078.980 1
  18318630.636   -15562025.997 7 -12055737.797 3
  18915695.003   -29486330.023 7 -21756269.316 2
  21426717.909    -6760850.414 5  -5159783.652 1
  20656612.690   -18948588.441 6 -14555102.753 1
 96  3  2 17 47 29.9910000  0  8 14 18 22 31 29 19 27 28
  21138570.245     3182328.423 5   2507341.741 1
  17695750.948   -28782650.067 7 -22324360.158 3
  21858735.448     2660473.946 4   2103142.941 1
  20288270.011   -19390630.765 5 -12925723.877 1
  18313321.714   -15589924.803 7 -12077477.141 3
  18895299.698   -29593516.844 7 -21839791.496 2
  21400666.776    -6897757.730 5  -5266464.599 1
  20639353.620   -19039280.301 6 -14625771.713 1
 96  3  2 17 47 59.9910000  0  8 14 18 22 31 29 19 27 28
  21146926.206     3226229.819 5   2541550.502 1
  17678330.206   -28874191.377 7 -22395691.034 3
  21866613.917     2701855.107 5   2135387.945 1
  20261571.644   -19530936.634 5 -13035053.055 1
  18308113.128   -15617297.516 7 -12098806.524 3
  18874950.847   -29700447.964 7 -21923114.412 2
  21374648.550    -7034472.371 5  -5372995.395 1
  20622210.112   -19129385.007 6 -14695983.122 1
 96  3  2 17 48 29.9910000  0  8 14 18 22 31 29 19 27 28
  21155284.706     3270159.604 5   2575781.369 1
  17661000.159   -28965271.249 7 -22466662.369 3
  21874506.128     2743337.748 5   2167712.010 1
  20234932.941   -19670921.367 5 -13144132.032 1
  18302993.034   -15644203.705 7 -12119772.398 3
  18854638.347   -29807187.208 7 -22006287.828 2
  21348651.433    -7171085.378 5  -5479447.016 1
  20605156.886   -19218977.919 6 -14765795.760 1
 96  3  2 17 48 59.9910000  0  8 14 18 22 31 29 19 27 28
  21163640.917     3314063.498 5   2609992.070 1
  17643746.058   -29055949.693 7 -22537320.891 3
  21882405.776     2784851.284 5   2200060.177 1
  20208344.651   -19810650.727 5 -13253012.009 1
  18297949.011   -15670709.230 7 -12140426.059 3
  18834344.839   -29913815.254 7 -22089374.592 2
  21322663.112    -7307669.142 5  -5585875.856 1
  20588193.823   -19308128.568 6 -14835263.763 1
 96  3  2 17 49 29.9910000  0  8 14 18 22 31 29 19 27 28
  21171996.675     3357975.225 5   2644208.876 1
  17626566.175   -29146214.828 7 -22607657.356 3
  21890311.651     2826397.269 5   2232433.614 1
  20181803.659   -19950117.155 6 -13361687.098 1
  18292982.417   -15696807.755 7 -12160762.583 3
  18814078.823   -30020329.048 7 -22172372.332 2
  21296678.683    -7444210.246 5  -5692271.448 1
  20571320.808   -19396818.972 6 -14904373.138 1
 96  3  2 17 49 59.9910000  0  8 14 18 22 31 29 19 27 28
  21180361.644     3401935.298 5   2678463.339 1
  17609476.839   -29236030.523 7 -22677643.614 3
  21898228.425     2868007.028 5   2264856.756 1
  20155318.573   -20089289.628 6 -13470133.130 1
  18288096.284   -15722484.150 7 -12180770.179 3
  18793838.894   -30126684.578 7 -22255246.739 2
  21270706.823    -7580684.300 5  -5798614.794 1
  20554536.308   -19485008.523 6 -14973092.242 1
 96  3  2 17 50 29.9910000  0  8 14 18 22 31 29 19 27 28
  21188711.472     3445811.935 5   2712652.774 1
  17592439.917   -29325564.201 7 -22747410.130 3
  21906134.745     2909541.115 5   2297220.911 1
  20128866.409   -20228308.847 6 -13578459.773 1
  18283258.886   -15747904.375 7 -12200578.180 3
  18773601.503   -30233026.757 7 -22338110.766 2
  21244718.073    -7717243.607 5  -5905024.591 1
  20537817.823   -19572844.486 6 -15041535.843 1
 96  3  2 17 50 59.9910000  0  8 14 18 22 31 29 19 27 28
  21197066.722     3489729.534 4   2746874.154 1
  17575473.722   -29414714.941 7 -22816878.224 3
  21914043.948     2951108.959 5   2329611.391 1
  20102465.331   -20367044.336 6 -13686565.288 1
  18278491.292   -15772963.014 7 -12220104.399 3
  18753391.573   -30339242.068 7 -22420875.908 2
  21218741.394    -7853759.642 5  -6011400.608 1
  20521194.019   -19660205.767 6 -15109609.520 1
 96  3  2 17 51 29.9910000  0  8 14 18 22 31 29 19 27 28
  21205463.589     3533841.386 4   2781246.858 1
  17558610.855   -29503320.879 7 -22885921.813 3
  21921991.698     2992868.302 5   2362151.084 1
  20076150.167   -20505332.720 6 -13794322.434 1
  18273822.433   -15797492.381 7 -12239218.218 3
  18733241.644   -30445142.113 7 -22503395.402 2
  21192803.901    -7990072.551 5  -6117618.380 1
  20504696.925   -19746927.316 6 -15177184.735 1
 96  3  2 17 51 59.9910000  0  8 14 18 22 31 29 19 27 28
  21213833.573     3577830.873 4   2815524.232 1
  17541797.409   -29591688.344 7 -22954779.588 3
  21929915.198     3034519.114 5   2394606.217 1
  20049860.659   -20643488.840 6 -13901976.516 1
  18269197.230   -15821795.829 7 -12258156.005 3
  18713087.448   -30551028.086 7 -22585903.937 2
  21166842.730    -8126499.672 5  -6223925.135 1
  20488254.503   -19833322.433 6 -15244505.591 1
 96  3  2 17 52 29.9910000  0  8 14 18 22 31 29 19 27 28
  21222202.269     3621811.460 4   2849794.688 1
  17525046.933   -29679702.988 7 -23023362.425 3
  21937842.050     3076168.408 4   2427060.179 1
  20023614.269   -20781402.184 6 -14009441.402 1
  18264642.495   -15845739.212 7 -12276813.212 3
  18692967.745   -30656781.998 7 -22668309.556 2
  21140880.526    -8262929.341 5  -6330233.853 1
  20471892.112   -19919280.711 6 -15311486.049 1
 96  3  2 17 52 59.9910000  0  8 14 18 22 31 29 19 27 28
  21230582.964     3665852.716 4   2884112.400 1
  17508385.315   -29767271.801 7 -23091597.858 3
  21945779.542     3117879.224 5   2459562.058 1
  19997426.026   -20919022.099 6 -14116677.657 1
  18260166.722   -15869254.822 7 -12295137.089 3
  18672875.878   -30762337.185 7 -22750560.325 2
  21114931.581    -8399299.233 5  -6436496.042 1
  20455636.073   -20004734.543 6 -15378073.439 1
 96  3  2 17 53 29.9910000  0  8 14 18 22 31 29 19 27 28
  21239002.839     3710097.004 5   2918588.344 1
  17491837.589   -29854228.453 7 -23159356.282 3
  21953759.011     3159815.267 4   2492239.461 1
  19971322.276   -21056206.868 6 -14223574.820 1
  18255801.026   -15892198.233 7 -12313015.084 3
  18652855.855   -30867549.238 7 -22832543.714 2
  21089018.519    -8535468.697 5  -6542602.008 1
  20439497.675   -20089536.448 6 -15444152.826 1
 96  3  2 17 53 59.9900000  0  8 14 18 22 31 29 19 27 28
  21247419.850     3754318.851 5   2953046.762 1
  17475367.506   -29940786.132 7 -23226803.839 3
  21961736.857     3201746.105 4   2524912.789 1
  19945260.443   -21193163.610 6 -14330294.327 1
  18251500.772   -15914799.313 7 -12330626.341 3
  18632852.725   -30972660.886 7 -22914448.880 2
  21063101.615    -8671658.296 5  -6648723.691 1
  20423441.600   -20173902.996 6 -15509892.995 1
 96  3  2 17 54 29.9900000  0  8 14 18 22 31 29 19 27 28
  21255856.529     3798655.608 5   2987594.738 1
  17458994.045   -30026817.466 7 -23293841.236 3
  21969741.795     3243795.316 5   2557678.375 1
  19919266.084   -21329755.327 6 -14436729.375 1
  18247289.506   -15936925.374 7 -12347867.445 3
  18612894.717   -31077551.004 7 -22996181.411 2
  21037203.272    -8807748.104 5  -6754767.613 1
  20407499.084   -20257696.882 6 -15575186.927 1
 96  3  2 17 54 59.9900000  0  8 14 18 22 31 29 19 27 28
  21264282.342     3842929.341 5   3022093.591 1
  17442691.061   -30112488.919 7 -23360598.217 3
  21977731.897     3285792.150 5   2590403.135 1
  19893314.787   -21466141.638 6
  18243132.420   -15958764.273 7 -12364884.796 3
  18592944.623   -31182400.746 7 -23077882.500 2
  21011296.998    -8943903.046 5
  20391627.467   -20341086.821 6 -15640166.106 1
 96  3  2 17 55 29.9900000  0  8 14 18 22 31 29 19 27 28
  21272701.022     3887181.832 5   3056575.911 1
  17426465.709   -30197754.324 7 -23427038.793 3
  21985725.248     3327787.243 5   2623126.554 1
  19867418.139   -21602225.738 6 -14649043.907 1
  18239049.459   -15980223.954 7 -12381606.640 3
  18573012.748   -31287136.640 7 -23159494.854 2
  20985383.772    -9080052.873 5  -6966952.988 1
  20375851.756   -20424002.737 6 -15704775.896 1
 96  3  2 17 55 59.9900000  0  8 14 18 22 31 29 19 27 28
  21281116.397     3931420.051 4   3091047.085 1
  17410318.811   -30282612.844 7 -23493162.310 3
  21993719.061     3369783.883 5   2655851.167 1
  19841582.068   -21737987.548 6 -14754832.287 1
  18235043.248   -16001284.173 7 -12398017.217 3
  18553105.475   -31391740.221 7 -23241004.118 2
  20959480.967    -9216178.633 5  -7073024.922 1
  20360165.178   -20506428.486 6 -15769003.750 1
 96  3  2 17 56 29.9900000  0  8 14 18 22 31 29 19 27 28
  21289540.592     3975665.458 4   3125523.856 1
  17394253.357   -30367040.567 7 -23558950.152 3
  22001713.045     3411814.075 4   2688601.937 1
  19815810.537   -21873405.989 6 -14860353.121 1
  18231115.115   -16021920.950 7 -12414097.838 3
  18533230.397   -31496187.848 7 -23322391.863 2
  20933591.545    -9352239.157 5  -7179046.058 1
  20344576.936   -20588341.985 6 -15832832.449 1
 96  3  2 17 56 59.9900000  0  8 14 18 22 31 29 19 27 28
  21297958.834     4019906.791 4   3159997.453 1
  17378268.428   -30451028.894 7 -23624395.604 3
  22009718.740     3453881.940 4   2721382.057 1
  19790108.006   -22008474.236 6 -14965601.068 1
  18227269.139   -16042134.197 7 -12429848.441 3
  18513386.701   -31600479.507 7 -23403658.067 2
  20907716.186    -9488217.720 5  -7285003.292 1
  20329088.311   -20669747.612 6 -15896265.413 1
 96  3  2 17 57 29.9900000  0  8 14 18 22 31 29 19 27 28
  21306374.162     4064125.268 4   3194453.241 1
  17362365.779   -30534597.888 7 -23689514.308 2
  22017725.170     3495971.541 4   2754179.109 1
  19764470.053   -22143212.772 6 -15070592.115 1
  18223502.100   -16061932.423 7 -12445275.659 3
  18493567.779   -31704630.095 7 -23484814.359 2
  20881851.139    -9624129.265 5  -7390908.323 1
  20313690.115   -20750655.569 6 -15959310.580 1
 96  3  2 17 57 59.9900000  0  8 14 18 22 31 29 19 27 28
  21314788.928     4108359.419 4   3228921.282 1
  17346550.670   -30617714.437 7 -23754280.451 2
  22025748.615     3538113.788 4   2787017.183 1
  19738894.873   -22277618.711 6 -15175323.967 1
  18219813.787   -16081310.357 7 -12460375.368 3
  18473776.233   -31808627.927 7 -23565851.609 2
  20856008.225    -9759939.741 5  -7496734.600 1
  20298394.342   -20831044.660 6 -16021951.421 1
 96  3  2 17 58 29.9900000  0  8 14 18 22 31 29 19 27 28
  21323260.475     4152883.334 4   3263615.075 1
  17330873.897   -30700105.019 7 -23818480.892 2
  22033825.404     3580574.392 3   2820103.362 1
  19713434.373   -22411419.819 6 -15279584.539 1
  18216259.451   -16099987.817 7 -12474929.238 3
  18454066.233   -31912192.758 7 -23646551.446 2
  20830236.108    -9895376.160 5  -7602269.406 1
  20283244.654   -20910641.817 6 -16083975.163 1
 96  3  2 17 58 59.9900000  0  8 14 18 22 31 29 19 27 28
  21331720.983     4197330.317 4   3298248.943 1
  17315263.803   -30782134.918 7 -23882400.302 3
  22041899.631     3622985.737 3   2853151.119 1
  19688016.045   -22544978.044 6 -15383655.848 1
  18212770.326   -16118328.351 7 -12489220.576 3
  18434374.842   -32015672.005 7 -23727184.612 2
  20804461.295   -10030821.241 5  -7707810.958 1
  20268181.568   -20989803.162 6 -16145659.324 1
 96  3  2 17 59 29.9900000  0  8 14 18 22 31 29 19 27 28
  21340168.748     4241723.622 3   3332840.943 1
  17299725.029   -30863784.647 7 -23946023.472 2
  22049961.764     3665363.069 3   2886172.387 1
  19662653.459   -22678267.747 6 -15487517.925 1
  18209347.358   -16136313.311 7 -12503234.847 3
  18414704.443   -32119047.623 7 -23807737.027 2
  20778688.811   -10166262.081 5  -7813349.215 1
  20253208.022   -21068502.017 6 -16206983.095 1
 96  3  2 17 59 59.9900000  0  8 14 18 22 31 29 19 27 28
  21348616.154     4286113.535 4   3367430.307 1
  17284270.037   -30944995.199 7 -24009304.426 2
  22058030.248     3707752.273 3   2919202.889 1
  19637353.295   -22811218.192 6 -15591115.638 1
  18206001.514   -16153899.346 7 -12516938.268 3
  18395064.201   -32222262.528 7 -23888164.206 2
  20752923.209   -10301658.979 5  -7918853.239 1
  20238330.811   -21146686.766 6 -16267906.262 1
 96  3  2 18  0 29.9900000  0  8 14 18 22 31 29 19 27 28
  21357061.061     4330487.932 4   3402007.629 1
  17268903.264   -31025751.341 7 -24072231.289 2
  22066096.475     3750150.457 4   2952240.415 1
  19612123.131   -22943805.864 6 -15694430.673 1
  18202730.482   -16171086.960 7 -12530331.228 3
  18375452.506   -32325310.305 7 -23968461.158 2
  20727158.842   -10437030.599 5  -8024337.559 1
  20223553.623   -21224349.634 6 -16328422.772 1
 96  3  2 18  0 59.9900000  0  8 14 18 22 31 29 19 27 28
  21365500.436     4374824.282 4   3436555.248 1
  17253619.404   -31106056.429 7 -24134806.692 2
  22074162.373     3792533.253 3   2985265.958 1
  19586961.154   -23076021.366 6 -15797455.709 1
  18199532.787   -16187894.498 7 -12543428.043 3
  18355874.600   -32428215.508 7 -24048647.009 2
  20701402.029   -10572396.108 5  -8129817.128 1
  20208868.490   -21301504.772 6 -16388543.647 1
 96  3  2 18  1 29.9900000  0  8 14 18 22 31 29 19 27 28
  21373928.037     4419110.016 4   3471063.449 1
  17238423.850   -31185919.213 7 -24197037.435 2
  22082222.014     3834882.486 4   3018265.307 1
  19561874.748   -23207859.732 6 -15900186.871 1
  18196405.732   -16204325.171 7 -12556231.176 3
  18336316.772   -32530987.669 7 -24128729.196 2
  20675643.873   -10707748.991 5  -8235286.829 1
  20194282.732   -21378165.951 6 -16448279.613 1
 96  3  2 18  1 59.9900000  0  8 14 18 22 31 29 19 27 28
  21382340.615     4463344.365 4   3505531.619 1
  17223313.592   -31265326.635 7 -24258913.357 2
  22090273.740     3877210.229 4   3051247.888 1
  19536860.576   -23339314.789 6 -16002619.347 1
  18193353.350   -16220366.154 7 -12568730.663 3
  18316785.740   -32633613.965 7 -24208697.731 2
  20649892.998   -10843082.355 5  -8340741.337 1
  20179787.139   -21454326.775 6 -16507625.700 1
 96  3  2 18  2 29.9900000  0  8 14 18 22 31 29 19 27 28
  21390744.889     4507512.533 4   3539948.199 1
  17208291.365   -31344273.293 7 -24320430.236 2
  22098324.279     3919510.118 3   3084208.844 1
  19511912.943   -23470404.252 6 -16104766.941 1
  18190374.233   -16236016.763 7 -12580925.955 3
  18297283.154   -32736107.933 7 -24288563.137 2
  20624145.936   -10978389.728 5  -8446175.587 1
  20165384.272   -21529993.326 6 -16566586.631 1
 96  3  2 18  2 59.9900000  0  8 14 18 22 31 29 19 27 28
  21399141.326     4551629.374 4   3574324.787 1
  17193355.779   -31422766.727 7 -24381593.957 2
  22106371.295     3961794.308 4   3117157.507 1
  19487036.842   -23601138.391 6 -16206637.657 1
  18187470.365   -16251280.341 7 -12592819.667 3
  18277804.889   -32838456.438 7 -24368315.202 2
  20598403.201   -11113646.005 5  -8551570.030 1
  20151081.529   -21605162.228 6 -16625159.787 1
 96  3  2 18  3 29.9900000  0  7 14 18 02 31 29 19 28
  21407536.045     4595696.141 4   3608662.347 1
  17178506.170   -31500802.232 7 -24442400.847 2
  22038618.108          -0.25514
  19462220.897   -23731545.948 6 -16308253.894 1
  18184639.123   -16266160.264 7 -12604414.434 3
  18258355.467   -32940656.072 7 -24447951.264 2
  20136876.154   -21679829.252 6 -16683341.871 1
 96  3  2 18  3 59.9900000  0  8 14 18 02 31 29 19 27 28
  21415906.662     4639722.887 3   3642968.731 1
  17163744.982   -31578366.995 7 -24502840.926 2
  22008248.959     -159605.767 4
  19437464.045   -23861636.640 6 -16409623.227 1
  18181881.928   -16280644.444 7 -12615700.836 3
  18238939.342   -33042700.979 7 -24527466.756 2
  20546960.514     -135139.412 5
  20122767.772   -21753978.600 6 -16741120.579 1
 96  3  2 18  4 29.9900000  0  8 14 18 02 31 29 19 27 28
  21424279.881     4683703.649 3   3677239.288 1
  17149071.764   -31655479.759 7 -24562928.799 2
  21977895.654     -319106.504 3        -0.09811
  19412767.068   -23991426.063 6 -16510757.796 1
  18179198.647   -16294745.579 7 -12626688.748 3
  18219550.428   -33144585.475 7 -24606857.263 2
  20521257.662     -270226.853 5        -0.35011
  20108750.975   -21827619.962 6 -16798503.447 1
 96  3  2 18  4 59.9900000  0  8 14 18 02 31 29 19 27 28
  21432601.389     4727428.356 3   3711310.282 1
  17134439.662   -31732371.540 7 -24622844.492 2
  21947523.506     -478709.342 3   -124365.844 1
  19388090.084   -24121104.111 6 -16611805.593 1
  18176547.686   -16308678.376 7 -12637545.505 3
  18200154.514   -33246513.014 7 -24686281.317 2
  20495518.928     -405476.946 5   -105390.011 1
  20094794.412   -21900963.061 6 -16855653.922 1
 96  3  2 18  5 29.9900000  0  8 14 18 02 31 29 19 27 28
  21440898.061     4771054.079 3   3745304.167 1
  17119879.451   -31808866.094 7 -24682450.643 2
  21917170.084     -638229.292 3   -248667.018 1
  19363469.490   -24250477.262 6 -16712615.794 1
  18173964.318   -16322253.611 7 -12648123.625 3
  18180782.107   -33348329.902 7 -24765619.146 2
  20469779.943     -540735.802 5   -210786.458 1
  20080927.826   -21973834.814 6 -16912437.094 1
 96  3  2 18  5 59.9890000  0  8 14 18 02 31 29 19 27 28
  21449192.251     4814635.676 3   3779263.662 1
  17105413.814   -31884897.194 7 -24741695.669 2
  21886842.345     -797600.895 2   -372852.581 1
  19338929.306   -24379445.061 6 -16813110.154 1
  18171458.735   -16335420.503 7 -12658383.564 3
  18161437.321   -33449977.770 7 -24844825.272 2
  20444050.931     -675941.302 5   -316141.338 1
  20067161.860   -22046170.605 6 -16968802.643 1
 96  3  2 18  6 29.9890000  0  8 14 18 02 31 29 19 27 28
  21457484.946     4858206.080 3   3813214.444 1
  17091039.181   -31960437.301 7 -24800558.089 2
  21856540.900     -956812.434 2   -496913.395 1
  19314477.735   -24507954.712 6 -16913247.511 1
  18169033.181   -16348171.123 7 -12668319.133 3
  18142127.751   -33551440.969 7 -24923887.486 2
  20418339.454     -811064.974 5   -421432.482 1
  20053504.517   -22117946.568 6 -17024731.966 1
 96  3  2 18  6 59.9890000  0  7 14 18 31 29 19 27 28
  21465765.376     4901722.210 3   3847122.902 1
  17076754.634   -32035507.840 7 -24859054.625 2
  19290104.532   -24636023.742 6 -17013041.521 1
  18166679.228   -16360534.183 7 -12677952.710 3
  18122843.587   -33652776.920 7 -25002850.557 2
  20392635.845     -946135.030 5   -526681.835 1
  20039945.657   -22189191.265 6 -17080247.319 1
 96  3  2 18  7 29.9890000  0  7 14 18 31 29 19 27 28
  21474030.220     4945155.954 3   3880967.207 1
  17062555.228   -32110113.572 7 -24917188.972 2
  19265808.814   -24763692.096 6 -17112523.332 1
  18164398.853   -16372522.189 7 -12687294.038 3
  18103582.993   -33754009.497 7 -25081733.078 2
  20366939.970    -1081178.508 5   -631910.505 1
  20026485.970   -22259925.629 6 -17135365.013 1
 96  3  2 18  7 59.9890000  0  8 14 18 02 31 29 19 27 28
  21482294.712     4988581.860 3   3914805.394 1
  17048459.946   -32184196.777 7 -24974916.143 2
  21765798.134          -0.98312
  19241600.157   -24890912.271 6 -17211655.895 1
  18162200.157   -16384075.985 7 -12696297.015 3
  18084349.915   -33855067.173 7 -25160479.298 2
  20341258.314    -1216121.742 5   -737061.038 1
  20013135.673   -22330087.969 6 -17190036.969 1
 96  3  2 18  8 29.9890000  0  8 14 18 02 31 29 19 27 28
  21490544.306     5031945.078 3   3948594.723 1
  17034444.634   -32257830.635 7 -25032293.172 2
  21735594.767     -158715.544 2
  19217463.267   -25017757.076 6 -17310495.978 1
  18160077.540   -16395231.266 7 -12704989.465 3
  18065144.774   -33956003.723 7 -25239131.142 2
  20315589.962    -1351023.330 5   -842179.130 1
  19999883.220   -22399742.053 6 -17244312.892 1
 96  3  2 18  8 59.9890000  0  8 14 18 02 31 29 19 27 28
  21498782.571     5075221.443 3   3982316.365 1
  17020516.532   -32331027.449 7 -25089329.664 2
  21705410.118     -317346.810 3        -0.33611
  19193392.126   -25144253.510 6 -17409064.601 1
  18158029.274   -16405989.507 7 -12713372.538 3
  18045957.923   -34056828.467 7 -25317695.874 2
  20289919.259    -1485910.957 5   -947286.360 1
  19986713.954   -22468908.717 6 -17298209.008 1
 96  3  2 18  9 29.9890000  0  8 14 18 02 31 29 19 27 28
  21507006.298     5118453.129 3   4016003.183 1
  17006676.579   -32403759.616 7 -25146004.090 2
  21675246.259     -475865.128 2   -123521.025 1
  19169392.892   -25270359.581 6 -17507329.039 1
  18156062.446   -16416331.223 7 -12721431.052 3
  18026800.048   -34157496.300 7 -25396138.329 2
  20264257.649    -1620761.531 5  -1052364.704 1
  19973655.454   -22537556.931 6 -17351701.129 1
 96  3  2 18  9 59.9890000  0  8 14 18 02 31 29 19 27 28
  21515229.837     5161653.224 3   4049665.405 1
  16992927.931   -32476017.915 7 -25202309.253 2
  21645101.837     -634256.449 3   -246942.751 1
  19145475.954   -25396050.331 6 -17605269.841 1
  18154172.876   -16426258.951 7 -12729166.965 3
  18007676.884   -34257990.426 7 -25474445.431 2
  20238604.142    -1755564.596 5  -1157406.041 1
  19960696.876   -22605672.576 6 -17404778.261 1
 96  3  2 18 10 29.9890000  0  8 14 18 02 31 29 19 27 28
  21523437.220     5204793.301 3   4083280.847 1
  16979267.751   -32547796.386 7 -25258240.540 2
  21614987.392     -792519.037 3   -370264.148 1
  19121638.024   -25521328.012 6 -17702888.777 1
  18152359.540   -16435793.665 7 -12736596.642 2
  17988586.009   -34358314.716 7 -25552620.184 2
  20212957.564    -1890345.732 5  -1262430.302 1
  19947826.634   -22673264.206 6 -17457447.071 1
 96  3  2 18 10 59.9890000  0  8 14 18 02 31 29 19 27 28
  21531640.478     5247868.857 3   4116846.029 1
  16965702.329   -32619087.131 7 -25313791.767 2
  21584902.056     -950635.523 3   -493471.692 1
  19097877.150   -25646190.959 6 -17800184.546 1
  18150616.962   -16444952.093 7 -12743733.099 2
  17969525.649   -34458474.798 7 -25630666.984 2
  20187312.485    -2025113.575 5  -1367444.221 1
  19935068.689   -22740322.465 6 -17509700.273 1
 96  3  2 18 11 29.9890000  0  8 14 18 02 31 29 19 27 28
  21539813.673     5290855.021 3   4150341.535 1
  16952221.696   -32689923.093 7 -25368988.627 2
  21554837.024    -1108619.748 4   -616576.175 1
  19074189.243   -25770668.739 6 -17897180.171 1
  18148941.673   -16453750.489 7 -12750589.013 2
  17950493.267   -34558498.116 7 -25708607.218 2
  20161667.829    -2159880.537 5  -1472457.435 1
  19922410.189   -22806859.625 6 -17561547.415 1
 96  3  2 18 11 59.9890000  0  8 14 18 02 31 29 19 27 28
  21547973.423     5333732.314 3   4183752.237 1
  16938826.220   -32760307.836 7 -25423833.891 2
  21524799.134    -1266473.975 4   -739579.356 1
  19050570.649   -25894780.063 6 -17993890.258 1
  18147336.853   -16462187.559 7 -12757163.383 2
  17931483.860   -34658400.980 7 -25786453.596 2
  20136024.360    -2294631.913 5  -1577458.502 1
  19909846.603   -22872881.492 6 -17612993.038 1
 96  3  2 18 12 29.9890000  0  8 14 18 02 31 29 19 27 28
  21556120.064     5376525.142 3   4217097.101 1
  16925524.353   -32830229.138 7 -25478318.022 2
  21494790.329    -1424176.800 4   -862464.560 1
  19027029.704   -26018488.961 6 -18090286.749 1
  18145804.087   -16470237.176 7 -12763435.833 2
  17912490.353   -34758173.928 7 -25864198.732 2
  20110389.298    -2429338.425 5  -1682424.603 1
  19897381.962   -22938365.962 6 -17664019.900 1
 96  3  2 18 12 59.9890000  0  8 14 18 02 31 29 19 27 28
  21564250.446     5419270.122 3   4250404.665 1
  16912309.657   -32899655.474 7 -25532416.470 2
  21464809.673    -1581696.626 4   -985207.179 1
  19003573.384   -26141748.624 6 -18186333.199 1
  18144353.501   -16477862.776 7 -12769377.878 2
  17893542.407   -34857782.531 7 -25941815.809 2
  20084776.751    -2563942.555 5  -1787310.915 1
  19885028.837   -23003272.657 6 -17714596.547 1
 96  3  2 18 13 29.9890000  0  8 14 18 02 31 29 19 27 28
  21572368.556     5461887.407 3   4283612.747 1
  16899180.454   -32968659.359 7 -25586185.738 2
  21434855.251    -1739122.332 4  -1107876.437 1
  18980189.595   -26264629.285 6 -18282084.320 1
  18142968.642   -16485142.159 7 -12775050.143 2
  17874603.681   -34957295.909 7 -26019358.689 2
  20059168.970    -2698508.470 5  -1892167.463 1
  19872776.189   -23067683.214 6 -17764786.608 1
 96  3  2 18 13 59.9890000  0  8 14 18 02 31 29 19 27 28
  21580459.798     5504409.590 3   4316746.710 1
  16886138.696   -33037192.176 7 -25639587.944 2
  21404920.095    -1896429.509 4  -1230453.321 1
  18956887.899   -26387077.644 6 -18377498.584 1
  18141653.673   -16492055.353 7 -12780437.074 2
  17855693.790   -35056672.463 7 -26096794.949 2
  20033575.853    -2833005.400 5  -1996970.240 1
  19860617.540   -23131568.484 6 -17814567.340 1
 96  3  2 18 14 29.9890000  0  8 14 18 02 31 29 19 27 28
  21588527.712     5546825.744 3   4349798.052 1
  16873185.470   -33105253.623 7 -25692622.841 2
  21375005.298    -2053618.554 4  -1352938.210 1
  18933671.564   -26509089.850 6 -18472572.979 1
  18140406.462   -16498608.349 7 -12785543.336 2
  17836813.032   -35155901.246 7 -26174116.066 2
  20007990.228    -2967450.198 5  -2101732.395 1
  19848559.665   -23194928.679 6 -17863938.926 1
 96  3  2 18 14 59.9890000  0  8 14 18 02 31 29 19 27 28
  21596581.657     5589167.848 3   4382791.734 1
  16860335.462   -33172794.823 7 -25745252.353 2
  21345126.103    -2210656.347 4  -1475305.212 1
  18910540.751   -26630646.537 6 -18567292.426 1
  18139235.321   -16504762.390 7 -12790338.720 2
  17817963.321   -35254939.089 7 -26251288.391 2
  19982423.134    -3101805.683 5  -2206424.975 1
  19836611.985   -23257726.601 6 -17912872.372 1
 96  3  2 18 15 29.9890000  0  8 14 18 02 31 29 19 27 28
  21604615.712     5631375.904 3   4415680.910 1
  16847567.642   -33239883.683 7 -25797529.392 2
  21315259.001    -2367611.360 4  -1597607.717 1
  18887480.954   -26751817.489 6 -18661711.311 1
  18138130.134   -16510564.820 7 -12794860.126 2
  17799141.946   -35353856.856 7 -26328367.160 2
  19956857.704    -3236152.317 5  -2311110.635 1
  19824758.556   -23320027.762 6 -17961418.735 1
 96  3  2 18 15 59.9890000  0  8 14 18 02 31 29 19 27 28
  21612631.009     5673491.268 3   4448497.887 1
  16834896.314   -33306467.767 7 -25849413.099 2
  21285422.837    -2524410.814 4  -1719789.026 1
  18864505.985   -26872548.744 6 -18755787.573 1
  18137103.829   -16515955.956 7 -12799061.027 2
  17780352.329   -35452599.099 7 -26405309.149 2
  19931301.579    -3370450.615 5  -2415758.641 1
  19813006.267   -23381777.406 6 -18009535.355 1
 96  3  2 18 16 29.9890000  0  8 14 18 02 31 29 19 27 28
  21620624.360     5715505.718 2   4481236.203 1
  16822320.423   -33372559.654 7 -25900913.285 2
  21255613.532    -2681048.535 4  -1841844.280 1
  18841617.454   -26992848.182 6 -18849527.363 1
  18136159.228   -16520926.803 7 -12802934.448 2
  17761592.970   -35551174.229 7 -26482120.926 2
  19905753.642    -3504713.111 5  -2520378.735 1
  19801357.329   -23442979.582 6 -18057225.374 1
 96  3  2 18 16 59.9890000  0  8 14 18 02 31 29 19 27 28
  21628592.650     5757347.929 2   4513840.349 1
  16809825.720   -33438226.323 7 -25952082.124 2
  21225821.110    -2837594.589 4  -1963828.167 1
  18818791.470   -27112787.766 6 -18942986.748 1
  18135282.493   -16525536.497 7 -12806526.444 2
  17742849.540   -35649659.749 7 -26558862.876 2
  19880198.298    -3639009.851 5  -2625025.522 1
  19789799.837   -23503705.793 6 -18104544.502 1
 96  3  2 18 17 29.9890000  0  8 14 18 02 31 29 19 27 28
  21636515.251     5798996.546 3   4546293.625 1
  16797408.892   -33503467.214 7 -26002919.186 2
  21196052.860    -2994032.887 4  -2085728.046 1
  18796036.868   -27232361.905 6 -19036161.362 1
  18134469.642   -16529798.882 7 -12809847.808 2
  17724128.275   -35748057.486 7 -26635536.423 2
  19854636.798    -3773342.355 5  -2729700.174 1
  19778336.743   -23563959.953 6 -18151495.795 1
 96  3  2 18 17 59.9880000  0  8 14 18 02 31 29 19 27 28
  21644435.590     5840607.068 3   4578717.202 1
  16785107.348   -33568115.566 7 -26053294.534 2
  21166342.559    -3150171.968 4  -2207394.818 1
  18773385.996   -27351390.651 6 -19128911.007 1
  18133754.137   -16533564.691 7 -12812782.236 2
  17705450.520   -35846196.870 7 -26712008.659 2
  19829099.106    -3907523.012 5  -2834256.497 1
  19766995.199   -23623571.547 6 -18197946.397 1
 96  3  2 18 18 29.9880000  0  8 14 18 02 31 29 19 27 28
  21652320.121     5882080.664 3   4611034.109 1
  16772896.996   -33632288.042 7 -26103299.071 2
  21136657.309    -3306152.334 4  -2328937.863 1
  18750816.934   -27469988.521 6 -19221324.897 1
  18133108.051   -16536957.094 7 -12815425.688 2
  17686801.879   -35944205.142 7 -26788378.730 2
  19803576.184    -4041663.418 5  -2938781.475 1
  19755749.207   -23682660.475 6 -18243989.724 1
 96  3  2 18 18 59.9880000  0  8 14 18 02 31 29 19 27 28
  21660199.738     5923457.256 3   4643275.428 1
  16760783.856   -33695937.037 7 -26152895.698 2
  21107016.356    -3461922.822 4  -2450317.358 1
  18728338.942   -27588108.161 6 -19313366.143 1
  18132539.160   -16539957.789 7 -12817763.919 2
  17668183.488   -36042042.472 7 -26864615.590 2
  19778066.809    -4175711.503 5  -3043234.493 1
  19744610.598   -23741186.078 6 -18289594.084 1
 96  3  2 18 19 29.9880000  0  8 14 18 02 31 29 19 27 28
  21668064.535     5964813.335 2   4675500.784 1
  16748783.098   -33759002.799 7 -26202037.858 2
  21077426.574    -3617413.264 4  -2571478.702 1
  18705969.598   -27705661.546 6 -19404966.166 1
  18132051.863   -16542510.951 7 -12819753.416 2
  17649612.676   -36139632.691 7 -26940659.903 2
  19752589.270    -4309601.345 5  -3147564.205 1
  19733596.535   -23799077.067 6 -18334703.938 1
 96  3  2 18 19 59.9880000  0  8 14 18 02 31 29 19 27 28
  21675917.715     6006036.933 3   4707622.881 1
  16736864.316   -33821634.332 7 -26250841.658 2
  21047863.145    -3772786.667 4  -2692548.754 1
  18683686.434   -27822771.824 6 -19496220.907 1
  18131627.098   -16544740.809 7 -12821490.993 2
  17631065.145   -36237108.955 7 -27016615.420 2
  19727113.434    -4443473.767 5  -3251880.339 1
  19722672.457   -23856472.711 6 -18379427.815 1
 96  3  2 18 20 29.9880000  0  8 14 18 02 31 29 19 27 28
  21683794.449     6047441.555 2   4739886.001 1
  16725089.020   -33883512.452 7 -26299058.370 2
  21018370.957    -3927762.032 4  -2813308.716 1
  18661543.090   -27939140.057 6 -19586897.417 1
  18131324.738   -16546337.861 7 -12822735.465 2
  17612595.910   -36334158.041 7 -27092238.064 2
  19701697.637    -4577033.188 5  -3355952.549 1
  19711902.152   -23913069.615 6 -18423529.277 1
 96  3  2 18 20 59.9880000  0  8 14 18 02 31 29 19 27 28
  21691655.309     6088753.600 2   4772077.014 1
  16713408.410   -33944894.677 7 -26346888.689 2
  20988906.895    -4082593.571 4  -2933956.586 1
  18639491.223   -28055022.029 6 -19677195.043 1
  18131090.496   -16547552.230 7 -12823681.763 2
  17594161.699   -36431030.034 7 -27167722.732 2
  19676290.699    -4710542.960 5  -3459986.104 1
  19701236.527   -23969122.004 6 -18467206.454 1
 96  3  2 18 21 29.9880000  0  8 14 18 02 31 29 19 27 28
  21699484.645     6129900.635 3
  16701809.027   -34005849.726 7 -26394386.136 2
  20959454.449    -4237361.768 4  -3054555.089 1
  18617516.567   -28170487.177 6 -19767167.862 1
  18130923.934   -16548441.920 7 -12824375.064 2
  17575751.301   -36527786.556 7 -27243117.417 2
  19650884.441    -4844065.066 5  -3564029.285 1
  19690661.731   -24024697.117 6 -18510511.733 1
 96  3  2 18 21 59.9880000  0  7 18 02 31 29 19 27 28
  16690299.270   -34066342.713 7 -26441523.541 2
  20930021.512    -4392037.929 4  -3175081.882 1
  18595624.988   -28285523.719 6 -19856806.713 1
  18130820.215   -16548990.481 7 -12824802.545 2
  17557358.645   -36624423.414 7 -27318418.862 2
  19625478.910    -4977575.151 5  -3668063.065 1
  19680178.895   -24079775.713 6 -18553430.117 1
 96  3  2 18 22 29.9880000  0  8 16 18 02 31 29 19 27 28
  21679682.387          -0.50412
  16678882.840   -34126333.174 7 -26488269.364 2
  20900614.645    -4546561.870 4  -3295490.051 1
  18573824.270   -28400109.072 6 -19946093.984 1
  18130782.660   -16549178.745 7
  17538995.965   -36720918.252 7 -27393609.638 2
  19600076.590    -5111050.608 5  -3772069.878 1
  19669800.637   -24134323.049 6 -18595934.536 1
 96  3  2 18 22 59.9880000  0  8 16 18 02 31 29 19 27 28
  21653274.082     -138792.724 2
  16667558.191   -34185844.257 7 -26534641.653 2
  20871240.629    -4700923.821 4  -3415772.007 1
  18552100.988   -28514248.224 6 -20035033.561 1
  18130812.270   -16549022.503 7
  17520659.832   -36817289.429 7 -27468704.055 2
  19574681.168    -5244502.916 5  -3876058.669 1
  19659517.012   -24188349.290 6 -18638032.899 1
 96  3  2 18 23 29.9880000  0  8 16 18 02 31 29 19 27 28
  21626929.504     -277221.621 2
  16656323.676   -34244876.802 7 -26580641.049 2
  20841897.715    -4855123.501 4  -3535927.504 1
  18530467.817   -28627945.705 6 -20123628.986 1
  18130907.051   -16548525.037 7 -12824439.952 2
  17502338.559   -36913550.169 7 -27543712.418 3
  19549294.621    -5377924.466 5  -3980023.464 1
  19649340.106   -24241854.214 6 -18679725.042 1
 96  3  2 18 23 59.9880000  0  8 16 18 02 31 29 19 27 28
  21600658.559     -415288.516 2        -0.16511
  16645181.113   -34303436.340 7 -26626271.871 2
  20812586.973    -5009159.885 4  -3655955.749 1
  18508916.645   -28741195.487 6 -20211875.553 1
  18131070.082   -16547677.700 7 -12823779.721 2
  17484042.012   -37009706.204 7 -27618639.187 2
  19523907.160    -5511327.965 5  -4083974.215 1
  19639252.223   -24294836.270 6 -18721009.769 1
 96  3  2 18 24 29.9880000  0  8 16 18 02 31 29 19 27 28
  21574452.371     -552998.875 2   -107306.927 1
  16634124.434   -34361541.087 7 -26671548.307 2
  20783302.848    -5163051.482 4  -3775871.172 1
  18487451.856   -28853996.668 6 -20299772.553 1
  18131298.559   -16546468.742 6 -12822837.712 2
  17465766.910   -37105739.266 7 -27693470.141 3
  19498523.770    -5644716.015 5  -4187912.925 1
  19629271.512   -24347299.898 6 -18761890.528 1
 96  3  2 18 24 59.9880000  0  8 16 18 02 31 29 19 27 28
  21548308.723     -690355.306 2   -214337.927 1
  16623150.988   -34419197.797 7 -26716475.624 2
  20754037.473    -5316825.373 4  -3895694.895 1
  18466070.356   -28966341.362 6 -20387313.855 1
  18131597.918   -16544892.486 6 -12821609.501 2
  17447517.918   -37201653.533 7 -27768208.520 2
  19473147.262    -5778076.963 5  -4291830.498 1
  19619390.270   -24399249.570 6 -18802370.794 1
 96  3  2 18 25 29.9880000  0  8 16 18 02 31 29 19 27 28
  21522242.426     -827361.057 2   -321095.639 1
  16612268.207   -34476394.102 7 -26761044.177 2
  20724798.121    -5470490.340 4  -4015433.715 1
  18444784.090   -29078217.353 6 -20474489.936 1
  18131968.535   -16542946.629 7 -12820093.285 2
  17429285.856   -37297449.975 7 -27842855.085 3
  19447774.527    -5911408.886 5  -4395725.465 1
  19609599.387   -24450683.322 6 -18842449.056 1
 96  3  2 18 25 59.9880000  0  8 16 18 02 31 29 19 27 28
  21496241.277     -963990.426 2   -427560.109 1
  16601478.676   -34533095.169 7 -26805226.835 2
  20695584.723    -5624005.695 4  -4135055.967 1
  18423590.543   -29189581.970 6 -20561267.538 1
  18132412.449   -16540611.217 7 -12818273.523 2
  17411086.918   -37393085.340 7 -27917376.143 3
  19422413.957    -6044684.387 5  -4499576.470 1
  19599912.809   -24501574.283 6 -18882104.350 1
 96  3  2 18 26 29.9880000  0  8 16 18 02 31 29 19 27 28
  21470313.785    -1100248.819 2   -533735.431 1
  16590782.684   -34589296.535 7 -26849020.113 2
  20666399.692    -5777361.408 4  -4254553.844 1
  18402494.504   -29300442.756 6 -20647652.549 1
  18132927.145   -16537907.220 7 -12816166.553 2
  17392918.598   -37488570.222 7 -27991779.939 3
  19397061.574    -6177897.152 6  -4603378.580 1
  19590331.840   -24551931.174 6 -18921343.489 1
 96  3  2 18 26 59.9880000  0  8 16 18 02 31 29 19 27 28
  21444453.488    -1236129.709 2   -639616.634 1
  16580186.324   -34644981.369 7 -26892410.898 2
  20637251.684    -5930537.153 4  -4373911.465 1
  18381494.434   -29410804.832 6 -20733648.950 1
  18133508.785   -16534848.967 6 -12813783.538 2
  17374773.731   -37583919.901 7 -28066078.380 3
  19371728.098    -6311035.738 5  -4707122.894 1
  19580854.410   -24601744.669 6 -18960159.206 1
 96  3  2 18 27 29.9880000  0  8 16 18 02 31 29 19 27 28
  21418673.231    -1371617.535 2   -745191.532 1
  16569691.442   -34700133.674 7 -26935386.720 2
  20608143.426    -6083511.093 4  -4493111.858 1
  18360584.887   -29520668.265 6 -20819256.793 1
  18134158.254   -16531439.083 6 -12811126.517 2
  17356660.270   -37679113.887 7 -28140255.503 3
  19346406.309    -6444102.929 6  -4810811.579 1
  19571479.223   -24651008.607 6 -18998546.681 1
 96  3  2 18 27 59.9880000  0  8 16 18 02 31 29 19 27 28
  21392966.191    -1506707.687 2   -850456.563 1
  16559293.582   -34754775.145 7 -26977964.498 2
  20579073.512    -6236278.914 5  -4612151.651 1
  18339771.473   -29630054.880 6 -20904493.092 1
  18134872.543   -16527688.842 6 -12808204.297 2
  17338573.949   -37774153.312 7 -28214312.191 3
  19321094.215    -6577118.008 6  -4914459.647 1
  19562206.973   -24699737.195 6 -19036517.006 1
 96  3  2 18 28 29.9880000  0  8 16 18 02 31 29 19 27 28
  21367342.606    -1641342.378 2   -955366.711 1
  16549005.027   -34808852.015 7 -27020102.318 2
  20550049.832    -6388793.026 4  -4730993.718 1
  18319059.465   -29738908.782 6 -20989314.287 1
  18135663.160   -16523531.652 6 -12804964.958 2
  17320525.090   -37868987.601 7 -28288209.026 3
  19295801.809    -6710033.244 6  -5018029.924 1
  19553045.277   -24747872.501 6 -19074025.027 1
 96  3  2 18 28 59.9880000  0  8 16 18 02 31 29 19 27 28
  21341806.699    -1775539.721 2  -1059936.031 1
  16538817.059   -34862384.093 7 -27061815.628 2
  20521071.449    -6541083.492 5  -4849661.540 1
  18298444.285   -29847233.553 6 -21073723.173 1
  18136531.473   -16518974.666 6 -12801414.100 2
  17302518.527   -37963622.155 7 -28361950.228 3
  19270520.512    -6842883.817 6  -5121549.803 1
  19543993.395   -24795429.659 6 -19111082.539 1
 96  3  2 18 29 29.9880000  0  8 16 18 02 31 29 19 27 28
  21316346.293    -1909360.365 2  -1164211.836 1
  16528723.481   -34915425.400 7 -27103146.524 2
  20492121.582    -6693204.274 5  -4968197.122 1
  18277922.613   -29955060.239 6 -21157743.939 1
  18137465.598   -16514057.912 6 -12797582.898 2
  17284542.145   -38058098.848 7 -28435568.423 3
  19245238.692    -6975732.562 6  -5225068.269 1
  19535042.871   -24842468.494 6 -19147736.155 1
 96  3  2 18 29 59.9870000  0  8 16 18 02 31 29 19 27 28
  21290949.405    -2042813.056 2  -1268200.928 1
  16518720.952   -34967985.669 7 -27144102.586 2
  20463209.429    -6845145.779 5  -5086593.017 1
  18257503.390   -30062380.562 6 -21241370.137 1
  18138471.937   -16508772.760 6 -12793464.639 2
  17266590.577   -38152425.169 7 -28509069.444 3
  19219964.398    -7108563.583 6  -5328572.916 1
  19526190.335   -24888982.665 6 -19183980.948 1
 96  3  2 18 30 29.9870000  0  8 16 18 02 31 29 19 27 28
  21265618.468    -2175925.544 2
  16508812.273   -35020065.543 7 -27184684.311 2
  20434323.405    -6996940.373 5  -5204874.438 1
  18237176.585   -30169197.238 6 -21324603.880 1
  18139546.780   -16503122.061 6 -12789061.535 2
  17248665.327   -38246617.226 7 -28582465.846 3
  19194690.077    -7241376.725 6
  19517442.499   -24934970.403 6 -19219815.524 1
 96  3  2 18 30 59.9870000  0  8 16 18 02 31 29 19 27 28
  21240356.905          -0.83312
  16498993.358   -35071655.173 7 -27224884.034 2
  20405468.273    -7148580.812 5  -5323035.742 1
  18216945.577   -30275513.016 6 -21407447.311 1
  18140692.140   -16497106.832 6 -12784374.376 2
  17230770.609   -38340660.974 7 -28655746.682 3
  19169424.491    -7374149.992 6  -5535523.280 1
  19508791.296   -24980426.660 6 -19255235.951 1
 96  3  2 18 31 29.9870000  0  8 16 18 02 31 29 19 27 28
  21215163.046     -132405.629 2
  16489270.351   -35122750.320 7 -27264698.439 2
  20376642.140    -7300056.824 5  -5441068.894 1
  18196808.335   -30381337.261 6 -21489907.740 1
  18141905.296   -16490730.255 6 -12779405.658 2
  17212904.304   -38434551.602 7 -28728908.205 3
  19144168.163    -7506862.926 6  -5638935.914 1
  19500245.530   -25025343.172 6 -19290235.808 1
 96  3  2 18 31 59.9870000  0  8 16 18 02 31 29 19 27 28
  21190033.976     -264452.821 2        -0.31311
  16479638.030   -35173367.693 7 -27304140.557 2
  20347844.124    -7451391.968 5  -5558992.292 1
  18176757.530   -30486690.759 6 -21572001.347 1
  18143182.343   -16484019.033 6 -12774176.172 2
  17195064.601   -38528305.025 7 -28801962.821 3
  19118922.015    -7639530.705 6  -5742313.373 1
  19491796.483   -25069731.320 6 -19324823.942 1
 96  3  2 18 32 29.9870000  0  8 16 18 02 31 29 19 27 28
  21164973.819     -396128.559 2   -102604.716 1
  16470098.999   -35223499.799 7 -27343204.547 2
  20319071.999    -7602590.773 5  -5676809.451 1
  18156801.874   -30591563.504 6 -21653720.346 1
  18144524.359   -16476976.685 6 -12768688.657 2
  17177251.077   -38621911.023 7 -28874902.547 3
  19093684.991    -7772164.829 6  -5845664.600 1
  19483448.765   -25113596.936 6 -19359004.913 1
 96  3  2 18 32 59.9870000  0  8 16 18 02 31 29 19 27 28
  21139990.218     -527402.883 3   -204896.360 1
  16460655.983   -35273128.034 7 -27381875.907 2
  20290331.523    -7753620.974 5  -5794495.239 1
  18136940.241   -30695937.716 6 -21735050.876 1
  18145927.765   -16469590.824 6 -12762933.474 2
  17159468.601   -38715351.017 7 -28947712.932 3
  19068453.202    -7904753.767 6  -5948980.625 1
  19475199.593   -25156935.589 6 -19392775.268 1
 96  3  2 18 33 29.9870000  0  8 16 18 02 31 29 19 27 28
  21115092.179     -658255.856 3   -306859.672 1
  16451305.804   -35322257.384 7 -27420158.531 2
  20261623.577    -7904471.621 5  -5912041.129 1
  18117176.085   -30799794.330 6 -21815978.085 1
  18147398.554   -16461863.194 6 -12756911.980 2
  17141718.944   -38808634.133 7 -29020401.073 3
  19043229.030    -8037307.218 6  -6052268.994 1
  19467051.171   -25199747.404 6 -19426135.102 1
 96  3  2 18 33 59.9870000  0  8 16 18 02 31 29 19 27 28
  21090273.218     -788679.053 3   -408488.106 1
  16442051.983   -35370882.550 7 -27458048.281 2
  20232954.601    -8055130.366 5  -6029437.442 1
  18097515.702   -30903115.077 6 -21896487.740 1
  18148934.468   -16453786.107 6 -12750618.183 2
  17123995.648   -38901766.862 7 -29092972.024 3
  19018014.351    -8169816.539 6  -6155522.993 1
  19459011.288   -25242033.586 6 -19459085.347 1
 96  3  2 18 34 29.9870000  0  8 16 18 02 31 29 19 27 28
  21065538.859     -918657.361 3   -509769.902 1
  16432898.202   -35418990.110 7 -27495534.705 2
  20204326.554    -8205579.258 5  -6146670.252 1
  18077956.499   -31005898.650 6 -21976578.816 1
  18150541.632   -16445347.062 6 -12744042.338 2
  17106303.952   -38994739.623 7 -29165418.330 3
  18992807.187    -8302269.014 6  -6258732.686 1
  19451064.179   -25283786.598 6 -19491620.142 1
 96  3  2 18 34 59.9870000  0  8 16 18 02 31 29 19 27 28
  21040888.288    -1048193.791 4   -610707.347 1
  16423840.694   -35466583.621 7 -27532620.559 2
  20175738.390    -8355813.780 5  -6263736.008 1
  18058497.429   -31108157.834 6 -22056261.275 1
  18152216.898   -16436540.326 6 -12737179.983 2
  17088639.929   -39087563.509 7 -29237748.619 3
  18967613.952    -8434668.231 6  -6361900.877 1
  19443221.546   -25325005.959 6 -19523739.102 1
 96  3  2 18 35 29.9870000  0  8 16 18 02 31 29 19 27 28
  21016320.280    -1177308.408 4   -711316.092 1
  16414878.734   -35513681.217 7 -27569320.009 2
  20147187.444    -8505851.613 5  -6380648.522 1
  18039135.905   -31209898.750 6 -22135539.890 1
  18153960.319   -16427383.769 6 -12730045.031 2
  17071002.007   -39180256.127 7 -29309976.626 3
  18942425.132    -8567035.338 6  -6465044.038 1
  19435478.968   -25365699.896 6 -19555448.652 1
 96  3  2 18 35 59.9870000  0  8 16 18 02 31 29 19 27 28
  20991827.944    -1306026.788 4   -811616.162 1
  16406010.210   -35560283.254 7 -27605633.296 2
  20118670.671    -8655700.659 5  -6497413.930 1
  18019872.476   -31311129.431 6 -22214420.920 1
  18155769.624   -16417881.206 6 -12722640.482 2
  17053388.132   -39272806.386 7 -29382093.707 3
  18917239.257    -8699378.536 6  -6568168.578 1
  19427830.929   -25405871.778 6 -19586751.405 1
 96  3  2 18 36 29.9870000  0  8 16 18 02 31 29 19 27 28
  20967409.382    -1434352.119 4
  16397237.726   -35606387.576 7 -27641558.756 2
  20090190.952    -8805361.840 5  -6614032.955 1
  18000707.374   -31411839.002 6 -22292895.888 1
  18157642.788   -16408036.016 6 -12714968.937 2
  17035808.140   -39365197.257 7 -29454086.584 3
  18892059.054    -8831704.384 6  -6671279.595 1
  19420284.819   -25445515.054 6 -19617642.256 1
 96  3  2 18 36 59.9870000  0  8 16 18 02 31 29 19 27 28
  20943056.702    -1562297.062 4
  16388557.819   -35652002.032 7 -27677102.497 2
  20061749.124    -8954835.997 5  -6730506.248 1
  17981647.226   -31512013.560 6 -22370953.965 1
  18159576.718   -16397863.657 6 -12707042.460 2
  17018253.187   -39457439.087 7 -29525963.327 3
  18866882.460    -8964010.830 6  -6774375.492 1
  19412844.726   -25484633.175 6 -19648123.903 1
 96  3  2 18 37 29.9870000  0  8 16 18 02 31 29 19 27 28
  20918784.085    -1689852.192 4
  16379970.851   -35697121.763 7 -27712260.743 2
  20033338.944    -9104130.037 5  -6846839.204 1
  17962687.890   -31611636.179 6 -22448581.954 1
  18161572.280   -16387381.747 6 -12698874.771 2
  17000730.702   -39549533.040 7 -29597724.842 3
  18841713.460    -9096274.875 6  -6877438.355 1
  19405502.585   -25523225.251 6 -19678195.641 1
 96  3  2 18 37 59.9870000  0  8 16 18 02 31 29 19 27 28
  20894589.437    -1817006.809 4        -0.31411
  16371480.671   -35741741.471 7 -27747029.358 2
  20004961.944    -9253243.807 5  -6963031.673 1
  17943832.577   -31710715.809 6 -22525786.842 1
  18163627.898   -16376579.312 6 -12690457.328 2
  16983232.616   -39641481.900 7 -29669373.297 3
  18816554.757    -9228486.342 6  -6980460.260 1
  19398256.757   -25561298.127 6 -19707862.809 1
 96  3  2 18 38 29.9870000  0  8 16 18 02 31 29 19 27 28
  20870470.093    -1943753.857 4    -98764.203 1
  16363081.655   -35785878.758 7 -27781422.057 2
  19976620.960    -9402182.444 5  -7079087.661 1
  17925080.249   -31809263.292 6 -22602577.068 1
  18165743.788   -16365469.368 6 -12681800.271 1
  16965757.444   -39733315.118 7 -29740931.640 3
  18791407.937    -9360638.035 6  -7083435.570 1
  19391103.991   -25598864.607 6 -19737135.380 1
 96  3  2 18 38 59.9870000  0  8 16 18 02 31 29 19 27 28
  20846425.288    -2070104.114 4   -197218.964 1
  16354768.780   -35829564.354 7 -27815462.797 2
  19948305.226    -9550977.472 5  -7195031.777 1
  17906421.702   -31907313.752 6 -22678980.008 2
  18167910.038   -16354075.569 6 -12672922.034 1
  16948297.359   -39825072.268 7 -29812430.723 3
  18766266.538    -9492753.624 6  -7186382.729 1
  19384047.132   -25635953.899 6 -19766036.124 1
 96  3  2 18 39 29.9870000  0  8 16 18 02 31 29 19 27 28
  20822461.109    -2196037.769 4   -295349.060 1
  16346543.937   -35872786.425 7 -27849142.343 2
  19920016.491    -9699630.161 5  -7310864.986 1
  17887859.007   -32004865.540 6 -22754994.371 2
  18170137.007   -16342379.217 6 -12663808.022 1
  16930852.483   -39916740.349 7 -29883860.392 3
  18741132.319    -9624835.888 6  -7289303.945 1
  19377084.413   -25672560.537 6 -19794560.765 1
 96  3  2 18 39 59.9870000  0  8 16 18 02 31 29 19 27 28
  20798587.687    -2321515.433 4   -393123.859 1
  16338414.679   -35915502.610 7 -27882427.691 2
  19891765.991    -9848088.303 5  -7426546.591 1
  17869399.444   -32101876.788 6 -22830587.524 2
  18172428.944   -16330328.652 6 -12654418.014 1
  16913434.155   -40008269.770 7 -29955182.014 3
  18716009.194    -9756859.861 6  -7392179.731 1
  19370213.546   -25708639.553 6 -19822674.282 1
 96  3  2 18 40 29.9870000  0  8 16 18 02 31 29 19 27 28
  20774790.960    -2446553.997 4   -490556.484 1
  16330381.749   -35957724.968 7 -27915328.240 2
  19863551.569    -9996360.747 5  -7542083.502 1
  17851035.546   -32198363.837 6 -22905772.225 2
  18174785.484   -16317952.304 6 -12644774.140 1
  16896044.913   -40099663.657 7 -30026398.024 3
  18690889.109    -9888840.568 6  -7495021.792 1
  19363450.538   -25744197.044 6 -19850381.407 1
 96  3  2 18 40 59.9870000  0  8 16 18 02 31 29 19 27 28
  20751083.983    -2571131.673 4   -587629.965 1
  16322449.187   -35999398.327 7 -27947800.991 2
  19835379.273   -10144408.583 5  -7657445.386 1
  17832780.655   -32294296.023 6 -22980524.553 2
  18177209.976   -16305208.093 6 -12634843.621 1
  16878687.546   -40190874.395 7 -30097471.311 3
  18665790.835   -10020760.938 6  -7597816.861 1
  19356793.851   -25779199.113 6 -19877655.733 1
 96  3  2 18 41 29.9870000  0  8 16 18 02 31 29 19 27 28
  20727457.273    -2695267.631 3   -684359.244 1
  16314626.991   -36040515.451 7 -27979840.322 2
  19807248.616   -10292225.975 5  -7772627.715 1
  17814630.765   -32389677.214 6 -23054847.540 2
  18179704.413   -16292102.400 6 -12624631.438 1
  16861367.523   -40281892.430 7 -30168394.446 3
  18640697.226   -10152622.431 6  -7700566.045 1
  19350232.366   -25813652.981 6 -19904502.906 1
 96  3  2 18 41 59.9860000  0  8 16 18 02 31 29 19 27 28
  20703903.111    -2819043.792 3   -780808.199 1
  16306893.385   -36081149.465 7 -28011503.202 2
  19779159.361   -10439859.926 5  -7887667.121 1
  17796575.822   -32484576.811 6 -23128795.248 2
  18182253.752   -16278706.696 6 -12614193.266 1
  16844071.322   -40372769.673 7 -30239207.876 3
  18615605.611   -10284474.026 6  -7803307.527 1
  19343766.986   -25847624.359 6 -19930974.107 1
 96  3  2 18 42 29.9860000  0  8 16 18 02 31 29 19 27 28
  20680425.736    -2942406.803 3   -876935.212 1
  16299262.424   -36121245.459 7 -28042746.843 2
  19751108.346   -10587258.415 5  -8002523.026 1
  17778615.307   -32578939.432 6 -23202324.534 2
  18184868.721   -16264962.783 6 -12603483.773 1
  16826817.377   -40463449.224 7 -30309867.252 3
  18590531.510   -10416248.244 6  -7905988.696 1
  19337410.033   -25881056.423 6 -19957025.067 1
 96  3  2 18 42 59.9860000  0  8 16 18 02 31 29 19 27 28
  20657033.557    -3065371.642 3   -972751.976 1
  16291730.861   -36160832.173 7 -28073593.649 2
  19723098.627   -10734450.207 5  -8117217.873 1
  17760761.877   -32672755.227 6 -23275427.721 2
  18187547.713   -16250887.728 6 -12592516.254 1
  16809595.104   -40553959.673 7 -30380394.865 3
  18565466.361   -10547957.831 6  -8008619.505 1
  19331142.440   -25913972.313 6 -19982673.807 1
 96  3  2 18 43 29.9860000  0  8 16 18 02 31 29 19 27 28
  20633710.275    -3187926.080 3  -1068248.933 1
  16284289.963   -36199933.606 7 -28104062.311 2
  19695126.408   -10881450.693 5  -8231763.662 1
  17743014.619   -32766015.777 6 -23348098.251 2
  18190285.221   -16236494.996 6 -12581301.185 1
  16792402.166   -40644310.913 7 -30450798.411 3
  18540416.838   -10679602.696 6  -8111199.894 1
  19324976.150   -25946372.847 6 -20007920.975 1
 96  3  2 18 43 59.9860000  0  8 16 18 02 31 29 19 27 28
  20610476.354    -3310025.514 3  -1163391.315 1
  16276945.494   -36238527.889 7 -28134135.791 2
  19667193.221   -11028235.609 5  -8346141.448 1
  17725385.213   -32858680.039 6 -23420304.135 2
  18193090.088   -16221754.194 6 -12569814.890 1
  16775242.025   -40734476.376 7 -30521057.201 3
  18515379.799   -10811163.751 6  -8213714.975 1
  19318919.299   -25978221.068 6 -20032737.768 1
 96  3  2 18 44 29.9860000  0  8 16 18 02 31 29 19 27 28
  20587317.846    -3431694.931 3  -1258198.656 1
  16269690.408   -36276659.514 7 -28163848.758 2
  19639289.033   -11174867.693 5  -8460400.158 1
  17707856.877   -32950779.453 6 -23492069.883 2
  18195952.033   -16206719.921 6 -12558099.921 1
  16758109.361   -40824511.968 7 -30591214.795 3
  18490350.588   -10942707.021 6  -8316216.197 1
  19312951.119   -26009566.796 6 -20057163.008 1
 96  3  2 18 44 59.9860000  0  8 16 18 02 31 29 19 27 28
  20564246.205    -3552949.613 3  -1352682.786 1
  16262519.815   -36314337.120 7 -28193207.944 2
  19611412.877   -11321351.589 5  -8574543.400 1
  17690432.213   -33042331.607 6 -23563409.187 2
  18198865.354   -16191410.373 6 -12546170.462 1
  16740998.400   -40914431.167 7 -30661281.689 3
  18465314.416   -11074270.146 6  -8418732.884 1
  19307079.182   -26040427.817 5 -20081210.554 1
 96  3  2 18 45 29.9860000  0  8 16 18 02 31 29 19 27 28
  20541254.869    -3673797.139 3  -1446849.663 1
  16255434.690   -36351570.683 7 -28222221.123 2
  19583569.369   -11467679.662 5  -8688565.240 1
  17673111.963   -33133372.534 6 -23634350.144 2
  18201827.432   -16175845.875 6 -12534042.331 1
  16723909.533   -41004229.526 7 -30731254.433 3
  18440269.541   -11205869.539 6  -8521277.833 1
  19301294.408   -26070820.176 5 -20104892.917 1
 96  3  2 18 45 59.9860000  0  7 18 02 31 29 19 27 28
  16248439.846   -36388325.439 7 -28250861.204 2
  19555761.307   -11613809.447 5  -8802432.542 1
  17655888.815   -33223873.797 6 -23704870.575 2
  18204840.408   -16160006.291 6 -12521699.848 1
  16706851.166   -41093872.415 7 -30801106.024 3
  18415230.197   -11337464.257 6  -8623819.139 1
  19295609.682   -26100718.763 5 -20128190.520 1
 96  3  2 18 46 29.9860000  0  7 18 02 31 29 19 27 28
  16241563.486   -36424457.609 7 -28279016.148 2
  19528020.861   -11759584.642 5  -8916023.527 1
  17638797.236   -33313698.060 6 -23774863.468 2
  18207933.658   -16143750.232 6 -12509032.812 1
  16689845.885   -41183224.339 7 -30870730.887 3
  18390223.275   -11468889.695 6  -8726228.530 1
  19290038.979   -26129984.168 5 -20150994.717 1
 96  3  2 18 46 59.9860000  0  8 16 18 02 31 29 19 27 28
  20472841.736          -0.57713
  16234797.236   -36460022.461 7 -28306729.030 2
  19500340.190   -11905055.281 5  -9029377.206 1
  17621821.690   -33402910.475 6
  18211097.533   -16127128.883 6 -12496081.153 1
  16672888.174   -41272348.207 7
  18365235.557   -11600179.374 6  -8828532.145 1
  19284578.315   -26158669.474 5 -20173346.892 1
 96  3  2 18 47 29.9860000  0  8 16 18 02 31 29 19 27 28
  20450226.025     -118822.072 3        -0.32711
  16228119.635   -36495107.879 7 -28334068.330 2
  19472694.869   -12050328.084 5  -9142576.726 1
  17604947.940   -33491581.656 6 -23913473.997 2
  18214316.369   -16110219.615 6 -12482905.129 1
  16655957.127   -41361319.361 7 -31009506.196 3
  18340267.971   -11731390.874 6  -8930774.837 1
  19279216.182   -26186853.472 5 -20195308.442 1
 96  3  2 18 47 59.9860000  0  8 16 18 02 31 29 19 27 28
  20427700.643     -237182.856 3    -92229.521 1
  16221534.252   -36529716.294 7 -28361035.941 2
  19445085.041   -12195423.289 5  -9255637.849 1
  17588176.424   -33579698.095 6 -23982136.129 2
  18217589.510   -16093015.474 6 -12469499.324 1
  16639053.541   -41450157.367 7 -31078730.600 3
  18315313.682   -11862526.967 6  -9032958.777 1
  19273948.596   -26214535.761 6 -20216879.048 1
 96  3  2 18 48 29.9860000  0  8 16 18 02 31 29 19 27 28
  20405267.775     -355081.134 3   -184098.305 1
  16215039.877   -36563845.422 7 -28387630.081 2
  19417505.705   -12340348.118 5  -9368566.186 1
  17571515.971   -33667255.064 6 -24050362.305 2
  18220921.518   -16075497.375 6 -12455848.898 1
  16622172.752   -41538861.883 7 -31147850.993 3
  18290372.752   -11993595.088 6  -9135089.750 1
  19268775.088   -26241716.409 5 -20238058.761 1
 96  3  2 18 48 59.9860000  0  8 16 18 02 31 29 19 27 28
  20382912.775     -472545.885 3   -275629.286 1
  16208636.025   -36597494.756 7 -28413850.357 2
  19389958.252   -12485111.939 5  -9481369.077 1
  17554961.893   -33754250.515 6 -24118150.936 2
  18224317.565   -16057662.977 6 -12441951.999 1
  16605320.111   -41627423.580 7 -31216860.096 3
  18265440.385   -12124615.886 6  -9237183.852 1
  19263697.127   -26268401.587 5 -20258852.407 1
 96  3  2 18 49 29.9860000  0  8 16 18 02 31 29 19 27 28
  20360651.877     -589591.357 2   -366833.522 1
  16202327.119   -36630649.110 7 -28439684.930 2
  19362445.690   -12629693.172 5  -9594029.698 1
  17538515.986   -33840667.211 6 -24185488.596 2
  18227773.299   -16039496.185 6 -12427796.107 1
  16588496.947   -41715829.311 7 -31285747.664 3
  18240515.049   -12255597.828 6  -9339247.686 1
  19258716.955   -26294581.313 5 -20279252.189 1
 96  3  2 18 49 59.9860000  0  8 16 18 02 31 29 19 27 28
  20338447.650     -706211.048 3   -457705.997 1
  16196114.393   -36663301.190 7 -28465128.125 2
  19334969.463   -12774074.621 5  -9706534.646 1
  17522180.994   -33926519.523 6 -24252386.475 2
  18231294.127   -16021000.796 6 -12413384.158 1
  16571699.205   -41804099.364 7 -31354529.520 3
  18215593.947   -12386557.487 6  -9441294.154 1
  19253829.518   -26320265.228 5 -20299265.617 1
 96  3  2 18 50 29.9860000  0  8 16 18 02 31 29 19 27 28
  20316342.244     -822396.373 3   -548240.002 1
  16190000.877   -36695427.394 7 -28490161.544 2
  19307538.104   -12918227.906 5  -9818861.786 1
  17505952.135   -34011806.603 6 -24318843.908 2
  18234875.596   -16002177.078 6 -12398716.372 1
  16554931.104   -41892217.660 7 -31423193.105 3
  18190679.018   -12517480.224 6  -9543311.845 1
  19249036.846   -26345447.427 5 -20318888.100 1
 96  3  2 18 50 59.9860000  0  8 16 18 02 31 29 19 27 28
  20294315.408     -938152.643 3   -638439.706 1
  16183988.377   -36727019.891 7 -28514779.085 2
  19280149.291   -13062151.093 5  -9931009.663 1
  17489829.018   -34096530.026 6 -24384862.134 2
  18238515.768   -15983041.252 6 -12383805.385 1
  16538190.963   -41980188.380 7 -31491741.711 3
  18165773.533   -12648361.115 6  -9645296.929 1
  19244339.682   -26370129.174 6 -20338120.626 1
 96  3  2 18 51 29.9860000  0  8 16 18 02 31 29 19 27 28
  20272372.424    -1053447.498 3   -728279.849 1
  16178079.830   -36758069.632 7 -28538973.704 2
  19252807.541   -13205840.836 5 -10042975.595 1
  17473814.260   -34180671.155 6 -24450426.624 2
  18242218.611   -15963594.382 6 -12368652.014 1
  16521480.752   -42068006.649 7 -31560171.539 3
  18140877.330   -12779187.821 6  -9747239.792 1
  19239741.025   -26394303.783 5 -20356957.984 1
 96  3  2 18 51 59.9860000  0  8 16 18 02 31 29 19 27 28
  20250521.588    -1168257.967 3   -817742.553 1
  16172274.018   -36788578.259 7 -28562746.678 2
  19225509.674   -13349288.213 5 -10154752.701 1
  17457919.346   -34264218.869 6 -24515528.717 2
  18245976.588   -15943844.196 6 -12353262.297 1
  16504799.588   -42155658.665 7 -31628471.763 3
  18115997.932   -12909940.310 6  -9849124.823 1
  19235234.674   -26417969.963 5 -20375399.165 1
 96  3  2 18 52 29.9860000  0  8 16 18 02 31 29 19 27 28
  20228767.846    -1282604.009 4   -906843.337 1
  16166566.190   -36818574.554 7 -28586120.427 2
  19198258.932   -13492493.637 5 -10266341.275 1
  17442135.174   -34347165.398 6 -24580162.351 2
  18249789.190   -15923801.150 6 -12337644.374 1
  16488153.940   -42243129.869 7 -31696631.136 3
  18091129.143   -13040615.139 6  -9950949.338 1
  19230829.557   -26441133.496 5 -20393448.678 1
 96  3  2 18 52 59.9860000  0  8 16 18 02 31 29 19 27 28
  20207094.916    -1396489.512 4   -995585.292 1
  16160950.877   -36848092.701 7 -28609121.591 2
  19171049.955   -13635471.728 5 -10377752.705 1
  17426463.455   -34429512.371 6 -24644328.803 2
  18253657.791   -15903475.395 6 -12321806.165 1
  16471544.846   -42330418.522 7 -31764648.267 3
  18066273.783   -13171235.585 6 -10052731.479 1
  19226511.947   -26463804.381 5 -20411114.301 1
 96  3  2 18 53 29.9850000  0  8 16 18 02 31 29 19 27 28
  20185512.732    -1509896.745 4  -1083954.598 1
  16155420.083   -36877147.242 7 -28631761.506 2
  19143889.692   -13778199.853 5 -10488969.339 1
  17410906.388   -34511262.727 6 -24708030.355 2
  18257582.138   -15882862.028 6 -12305743.841 1
  16454971.630   -42417508.779 7 -31832510.792 3
  18041430.169   -13301792.419 6 -10154464.057 1
  19222296.138   -26485975.891 5 -20428390.803 1
 96  3  2 18 53 59.9850000  0  8 16 18 02 31 29 19 27 28
  20164021.317    -1622841.477 3  -1171963.446 1
  16149977.935   -36905748.462 7 -28654048.185 2
  19116777.497   -13920679.288 5 -10599992.196 1
  17395456.982   -34592444.280 6 -24771288.688 2
  18261556.771   -15861962.536 6 -12289458.553 1
  16438437.122   -42504405.714 7 -31900222.690 3
  18016597.536   -13432284.609 6 -10256146.261 1
  19218171.474   -26507649.703 5 -20445279.508 1
 96  3  2 18 54 29.9850000  0  8 16 18 02 31 29 19 27 28
  20142615.661    -1735330.451 4  -1259617.155 1
  16144619.708   -36933901.021 7 -28675985.256 2
  19089706.349   -14062928.117 5 -10710835.374 1
  17380114.380   -34673071.867 6 -24834115.367 2
  18265587.489   -15840781.994 6 -12272954.273 1
  16421938.247   -42591111.391 7 -31967785.560 3
  17991777.021   -13562721.596 6 -10357785.449 1
  19214144.247   -26528828.005 5 -20461782.089 1
 96  3  2 18 54 59.9850000  0  8 16 18 02 31 29 19 27 28
  20121294.341    -1847361.214 4  -1346913.856 1
  16139350.341   -36961597.917 7 -28697567.263 2
  19062676.239   -14204975.941 5 -10821521.920 1
  17364871.567   -34753169.375 6 -24896528.995 2
  18269668.177   -15819340.446 6 -12256246.621 1
  16405466.302   -42677662.907 7 -32035228.291 3
  17966961.130   -13693129.909 6 -10459402.296 1
  19210201.458   -26549523.728 5 -20477908.645 1
 96  3  2 18 55 29.9850000  0  8 16 18 02 31 29 19 27 28
  20100068.130    -1958921.350 4  -1433843.820 1
  16134171.638   -36988808.994 7 -28718770.716 2
  19035683.685   -14346821.272 5 -10932050.678 1
  17349735.325   -34832727.341 6 -24958522.202 2
  18273802.021   -15797621.740 6 -12239322.978 1
  16389022.278   -42764071.899 7 -32102559.965 3
  17942156.685   -13823476.727 6 -10560971.227 1
  19206359.466   -26569729.352 5 -20493653.296 1
 96  3  2 18 55 59.9850000  0  8 16 18 02 31 29 19 27 28
  20078930.716    -2069998.287 4  -1520397.303 1
  16129093.817   -37015499.247 7 -28739568.322 2
  19008731.232   -14488472.721 5 -11042428.359 1
  17334704.411   -34911709.894 6 -25020067.028 2
  18277988.942   -15775613.111 6 -12222173.430 1
  16372609.357   -42850326.452 7 -32169771.300 3
  17917367.567   -13953748.738 6 -10662481.862 1
  19202608.825   -26589433.556 5 -20509007.235 1
 96  3  2 18 56 29.9850000  0  8 16 18 02 31 29 19 27 28
  20057882.278    -2180601.532 4  -1606581.647 1
  16124113.224   -37041664.351 7 -28759956.723 2
  18981806.239   -14629952.882 6 -11152672.570 1
  17319785.333   -34990113.663 6 -25081160.860 2
  18282229.396   -15753325.731 6 -12204806.673 1
  16356222.708   -42936445.273 7 -32236876.866 3
  17892587.778   -14083966.107 6 -10763949.924 1
  19198952.919   -26608648.853 5 -20523980.226 1
 96  3  2 18 56 59.9850000  0  8 16 18 02 31 29 19 27 28
  20036925.239    -2290728.920 4  -1692395.197 1
  16119237.247   -37067293.032 7 -28779927.137 2
  18954920.099   -14771246.185 5 -11262771.201 1
  17304981.380   -35067915.546 6 -25141785.688 2
  18286526.482   -15730748.104 6 -12187213.747 1
  16339857.599   -43022432.258 7 -32303879.701 3
  17867821.294   -14214115.455 6 -10865364.978 1
  19195385.778   -26627375.382 5 -20538572.357 1
 96  3  2 18 57 29.9850000  0  8 16 18 02 31 29 19 27 28
  20016059.778    -2400390.051 4  -1777845.431 1
  16114460.482   -37092392.681 7 -28799485.313 2
  18928070.778   -14912347.618 5 -11372720.313 1
  17290290.372   -35145103.566 6 -25201932.182 2
  18290881.224   -15707872.566 6 -12169388.692 1
  16323524.567   -43108266.224 7 -32370763.304 3
  17843069.786   -14344188.512 6 -10966720.585 1
  19191918.653   -26645612.659 5 -20552783.254 1
 96  3  2 18 57 59.9850000  0  8 16 18 02 31 29 19 27 28
  19995274.169    -2509594.135 4  -1862939.531 1
  16109781.567   -37116984.034 7 -28818647.415 2
  18901256.482   -15053249.952 5 -11482514.281 1
  17275717.005   -35221678.022 6 -25261600.569 2
  18295287.708   -15684713.716 6 -12151342.878 1
  16307224.146   -43193932.406 7 -32437516.155 3
  17818325.458   -14474215.002 6 -11068039.912 1
  19188535.833   -26663365.507 5 -20566616.669 1
 96  3  2 18 58 29.9850000  0  8 16 18 02 31 29 19 27 28
  19974581.513    -2618343.321 4  -1947679.184 1
  16105194.841   -37141081.307 7 -28837424.517 2
  18874488.177   -15193924.230 6 -11592130.548 1
  17261262.091   -35297646.030 6 -25320796.409 2
  18299748.677   -15661272.765 6 -12133077.243 1
  16290953.903   -43279431.918 7 -32504139.141 3
  17793590.833   -14604196.978 6 -11169324.547 1
  19185254.099   -26680633.902 5 -20580072.596 1
 96  3  2 18 58 59.9850000  0  8 16 18 02 31 29 19 27 28
  19953972.153    -2726642.928 4  -2032068.488 1
  16100698.263   -37164716.015 7 -28855841.182 2
  18847759.786   -15334365.442 6 -11701565.189 1
  17246921.708   -35373010.482 6 -25379521.938 2
  18304260.482   -15637559.253 6 -12114599.219 1
  16274716.114   -43364763.957 7 -32570631.635 3
  17768863.427   -14734140.342 6 -11270579.089 1
  19182053.755   -26697430.015 5 -20593160.498 1
 96  3  2 18 59 29.9850000  0  8 16 18 02 31 29 19 27 28
  19933463.317    -2834437.517 4  -2116064.248 1
  16096293.825   -37187859.284 7 -28873874.906 2
  18821089.021   -15474528.138 6 -11810782.816 1
  17232702.177   -35447743.091 6 -25437755.123 2
  18308831.075   -15613542.887 6 -12095885.194 1
  16258516.833   -43449876.806 7 -32636953.320 3
  17744150.567   -14864005.392 6 -11371772.614 1
  19178959.958   -26713712.656 5 -20605848.299 1
 96  3  2 18 59 59.9850000  0  8 16 18 02 31 29 19 27 28
  19913041.739    -2941741.703 4  -2199677.873 1
  16091978.482   -37210539.334 7 -28891547.678 2
  18794469.044   -15614421.369 6 -11919790.483 1
  17218595.403   -35521876.107 6 -25495521.099 2
  18313453.458   -15589258.354 6 -12076962.214 1
  16242356.942   -43534801.313 7 -32703128.240 3
  17719450.372   -14993807.686 6 -11472917.237 1
  19175951.732   -26729510.493 5 -20618158.333 1
 96  3  2 19  0 29.9850000  0  8 16 18 02 31 29 19 27 28
  19892718.622    -3048559.018 4  -2282912.174 1
  16087753.067   -37232743.157 7 -28908849.365 2
  18767895.536   -15754063.985 6 -12028602.868 1
  17204597.607   -35595421.100 6 -25552828.878 2
  18318122.989   -15564708.559 6 -12057832.550 1
  16226230.216   -43619556.697 7 -32769171.381 3
  17694763.692   -15123534.369 6 -11574002.941 1
  19173038.653   -26744834.077 5 -20630098.820 1
 96  3  2 19  0 59.9850000  0  8 16 18 02 31 29 19 27 28
  19872487.857    -3154878.890 4  -2365758.834 1
  16083617.841   -37254473.622 7 -28925782.202 2
  18741366.427   -15893477.660 6 -12137236.847 1
  17190712.786   -35668383.064 6 -25609682.350 2
  18322844.224   -15539899.231 6 -12038500.657 1
  16210131.380   -43704149.799 7 -32835088.082 3
  17670093.474   -15253182.205 6 -11675027.187 1
  19170209.263   -26759691.879 5 -20641676.358 1
 96  3  2 19  1 29.9850000  0  8 16 18 02 31 29 19 27 28
  19852348.653    -3260694.160 4  -2448212.285 1
  16079577.271   -37275704.117 7 -28942325.454 2
  18714880.677   -16032659.011 6 -12245689.806 1
  17176938.825   -35740762.943 6 -25666082.247 2
  18327616.200   -15514820.826 6 -12018959.076 1
  16194068.607   -43788570.020 7 -32900870.063 3
  17645436.888   -15382745.756 6 -11775985.799 1
  19167471.153   -26774074.639 5 -20652883.734 1
 96  3  2 19  1 59.9850000  0  8 16 18 02 31 29 19 27 28
  19832303.817    -3366015.577 4  -2530280.926 1
  16075636.864   -37296414.547 7 -28958463.460 2
  18688440.614   -16171609.536 6 -12353962.875 1
  17163278.669   -35812560.247 6 -25722028.191 2
  18332439.208   -15489475.742 6 -11999209.712 1
  16178035.271   -43872821.187 7 -32966520.311 3
  17620798.435   -15512225.367 6 -11876878.969 1
  19164824.396   -26787987.630 5 -20663725.048 1
 96  3  2 19  2 29.9850000  0  8 16 18 02 31 29 19 27 28
  19812360.575    -3470830.255 4  -2611954.699 1
  16071796.513   -37316597.237 7 -28974190.243 3
  18662042.482   -16310327.450 6 -12462054.710 1
  17149730.036   -35883766.655 6 -25777513.697 2
  18337316.919   -15463848.125 6 -11979240.181 1
  16162037.692   -43956888.276 7 -33032027.125 3
  17596174.021   -15641620.971 6 -11977706.689 1
  19162265.028   -26801421.220 5 -20674192.815 1
 96  3  2 19  2 59.9850000  0  8 16 18 02 31 29 19 27 28
  19792508.692    -3575142.317 4  -2693236.822 1
  16068048.177   -37336288.684 7 -28989534.240 2
  18635689.192   -16448814.806 6 -12569966.877 1
  17136286.974   -35954395.446 6 -25832549.113 2
  18342244.700   -15437953.209 6 -11959062.370 1
  16146075.317   -44040772.220 7 -33097391.227 3
  17571565.224   -15770949.974 6 -12078482.512 1
  19159803.372   -26814383.081 5 -20684292.984 1
 96  3  2 19  3 29.9850000  0  8 16 18 02 31 29 19 27 28
  19772752.013    -3678969.821 4  -2774141.411 1
  16064395.607   -37355485.145 7 -29004492.529 2
  18609380.958   -16587069.890 6 -12677698.065 1
  17122954.763   -36024455.010 6 -25887140.975 2
  18347221.122   -15411794.850 6 -11938679.283 1
  16130148.528   -44124474.578 7 -33162613.832 3
  17546964.935   -15900218.518 6 -12179211.217 1
  19157424.669   -26826876.085 5 -20694027.826 1
 96  3  2 19  3 59.9850000  0  8 16 18 02 31 29 19 27 28
  19753086.864    -3782315.229 4  -2854670.300 1
  16060833.958   -37374203.337 7 -29019078.140 3
  18583113.216   -16725094.564 6 -12785249.701 1
  17109735.607   -36093936.068 6 -25941282.044 2
  18352249.333   -15385383.471 6 -11918099.027 1
  16114251.442   -44208004.780 7 -33227702.290 3
  17522377.950   -16029421.329 6 -12279888.706 1
  19155133.364   -26838902.570 5 -20703399.115 1
 96  3  2 19  4 29.9850000  0  8 16 18 02 31 29 19 27 28
  19733512.732    -3885173.465 4  -2934819.594 1
  16057358.005   -37392468.493 7 -29033310.742 2
  18556891.567   -16862898.133 6 -12892629.049 1
  17096627.536   -36162820.127 6 -25994957.929 2
  18357322.357   -15358719.339 6 -11897321.831 1
  16098388.614   -44291360.272 7 -33292654.613 3
  17497804.778   -16158558.121 6 -12380514.748 1
  19152938.349   -26850455.632 5 -20712401.532 1
 96  3  2 19  4 59.9840000  0  8 16 18 02 31 29 19 27 28
  19714027.594    -3987571.542 4  -3014610.296 1
  16053968.508   -37410284.307 7 -29047193.200 3
  18530708.453   -17000491.428 6 -12999844.538 1
  17083632.281   -36231099.163 6 -26048162.353 2
  18362441.899   -15331821.347 6 -11876362.412 1
  16082558.141   -44374555.718 7 -33357482.224 3
  17473243.492   -16287629.543 6 -12481089.855 2
  19150825.883   -26861549.610 5 -20721046.205 1
 96  3  2 19  5 29.9840000  0  8 16 18 02 31 29 19 27 28
  19694627.539    -4089517.839 4  -3094049.008 1
  16050668.672   -37427624.295 7 -29060704.893 3
  18504563.656   -17137874.233 6 -13106896.008 1
  17070758.055   -36298751.529 6 -26100878.470 2
  18367606.164   -15304673.760 6 -11855208.489 1
  16066758.805   -44457586.747 7 -33422181.714 3
  17448697.102   -16416624.185 6 -12581605.140 2
  19148802.274   -26872177.541 5 -20729327.729 1
 96  3  2 19  5 59.9840000  0  8 16 18 02 31 29 19 27 28
  19675317.234    -4191001.185 4  -3173126.970 1
  16047457.578   -37444494.927 7 -29073850.848 2
  18478461.922   -17275044.052 6 -13213781.519 1
  17058008.250   -36365761.531 6 -26153094.034 2
  18372819.133   -15277281.506 6 -11833863.921 1
  16050990.250   -44540443.505 7 -33486745.410 3
  17424167.008   -16545534.384 6 -12682054.618 2
  19146872.461   -26882338.647 5 -20737245.494 1
 96  3  2 19  6 29.9840000  0  8 16 18 02 31 29 19 27 28
  19656089.242    -4292016.716 4  -3251840.370 1
  16044338.219   -37460888.529 7 -29086625.089 3
  18452399.859   -17412004.293 6 -13320503.746 1
  17045373.570   -36432142.911 6 -26204819.760 2
  18378079.070   -15249644.607 6 -11812328.728 1
  16035258.234   -44623123.340 7 -33551171.249 3
  17399650.063   -16674361.019 6 -12782438.991 2
  19145023.180   -26892039.321 5 -20744804.470 1
 96  3  2 19  6 59.9840000  0  8 16 18 02 31 29 19 27 28
  19636959.422    -4392556.769 4  -3330183.276 1
  16041313.852   -37476782.959 7 -29099010.365 3
  18426380.555   -17548739.982 6 -13427050.972 1
  17032858.891   -36497912.526 6 -26256068.793 2
  18383384.438   -15221752.262 5 -11790594.467 1
  16019560.570   -44705617.751 7 -33615452.599 3
  17375152.461   -16803098.384 6 -12882753.797 2
  19143264.883   -26901284.725 5 -20752008.691 1
 96  3  2 19  7 29.9840000  0  8 16 18 02 31 29 19 27 28
  19617926.188    -4492599.137 4  -3408138.393 1
  16038383.852   -37492183.162 7 -29111010.529 3
  18400403.695   -17685244.939 6 -13533418.410 1
  17020457.109   -36563082.316 6 -26306850.422 2
  18388745.602   -15193597.986 6 -11768656.120 1
  16003898.641   -44787917.625 7 -33679582.361 3
  17350671.828   -16931746.925 6 -12982999.391 2
  19141593.500   -26910072.632 5 -20758856.432 1
 96  3  2 19  7 59.9840000  0  8 16 18 02 31 29 19 27 28
  19598983.734    -4592134.011 4  -3485698.066 1
  16035544.695   -37507101.038 7 -29122634.857 2
  18374471.789   -17821513.407 6 -13639601.567 1
  17008168.992   -36627668.461 6 -26357177.263 2
  18394148.500   -15165198.866 6 -11746526.980 1
  15988273.938   -44870021.017 7 -33743559.026 3
  17326206.102   -17060318.516 6 -13083185.020 2
  19140005.609   -26918409.518 5 -20765352.720 1
 96  3  2 19  8 29.9840000  0  8 16 18 02 31 29 19 27 28
  19580140.359    -4691163.575 4  -3562863.974 1
  16032797.281   -37521536.696 7 -29133883.419 3
  18348587.969   -17957540.581 6 -13745596.705 1
  16995984.250   -36691682.570 6 -26407058.363 2
  18399599.180   -15136557.331 6 -11724208.936 1
  15972687.195   -44951934.418 7 -33807387.642 3
  17301750.945   -17188824.956 6 -13183319.883 2
  19138503.094   -26926301.439 5 -20771502.272 1
 96  3  2 19  8 59.9840000  0  8 16 18 02 31 29 19 27 28
  19561390.328    -4789689.752 4  -3639637.625 1
  16030142.313   -37535491.636 7 -29144757.407 2
  18322752.508   -18093306.824 6 -13851388.528 1
  16983915.469   -36755104.532 6 -26456478.070 2
  18405098.641   -15107662.939 5 -11701693.864 1
  15957135.477   -45033660.873 7 -33871070.580 3
  17277310.742   -17317264.032 6 -13283402.257 2
  19137089.297   -26933740.812 5 -20777299.201 1
 96  3  2 19  9 29.9840000  0  8 16 18 02 31 29 19 27 28
  19542736.719    -4887718.093 4  -3716023.380 1
  16027574.719   -37548979.837 7 -29155267.699 3
  18296965.758   -18228810.000 6 -13956975.349 1
  16971962.547   -36817927.520 6 -26505431.022 2
  18410637.906   -15078533.754 5 -11678995.842 1
  15941617.102   -45115209.003 7 -33934614.571 3
  17252883.227   -17445638.390 6 -13383434.204 2
  19135762.125   -26940727.074 5 -20782743.057 1
 96  3  2 19  9 59.9840000  0  8 16 18 02 31 29 19 27 28
  19524171.695    -4985259.382 5  -3792029.554 1
  16025096.008   -37562009.847 7 -29165420.958 3
  18271230.484   -18364051.678 6 -14062358.425 1
  16960121.805   -36880161.202 6 -26553924.791 2
  18416223.734   -15049190.705 5 -11656131.168 1
  15926127.539   -45196595.587 7 -33998032.679 3
  17228462.899   -17573961.704 6 -13483426.375 2
  19134513.922   -26947273.521 5 -20787844.199 1
 96  3  2 19 10 29.9840000  0  8 16 18 02 31 29 19 27 28
  19505704.922    -5082304.080 4  -3867648.816 1
  16022704.320   -37574577.027 7 -29175213.569 2
  18245544.844   -18499030.083 6 -14167536.349 1
  16948391.922   -36941789.964 6 -26601947.193 2
  18421851.492   -15019611.334 5 -11633082.358 1
  15910672.891   -45277821.129 7 -34061325.299 3
  17204055.484   -17702221.878 6 -13583369.345 2
  19133351.820   -26953373.423 5 -20792597.373 1
 96  3  2 19 10 59.9840000  0  8 16 18 02 31 29 19 27 28
  19487335.524    -5178850.554 4  -3942879.833 1
  16020398.477   -37586693.538 7 -29184655.024 3
  18219907.867   -18633751.449 6 -14272513.987 1
  16936781.125   -37002810.033 6 -26649495.288 2
  18427523.633   -14989800.979 5 -11609853.570 1
  15895246.078   -45358884.310 7 -34124491.410 3
  17179664.281   -17830407.833 6 -13683254.487 2
  19132274.547   -26959031.727 5 -20797006.452 1
 96  3  2 19 11 29.9840000  0  8 16 18 02 31 29 19 27 28
  19469058.102    -5274884.142 4  -4017711.255 1
  16018181.508   -37598346.610 7 -29193735.348 3
  18194316.391   -18768227.698 6 -14377300.621 1
  16925286.055   -37063224.491 6 -26696571.478 2
  18433241.484   -14959766.644 5 -11586450.232 1
  15879856.930   -45439757.126 7 -34187509.175 3
  17155287.555   -17958508.241 6 -13783072.972 2
  19131284.875   -26964242.861 5 -20801067.091 1
 96  3  2 19 11 59.9840000  0  8 16 18 02 31 29 19 27 28
  19450879.328    -5370424.650 4  -4092158.457 1
  16016051.133   -37609537.994 7 -29202455.920 3
  18168769.805   -18902480.575 6 -14481913.207 1
  16913898.570   -37123048.437 6 -26743187.544 2
  18438998.055   -14929510.579 5 -11562874.129 1
  15864502.070   -45520450.305 7 -34250386.962 3
  17130924.289   -18086536.892 6 -13882835.539 2
  19130376.555   -26969023.820 5 -20804792.527 1
 96  3  2 19 12 29.9840000  0  8 16 18 02 31 29 19 27 28
  19432791.406    -5465475.644 4  -4166224.181 1
  16014008.734   -37620271.224 7 -29210819.482 2
  18143263.711   -19036522.805 6 -14586361.641 1
  16902628.117   -37182275.991 7 -26789338.872 2
  18444799.117   -14899027.450 5 -11539121.086 1
  15849184.070   -45600953.892 7 -34313117.023 3
  17106577.524   -18214479.718 6 -13982531.230 2
  19129548.094   -26973373.289 5 -20808181.734 1
 96  3  2 19 12 59.9840000  0  8 16 18 02 31 29 19 27 28
  19414797.992    -5560040.266 4  -4239910.919 1
  16012056.899   -37630528.294 7 -29218812.014 2
  18117796.328   -19170346.118 6 -14690639.490 1
  16891470.547   -37240905.200 7 -26835023.965 2
  18450642.664   -14868322.791 5 -11515195.418 1
  15833902.086   -45681254.732 7 -34375689.097 3
  17082247.813   -18342333.444 6 -14082157.497 2
  19128803.156   -26977286.136 5 -20811230.720 1
 96  3  2 19 13 29.9840000  0  8 16 18 02 31 29 19 27 28
  19396894.688    -5654117.618 4  -4313217.948 1
  16010198.453   -37640304.023 7 -29226429.470 2
  18092372.945   -19303951.196 6 -14794747.284 1
  16880430.977   -37298939.784 7 -26880245.721 2
  18456524.438   -14837399.401 5 -11491099.307 1
  15818657.734   -45761353.452 7 -34438103.675 3
  17057930.195   -18470111.904 6 -14181725.110 2
  19128140.008   -26980764.957 5 -20813941.505 1
 96  3  2 19 13 59.9840000  0  8 16 18 02 31 29 19 27 28
  19379090.695    -5747674.406 4  -4386119.323 1
  16008428.359   -37649593.516 7 -29233668.050 3
  18066997.852   -19437302.524 6 -14898657.342 1
  16869502.524   -37356354.374 7 -26924984.356 2
  18462459.016   -14806226.118 5 -11466808.489 1
  15803458.000   -45841247.990 7 -34500359.155 3
  17033633.367   -18597791.327 7 -14281215.550 2
  19127562.297   -26983794.335 5 -20816302.071 1
 96  3  2 19 14 29.9840000  0  8 16 18 02 31 29 19 27 28
  19361383.633    -5840712.970 4  -4458616.942 1
  16006748.383   -37658425.999 7 -29240550.514 2
  18041668.172   -19570410.522 6 -15002377.794 1
  16858693.508   -37413156.287 7 -26969245.584 2
  18468434.688   -14774830.143 5 -11442344.128 1
  15788289.297   -45920956.243 7 -34562469.478 3
  17009352.906   -18725389.816 7 -14380642.919 2
  19127067.719   -26986391.027 5 -20818325.481 1
 96  3  2 19 14 59.9840000  0  8 16 18 02 31 29 19 27 28
  19343783.336    -5933221.704 4  -4530701.681 1
  16005157.399   -37666787.320 7 -29247065.840 2
  18016388.227   -19703257.493 6 -15105894.847 1
  16848001.320   -37469341.023 7 -27013025.895 2
  18474449.594   -14743211.247 5 -11417706.076 1
  15773156.352   -46000478.345 7 -34624434.752 3
  16985086.852   -18852908.314 7 -14480007.967 2
  19126655.555   -26988549.179 5 -20820007.169 1
 96  3  2 19 15 29.9840000  0  8 16 18 02 31 29 19 27 28
  19326279.938    -6025199.819 4  -4602372.971 1
  16003651.914   -37674699.421 7 -29253231.121 2
  17991154.750   -19835849.259 6 -15209213.051 1
  16837429.563   -37524914.942 7 -27056330.250 2
  18480510.000   -14711371.838 5 -11392896.188 1
  15758054.828   -46079827.449 7 -34686265.211 3
  16960839.039   -18980338.954 7 -14579304.549 2
  19126330.555   -26990274.940 5 -20821351.927 1
 96  3  2 19 15 59.9840000  0  8 16 18 02 31 29 19 27 28
  19308877.297    -6116661.163 4  -4673641.539 1
  16002231.008   -37682166.716 7 -29259049.806 2
  17965973.688   -19968185.413 6 -15312332.066 1
  16826967.680   -37579876.687 7 -27099157.572 2
  18486608.852   -14679310.598 5 -11367913.446 1
  15742990.438   -46158998.002 7 -34747956.541 3
  16936608.797   -19107666.519 7 -14678520.813 2
  19126083.164   -26991572.684 5 -20822363.181 1
 96  3  2 19 16 29.9840000  0  8 16 18 02 31 29 19 27 28
  19291569.250    -6207622.406 5  -4744520.477 1
  16000898.461   -37689169.912 7 -29264506.848 2
  17940839.953   -20100271.043 6 -15415255.889 1
  16816625.609   -37634227.631 7 -27141508.945 2
  18492753.156   -14647035.751 5 -11342764.242 1
  15727963.024   -46237971.452 7 -34809494.292 3
  16912396.109   -19234895.553 7 -14777660.301 2
  19125917.930   -26992440.973 5 -20823039.799 1
 96  3  2 19 16 59.9830000  0  8 16 18 02 31 29 19 27 28
  19274355.964    -6298073.693 4  -4815002.021 1
  15999655.776   -37695701.921 7 -29269596.739 2
  17915753.659   -20232101.149 6 -15517980.569 1
  16806398.401   -37687972.391 7 -27183387.981 2
  18498936.120   -14614534.679 5 -11317438.769 1
  15712973.847   -46316734.248 7 -34870867.892 3
  16888208.347   -19362009.457 7 -14876710.078 2
  19125833.706   -26992877.239 5
 96  3  2 19 17 29.9830000  0  8 16 18 02 31 29 19 27 28
  19257240.792    -6388023.788 4  -4885093.003 1
  15998500.206   -37701773.117 7 -29274327.551 2
  17890711.933   -20363695.220 6 -15620521.347 1
  16796285.347   -37741115.709 7 -27224798.348 2
  18505167.276   -14581795.296 5 -11291927.590 1
  15698028.519   -46395278.170 7 -34932070.941 3
  16864039.425   -19489013.161 7 -14975673.983 2
  19125833.316   -26992890.044 5
 96  3  2 19 17 59.9830000  0  8 16 18 02 31 29 19 27 28
  19240218.573    -6477446.979 4  -4954773.436 1
  15997438.487   -37707354.019 7 -29278676.314 2
  17865717.081   -20495037.737 6 -15722866.098 1
  16786290.105   -37793645.227 7 -27265730.434 2
  18511443.378   -14548812.653 5 -11266226.881 1
  15683126.292   -46473580.271 7 -34993085.554 3
  16839894.034   -19615900.656 7 -15074547.342 2
  19125913.964   -26992469.604 5
 96  3  2 19 18 29.9830000  0  8 16 18 02 31 29 19 27 28
  19223305.566    -6566324.083 4  -5024028.340 1
  15996468.003   -37712449.153 7 -29282646.557 3
  17840770.026   -20626124.546 6 -15825011.610 1
  16776411.487   -37845562.261 7 -27306185.252 2
  18517765.261   -14515585.601 5 -11240335.706 1
  15668270.675   -46551647.277 7 -35053916.985 3
  16815770.417   -19742671.692 7 -15173329.948 2
  19126078.253   -26991608.579 5 -20822391.252 1
 96  3  2 19 18 59.9830000  0  8 16 18 02 31 29 19 27 28
  19206497.058    -6654672.853 3  -5092871.587 1
  15995583.901   -37717089.874 7 -29286262.713 3
  17815870.847   -20756975.843 6 -15926973.603 1
  16766643.612   -37896887.630 7 -27346179.043 2
  18524131.941   -14482137.623 5 -11214272.406 1
  15653454.706   -46629511.664 7 -35114590.529 3
  16791664.816   -19869344.152 7 -15272035.743 2
  19126320.722   -26990332.560 5 -20821396.992 1
 96  3  2 19 19 29.9830000  0  8 16 18 02 31 29 19 27 28
  19189776.214    -6742519.856 3  -5161323.800 1
  15994789.550   -37721275.892 7 -29289524.555 3
  17791017.566   -20887589.506 6 -16028750.425 1
  16756989.651   -37947620.449 6 -27385711.108 2
  18530533.261   -14448494.263 5 -11188056.849 1
  15638674.331   -46707180.826 7 -35175111.951 3
  16767579.019   -19995921.968 7 -15370667.787 2
  19126637.800   -26988651.137 5 -20820086.825 1
 96  3  2 19 19 59.9830000  0  8 16 18 02 31 29 19 27 28
  19173156.472    -6829872.659 4  -5229390.932 1
  15994078.800   -37724998.408 7 -29292425.229 3
  17766208.620   -21017949.080 6 -16130329.266 1
  16747447.511   -37997756.775 6 -27424778.372 2
  18536969.745   -14414672.207 5 -11161702.045 1
  15623932.269   -46784655.875 7 -35235482.116 3
  16743510.433   -20122410.068 7 -15469229.924 2
  19127037.456   -26986558.272 5 -20818456.062 1
 96  3  2 19 20 29.9830000  0  8 16 18 02 31 29 19 27 28
  19156619.925    -6916753.261 4  -5297090.117 1
  15993456.933   -37728266.860 7 -29294972.083 2
  17741451.878   -21148052.205 6 -16231708.270 1
  16738021.073   -38047287.463 7 -27463373.710 2
  18543440.831   -14380672.100 5 -11135208.541 1
  15609227.659   -46861933.987 7 -35295698.818 3
  16719456.917   -20248803.467 7 -15567718.271 2
  19127514.253   -26984055.511 5 -20816505.900 1
 96  3  2 19 20 59.9830000  0  8 16 18 02 31 29 19 27 28
  19140172.198    -7003191.555 4  -5364444.654 1
  15992922.847   -37731089.003 7 -29297171.163 3
  17716741.784   -21277914.270 6 -16332899.437 1
  16728711.823   -38096226.588 7 -27501508.089 2
  18549940.409   -14346511.000 5 -11108589.542 1
  15594555.769   -46939021.286 7 -35355766.840 3
  16695418.659   -20375122.056 7 -15666148.327 2
  19128067.425   -26981163.868 5 -20814252.703 1
 96  3  2 19 21 29.9830000  0  8 16 18 02 31 29 19 27 28
  19123798.784    -7089240.211 3  -5431495.569 1
  15992457.019   -37733531.107 7 -29299074.109 3
  17692063.222   -21407586.535 6 -16433942.712 1
  16719497.995   -38144628.874 6 -27539224.156 2
  18556460.995   -14312246.915 5 -11081890.346 1
  15579914.206   -47015967.403 7 -35415724.853 3
  16671386.823   -20501416.613 7 -15764559.663 2
  19128675.870   -26977941.327 5 -20811741.662 1
 96  3  2 19 21 59.9830000  0  8 16 18 02 31 29 19 27 28
  19107483.339    -7174998.214 4  -5498320.045 1
  15992039.183   -37735729.853 7 -29300787.433 3
  17667400.323   -21537193.845 6 -16534935.376 1
  16710370.316   -38192608.989 7 -27576611.264 2
  18562981.566   -14277988.697 5 -11055195.697 1
  15565274.925   -47092896.343 7 -35475669.486 3
  16647337.066   -20627800.949 7 -15863040.965 2
  19129329.519   -26974507.379 5 -20809065.902 1
 96  3  2 19 22 29.9830000  0  8 16 18 02 31 29 19 27 28
  19091203.175    -7260521.513 3  -5564961.590 1
  15991651.323   -37737765.622 7 -29302373.749 3
  17642732.636   -21666816.109 6 -16635939.672 1
  16701308.019   -38240223.648 7 -27613713.578 2
  18569486.784   -14243793.297 5 -11028550.000 1
  15550625.503   -47169884.589 7 -35535660.311 3
  16623259.651   -20754334.907 7 -15961638.827 2
  19130013.581   -26970934.232 5 -20806281.687 1
 96  3  2 19 22 59.9830000  0  8 16 18 02 31 29 19 27 28
  19075077.745    -7345275.652 3  -5631003.796 1
  15991392.636   -37739127.063 7 -29303434.631 2
  17618164.956   -21795924.992 6 -16736543.946 1
  16692414.683   -38286960.151 6 -27650131.638 2
  18576079.698   -14209156.625 5 -11001560.440 1
  15536061.105   -47246418.790 7 -35595297.356 3
  16599249.378   -20880498.164 7 -16059947.848 2
  19130814.964   -26966711.292 5 -20802991.114 1
 96  3  2 19 23 29.9830000  0  8 16 18 02 31 29 19 27 28
  19059045.886    -7429534.370 4  -5696659.936 1
  15991208.816   -37740095.938 7 -29304189.604 3
  17593641.862   -21924799.832 6 -16836965.835 1
  16683637.276   -38333094.267 7 -27686080.294 2
  18582698.316   -14174358.303 5 -10974444.929 1
  15521528.175   -47322786.608 7 -35654804.739 3
  16575258.292   -21006570.519 7 -16158186.030 2
  19131692.745   -26962120.220 5 -20799413.697 1
 96  3  2 19 23 59.9830000  0  8 16 18 02 31 29 19 27 28
  19043104.159    -7513305.117 4  -5761935.865 1
  15991099.605   -37740668.972 7
  17569160.448   -22053453.516 6 -16937215.412 1
  16674972.120   -38378627.382 7 -27721560.647 2
  18589355.386   -14139398.496 5 -10947203.589 1
  15507027.003   -47398990.808 7 -35714184.636 3
  16551282.589   -21132569.768 7 -16256367.261 2
  19132634.183   -26957163.282 5 -20795551.180 1
 96  3  2 19 24 29.9830000  0  8 16 18 02 31 29 19 27 28
  19027275.011    -7596485.641 4  -5826751.857 1
  15991083.847   -37740736.156 7
  17544738.237   -22181787.106 6 -17037215.547 1
  16666434.636   -38423478.971 7 -27756509.925 2
  18596055.776   -14104182.235 5 -10919762.409 1
  15492578.175   -47474929.294 7 -35773357.466 3
  16527336.441   -21258407.562 7 -16354422.661 2
  19133663.480   -26951745.165 5 -20791329.298 1
 96  3  2 19 24 59.9830000  0  8 16 18 02 31 29 19 27 28
  19011552.464    -7679103.417 4  -5891129.330 1
  15991165.706   -37740323.469 7
  17520374.245   -22309829.057 6 -17136988.439 1
  16658021.308   -38467708.243 7 -27790974.295 2
  18602799.495   -14068743.170 5 -10892147.622 1
  15478172.261   -47550619.865 7 -35832337.123 3
  16503412.206   -21384120.128 7 -16452380.488 2
  19134774.362   -26945898.761 5 -20786773.684 1
 96  3  2 19 25 29.9830000  0  8 16 18 02 31 29 19 27 28
  18995923.136    -7761237.598 4  -5955129.981 1
  15991321.058   -37739498.453 7
  17496042.128   -22437685.963 6 -17236617.141 1
  16649705.839   -38511394.060 6 -27825015.189 2
  18609573.761   -14033148.183 5 -10864411.339 1
  15463802.769   -47626137.809 7 -35891182.267 3
  16479498.636   -21509795.784 7 -16550309.555 2
  19135954.519   -26939700.291 5 -20781943.747 1
 96  3  2 19 25 59.9830000  0  2 02 19
  17471728.737   -22565457.510 6 -17336179.339 1
  15449448.831   -47701569.159 7 -35949959.944 3
 96  3  2 19 26 59.9830000  0  8 16 18 02 31 29 19 27 12
  18949689.870          -0.44614
  15992354.026          -0.84517
  17423356.855          -0.63416
  16625468.745          -0.11916
  18630146.417          -0.19915
  15420990.589          -0.05017
  16407921.909          -0.85817
  18621429.347          -0.72114
 96  3  2 19 27 29.9830000  0  8 16 18 02 31 29 19 27 12
  18934516.316      -79720.650 4        -0.26211
  15992920.526        2960.126 7        -0.25713
  17399266.136     -126589.012 6        -0.23711
  16617660.183      -41026.472 6        -0.49612
  18637116.050       36629.874 5        -0.40311
  15406849.808      -74315.437 7        -0.21013
  16384165.136     -124849.193 7        -0.32612
  18597168.761     -127467.599 4        -0.28711
 96  3  2 19 27 59.9830000  0  8 16 18 02 31 29 19 27 12
  18919432.261     -159010.417 4    -61784.492 1
  15993553.597        6294.280 7      2597.772 3
  17375219.276     -252959.436 6    -98470.653 1
  16609958.081      -81508.892 6    -31545.237 2
  18644107.886       73360.031 5     28620.396 1
  15392736.378     -148484.555 7    -57794.317 3
  16360429.917     -249586.925 7    -97198.544 2
  18572926.972     -254856.140 4    -99264.019 1
 96  3  2 19 28 29.9820000  0  8 16 18 02 31 29 19 27 12
  18904428.053     -237839.033 4   -123209.381 1
  15994264.912       10033.851 7      5511.713 2
  17351222.608     -379066.468 6   -196735.829 1
  16602361.787     -121415.690 6    -62641.440 2
  18651121.701      110222.271 5     57344.142 1
  15378655.326     -222474.222 7   -115448.601 3
  16336714.873     -374202.288 7   -194301.413 2
  18548708.389     -382136.647 4   -198443.548 1
 96  3  2 19 28 59.9820000  0  8 16 18 02 31 29 19 27 12
  18889524.412     -316162.642 4   -184240.709 1
  15995059.811       14212.586 7      8767.858 2
  17327279.420     -504892.666 6   -294782.172 1
  16594885.076     -160720.140 6    -93268.275 2
  18658169.670      147258.788 5     86203.663 1
  15364614.201     -296264.294 7   -172947.350 3
  16313026.139     -498684.127 7   -291300.228 2
  18524514.912     -509281.169 4   -297517.169 1
 96  3  2 19 29 29.9820000  0  8 16 18 02 31 29 19 27 12
  18874741.428     -393855.641 4   -244780.724 1
  15995956.068       18914.727 7     12431.866 2
  17303408.787     -630341.545 6   -392534.490 1
  16587536.928     -199329.419 6   -123353.419 2
  18665269.967      184571.161 5    115278.150 1
  15350632.733     -369739.320 7   -230200.605 3
  16289379.256     -622951.201 7   -388131.697 2
  18500358.748     -636187.812 3   -396405.425 1
 96  3  2 19 29 59.9820000  0  8 16 18 02 31 29 19 27 12
  18860065.279     -470981.879 4   -304879.089 1
  15996934.318       24062.265 7     16442.924 2
  17279590.498     -755495.325 6   -490056.884 1
  16580305.936     -237322.579 6   -152958.479 2
  18672406.404      222085.515 5    144510.016 1
  15336700.451     -442954.253 7   -287251.203 3
  16265754.990     -747099.888 7   -484870.921 2
  18476246.608     -762929.515 3   -495165.113 1
 96  3  2 19 30 29.9820000  0  8 16 18 02 31 29 19 27 12
  18845466.506     -547683.956 4   -364646.932 1
  15997970.865       29504.631 7     20683.717 2
  17255801.365     -880514.434 6   -587474.333 1
  16573166.787     -274841.421 6   -182193.944 2
  18679557.459      259645.551 5    173777.460 1
  15322789.045     -516058.266 7   -344215.369 3
  16242123.061     -871281.000 7   -581635.410 2
  18452133.068     -889647.764 3   -593906.532 1
 96  3  2 19 30 59.9820000  0  8 16 18 02 31 29 19 27 12
  18830963.389     -623908.322 4   -424042.546 1
  15999073.811       35300.248 7     25199.769 2
  17232047.537    -1005335.357 6   -684737.336 1
  16566135.834     -311801.290 6   -210993.840 2
  18686727.131      297325.284 5    203138.196 1
  15308910.795     -588984.315 7   -401040.858 3
  16218502.108     -995412.530 7   -678361.267 2
  18428032.615    -1016272.903 3   -692575.391 1
 96  3  2 19 31 29.9820000  0  8 16 18 02 31 29 19 27 12
  18816549.154     -699637.976 4   -483052.682 1
  16000249.240       41476.979 7     30012.794 2
  17208341.451    -1129922.600 6   -781818.268 1
  16559216.373     -348153.009 6   -239319.849 2
  18693924.100      335155.426 5    232616.125 1
  15295076.608     -661691.838 7   -457696.063 3
  16194898.490    -1119448.225 7   -775012.449 2
  18403966.342    -1142771.211 3   -791145.464 1
 96  3  2 19 31 59.9820000  0  8 16 18 02 31 29 19 27 12
  18802238.178     -774860.904 4   -541667.920 1
  16001505.318       48071.740 7     35151.559 2
  17184680.756    -1254246.968 6   -878694.351 2
  16552419.733     -383870.205 6   -267151.435 2
  18701154.404      373142.508 5    262216.352 1
  15281283.420     -734168.974 7   -514171.752 3
  16171321.818    -1243350.770 7   -871559.876 2
  18379921.420    -1269118.964 4   -889598.192 1
 96  3  2 19 32 29.9820000  0  8 16 18 02 31 29 19 27 12
  18788021.115     -849569.897 4   -599882.715 1
  16002843.764       55108.187 7     40634.493 2
  17161076.178    -1378291.051 6   -975352.038 1
  16545742.451     -418950.941 6   -294487.070 2
  18708417.850      411311.241 4    291958.104 1
  15267538.404     -806405.441 7   -570459.905 3
  16147773.756    -1367100.637 7   -967988.332 2
  18355907.858    -1395304.848 4   -987924.820 1
 96  3  2 19 32 59.9820000  0  8 16 18 02 31 29 19 27 12
  18773904.779     -923734.181 4   -657673.061 1
  16004272.279       62621.476 7     46488.994 2
  17137530.701    -1502017.979 6
  16539194.701     -453376.896 6   -321312.481 2
  18715723.084      449709.356 4    321878.621 1
  15253842.006     -878371.587 7   -626537.414 3
  16124258.381    -1490666.651 7
  18331930.943    -1521302.341 4  -1086104.656 1
 96  3  2 19 33 29.9820000  0  8 16 18 02 31 29 19 27 12
  18759891.545     -997383.206 4   -715061.902 1
  16005784.092       70566.065 7     52679.567 2
  17114038.100    -1625471.687 6
  16532755.865     -487204.826 6   -347671.906 2
  18723061.733      488272.265 4    351927.503 1
  15240193.084     -950102.063 7   -682431.287 3
  16100776.318    -1614073.774 7
  18307982.912    -1647152.469 4  -1184169.580 1
 96  3  2 19 33 59.9820000  0  1 18
  16007340.154       78745.927 7     59053.448 2
 96  3  2 19 34 29.9820000  0  8 16 18 02 31 29 19 27 12
  18732062.123      -72907.480 4
  16008962.272       87269.226 7     65694.987 2
  17067115.045     -123199.095 6
  16520118.389      -32963.004 6        -0.21812
  18737735.350       38615.130 4
  15212942.428      -71516.198 7
  16053806.334     -123375.373 7
  18260076.076     -125844.617 4
 96  3  2 19 34 59.9820000  0  8 16 18 02 31 29 19 27 12
  18718321.662     -145116.399 4        -0.38811
  16010697.029       96387.010 7     72799.741 2
  17043757.115     -245948.802 6        -0.04911
  16513991.584      -65151.470 6    -25082.144 2
  18745151.647       77570.666 4        -0.35711
  15199419.076     -142585.495 7        -0.25913
  16030396.733     -246389.728 7        -0.12612
  18236192.553     -251350.778 4        -0.10911
 96  3  2 19 35 29.9820000  0  8 16 18 02 31 29 19 27 12
  18704683.201     -216795.873 4    -55854.514 1
  16012515.365      105934.657 7     80239.448 2
  17020452.772     -368429.139 6    -95439.244 1
  16507982.865      -96732.749 6    -49690.947 2
  18752596.233      116675.904 4     30471.135 1
  15185949.514     -213363.441 7    -55151.914 3
  16007021.756     -369222.231 7    -95713.749 2
  18212344.740     -376689.094 4    -97666.247 1
 96  3  2 19 35 59.9820000  0  8 16 18 02 31 29 19 27 12
  18691133.404     -287993.549 4   -111333.224 1
  16014407.467      115875.274 7     87985.374 2
  16997186.881     -490685.742 6   -190704.089 2
  16502081.022     -127740.756 6    -73853.039 2
  18760061.193      155895.408 4     61031.651 1
  15172526.412     -283903.343 7   -110118.061 3
  15983669.233     -491945.939 7   -191342.593 2
  18188513.029     -501907.394 4   -195238.866 1
 96  3  2 19 36 29.9820000  0  8 16 18 02 31 29 19 27 12
  18677679.342     -358674.680 4   -166409.428 1
  16016378.475      126236.156 7     96058.776 2
  16973967.779     -612691.612 6   -285773.546 2
  16496296.873     -158138.778 6    -97539.819 2
  18767546.272      195252.031 4     91699.052 1
  15159151.490     -354191.535 7   -164888.077 3
  15960340.647     -614531.743 7   -286863.987 2
  18164711.592     -626979.788 4   -292697.754 1
 96  3  2 19 36 59.9820000  0  8 16 18 02 31 29 19 27 12
  18664321.615     -428859.925 4
  16018425.084      136994.311 7    104441.735 2
  16950799.006     -734462.531 6   -380659.934 2
  16490625.858     -187947.390 6   -120767.319 2
  18775060.850      234722.554 4    122455.170 1
  15145818.076     -424256.088 7
  15937034.397     -737002.846 7   -382295.994 2
  18140935.881     -751930.441 4   -390061.830 1
 96  3  2 19 37 29.9820000  0  8 16 18 02 31 29 19 27 12
  18651071.178     -498532.511 4
  16020550.693      148170.378 7    113150.341 2
  16927670.733     -855983.891 6   -475351.875 1
  16485066.850     -217159.967 6   -143530.384 2
  18782597.061      274321.894 4    153311.688 1
  15132527.233     -494104.316 7   -273911.018 3
  15913752.600     -859359.739 7   -477639.011 2
  18117181.600     -876755.401 4   -487327.944 1
 96  3  2 19 37 59.9820000  0  8 16 18 02 31 29 19 27 12
  18637907.123     -567680.630 4
  16022759.256      159768.062 7    122187.475 2
  16904602.545     -977226.764 6   -569826.792 2
  16479622.397     -245769.964 6   -165823.885 2
  18790166.998      314083.445 4    184294.582 1
  15119277.600     -563733.532 7   -328167.546 3
  15890494.420     -981577.116 7   -572873.311 2
  18093453.975    -1001439.982 4   -584484.674 1
 96  3  2 19 38 29.9820000  0  8 16 18 02 31 29 19 27 12
  18624847.256     -636329.105 4        -0.07311
  16025039.373      171751.466 7    131525.173 2
  16881582.584    -1098203.219 6   -664094.117 2
  16474285.936     -273815.686 6   -187677.703 2
  18797754.451      353992.489 4    215392.431 1
  15106065.139     -633157.323 7   -382264.009 3
  15867262.623    -1103659.074 7   -668002.090 2
  18069750.295    -1126002.771 4   -681546.502 1
 96  3  2 19 38 59.9820000  0  8 16 18 02 31 29 19 27 12
  18611874.022     -704485.280 4    -53108.821 1
  16027388.568      184103.066 7    141149.779 2
  16858609.865    -1218912.580 6   -758153.318 2
  16469053.951     -301309.334 6   -209101.327 2
  18805376.756      394040.725 3    246598.718 1
  15092895.420     -702368.425 7   -436194.737 3
  15844055.686    -1225612.111 7   -763030.409 2
  18046069.201    -1250449.556 4   -778517.967 1
 96  3  2 19 39 29.9820000  0  8 16 18 02 31 29 19 27 12
  18599004.326     -772134.096 4   -105822.201 1
  16029816.287      196853.433 7    151085.111 2
  16835694.225    -1339328.177 6   -851983.600 2
  16463929.436     -328241.342 6   -230087.299 2
  18813030.451      434247.437 4    277928.482 1
  15079770.084     -771342.971 7   -489941.132 3
  15820877.772    -1347416.977 7   -857943.266 2
  18022418.522    -1374759.455 4   -875382.755 1
 96  3  2 19 39 59.9810000  0  8 16 18 02 31 29 19 27 12
  18586234.571     -839239.611 4   -158112.232 1
  16032324.900      210040.450 7    161360.679 2
  16812843.931    -1459407.209 6   -945551.648 2
  16458914.454     -354582.382 6   -250612.782 2
  18820716.728      474636.462 4    309400.337 1
  15066701.368     -840023.476 7   -543458.405 3
  15797736.595    -1469028.650 7   -952705.590 2
  17998793.384    -1498888.512 4   -972106.610 1
 96  3  2 19 40 29.9810000  0  8 16 18 02 31 29 19 27 12
  18573556.407     -905866.498 4   -210029.319 1
  16034904.173      223595.438 7    171922.992 2
  16790043.032    -1579235.372 6  -1038924.197 2
  16454008.860     -380378.560 6   -270713.690 2
  18828420.595      515116.911 4    340943.396 1
  15053674.876     -908473.593 7   -596796.153 3
  15774619.821    -1590502.036 7  -1047360.160 2
  17975192.704    -1622907.129 3  -1068744.434 1
 96  3  2 19 40 59.9810000  0  8 16 18 02 31 29 19 27 12
  18560968.970     -972014.820 4   -261573.494 1
  16037556.735      237527.008 7    182778.745 2
  16767288.735    -1698807.656 6  -1132097.366 2
  16449203.860     -405617.819 6   -290380.638 1
  18836133.814      555675.788 4    372547.609 1
  15040691.587     -976696.974 7   -649957.226 3
  15751532.517    -1711822.905 7  -1141895.883 3
  17951619.032    -1746811.277 4  -1165293.054 1
 96  3  2 19 41 29.9810000  0  8 16 18 02 31 29 19 27 12
  18548475.493    -1037679.331 4   -312740.646 1
  16040278.853      251838.909 7    193930.854 2
  16744584.923    -1818129.333 6  -1225075.257 2
  16444511.017     -430285.040 6   -309601.843 2
  18843868.610      596310.133 4    404210.589 1
  15027751.696    -1044701.577 7   -702947.825 3
  15728477.392    -1832984.459 7  -1236307.466 3
  17928060.189    -1870595.803 4  -1261748.428 1
 96  3  2 19 41 59.9810000  0  8 16 18 02 31 29 19 27 12
  18536063.767    -1102866.149 4   -363535.598 1
  16043070.001      266502.127 6    205356.720 2
  16721918.634    -1937224.507 6  -1317876.658 2
  16439925.431     -454375.445 6   -328373.580 2
  18851613.525      637011.898 4    435926.109 1
  15014852.603    -1112485.666 7   -755766.590 3
  15705452.814    -1953982.709 7  -1330591.795 3
  17904525.782    -1994268.749 4  -1358116.893 1
 96  3  2 19 42 29.9810000  0  8 16 18 02 31 29 19 27 12
  18523752.298    -1167584.935 4   -413965.849 1
  16045925.040      281504.316 7    217046.718 2
  16699296.204    -2056100.172 6  -1410507.013 2
  16435451.259     -477891.892 6   -346698.086 2
  18859374.915      677794.025 4    467704.252 1
  15001996.196    -1180050.837 7   -808414.770 3
  15682458.439    -2074814.590 7  -1424746.492 3
  17881016.032    -2117832.896 4  -1454400.566 1
 96  3  2 19 42 59.9810000  0  8 16 18 02 31 29 19 27 12
  18511530.454    -1231814.932 4   -464015.209 1
  16048850.571      296877.434 6    229025.742 2
  16676723.642    -2174732.474 6  -1502947.732 2
  16431085.900     -500840.998 6   -364580.499 2
  18867158.540      718693.499 4    499573.875 1
  14989184.001    -1247371.549 7   -860872.460 3
  15659493.954    -2195491.691 7  -1518780.578 3
  17857523.103    -2241271.071 4  -1550586.081 1
 96  3  2 19 43 29.9810000  0  8 16 18 02 31 29 19 27 12
  18499402.306    -1295540.138 4   -513671.254 1
  16051846.696      312618.547 6    241291.516 2
  16654194.025    -2293129.213 6  -1595204.894 2
  16426824.040     -523231.646 6   -382027.758 2
  18874964.595      759719.832 4    531542.288 1
  14976425.025    -1314424.802 7   -913121.739 3
  15636557.298    -2316028.027 7  -1612704.977 3
  17834057.759    -2364581.577 4  -1646672.148 1
 96  3  2 19 43 59.9810000  0  8 16 18 02 31 29 19 27 12
  18487373.931    -1358759.706 4   -562933.294 1
  16054912.079      328729.320 6    253845.340 2
  16631707.814    -2411286.965 6  -1687275.838 2
  16422665.306     -545082.839 6   -399054.664 2
  18882795.704      800879.444 4    563614.570 1
  14963717.610    -1381201.742 7   -965155.718 3
  15613646.321    -2436424.126 7  -1706520.103 3
  17810615.642    -2487766.965 4  -1742660.686 1
 96  3  2 19 44 29.9810000  0  8 16 18 02 31 29 19 27 12
  18475439.985    -1421475.720 4   -611802.930 1
  16058045.603      345200.122 6    266679.697 2
  16609270.048    -2529204.672 6  -1779159.743 2
  16418606.446     -566409.124 6   -415672.558 2
  18890649.743      842152.164 4    595774.979 1
  14951059.181    -1447721.563 7  -1016989.338 3
  15590757.821    -2556702.953 7  -1800243.845 3
  17787196.212    -2610840.670 5  -1838562.190 1
 96  3  2 19 44 59.9810000  0  8 16 18 02 31 29 19 27 12
  18463605.485    -1483668.723 4   -660265.040 1
  16061250.673      362046.980 6    279807.091 2
  16586881.360    -2646858.223 6  -1870837.804 2
  16414653.454     -587185.722 6   -431862.126 2
  18898532.329      883551.939 4    628034.400 1
  14938451.079    -1513975.933 7  -1068616.117 3
  15567893.837    -2676848.368 7  -1893863.635 3
  17763801.173    -2733788.628 5  -1934365.749 1
 96  3  2 19 45 29.9810000  0  8 16 18 02 31 29 19 27 12
  18451868.657    -1545339.488 4   -708320.209 1
  16064528.806      379270.285 6    293227.830 2
  16564543.775    -2764226.844 6  -1962293.851 2
  16410810.298     -607382.365 6   -447599.775 2
  18906430.712      925078.566 3    660392.663 1
  14925894.579    -1579964.268 7  -1120035.593 3
  15545062.798    -2796837.975 7  -1987362.015 3
  17740430.946    -2856603.114 5  -2030065.262 1
 96  3  2 19 45 59.9810000  0  8 16 18 02 31 29 19 27 12
  18440223.056    -1606534.585 4   -756004.737 1
  16067873.384      396844.049 6    306921.636 2
  16542261.001    -2881323.010 6  -2053537.590 2
  16407076.454     -627003.346 6   -462888.861 2
  18914353.181      966698.079 3    692823.300 1
  14913381.462    -1645723.378 7  -1171276.452 3
  15522257.665    -2916677.813 7  -2080743.692 3
  17717078.954    -2979306.421 5  -2125678.159 1
 96  3  2 19 46 29.9810000  0  8 16 18 02 31 29 19 27 12
  18428662.860    -1667275.987 4   -803335.733 1
  16071284.642      414765.425 6    320886.320 2
  16520032.806    -2998143.928 6  -2144566.851 2
  16403454.939     -646043.541 6   -477725.389 2
  18922284.767     1008399.608 3    725317.838 1
  14900909.259    -1711254.965 7  -1222340.026 3
  15499479.634    -3036369.540 7  -2174009.954 3
  17693751.392    -3101899.949 5  -2221205.529 1
 96  3  2 19 46 59.9810000  0  8 16 18 02 31 29 19 27 12
  18417191.048    -1727579.622 4   -850325.604 1
  16074764.517      433053.985 6    335137.108 2
  16497854.892    -3114691.904 6  -2235383.431 2
  16399937.548     -664515.854 6   -492119.412 2
  18930236.681     1050185.558 3    757878.154 1
  14888484.634    -1776554.065 7  -1273222.434 3
  15476734.064    -3155905.556 7  -2267154.887 3
  17670442.407    -3224378.757 5  -2316643.504 1
 96  3  2 19 47 29.9810000  0  8 16 18 02 31 29 19 27 12
  18405799.150    -1787440.828 4   -896970.743 1
  16078314.775      451707.567 6    349672.324 2
  16475728.165    -3230973.504 6  -2325992.449 2
  16396528.071     -682430.264 6   -506078.704 2
  18938205.501     1092040.849 3    790492.497 1
  14876105.189    -1841610.907 7  -1323916.075 3
  15454017.790    -3275276.911 7  -2360171.516 3
  17647160.517    -3346739.716 5  -2411989.679 1
 96  3  2 19 47 59.9810000  0  8 16 18 02 31 29 19 27 12
  18394493.368    -1846856.256 4   -943268.523 1
  16081932.056      470717.064 6    364484.882 2
  16453645.970    -3347007.297 6  -2416408.372 2
  16393221.071     -699815.521 6   -519625.660 2
  18946184.376     1133966.134 3    823161.351 1
  14863769.423    -1906430.700 7  -1374425.003 3
  15431337.056    -3394472.140 7  -2453050.900 3
  17623895.493    -3468985.617 5  -2507246.212 1
 96  3  2 19 48 29.9810000  0  8 16 18 02 31 29 19 27 12
  18383269.946    -1905806.815 4   -989204.054 1
  16085616.446      490085.115 6    379576.845 2
  16431610.376    -3462803.355 6  -2506639.047 2
  16390008.220     -716700.503 6   -532782.806 1
  18954178.134     1175966.552 3    855888.818 1
  14851480.009    -1971013.242 7  -1424749.068 3
  15408686.610    -3513499.148 7  -2545799.198 3
  17600654.876    -3591120.240 5  -2602416.028 1
 96  3  2 19 48 59.9810000  0  8 16 18 02 31 29 19 27 12
  18372153.931    -1964262.260 4  -1034753.759 1
  16089367.314      509798.887 6    394938.209 2
  16409618.618    -3578359.770 6  -2596682.986 2
  16386892.431     -733071.924 6   -545539.760 2
  18962185.962     1218052.837 3    888683.144 1
  14839237.165    -2035348.965 7  -1474880.791 3
  15386072.665    -3632339.245 7  -2638401.864 3
  17577436.282    -3713135.470 5  -2697492.780 1
 96  3  2 19 49 29.9810000  0  8 16 18 02 31 29 19 27 12
  18361117.165    -2022210.794 3  -1079908.497 1
  16093181.032      529840.281 6    410554.856 2
  16387676.368    -3693676.315 6  -2686540.002 2
  16383874.892     -748916.318 6   -557886.050 2
  18970208.759     1260226.313 3    921545.452 1
  14827043.446    -2099431.410 7  -1524815.165 3
  15363493.298    -3750989.929 7  -2730856.932 3
  17554239.173    -3835031.614 5  -2792476.732 1
 96  3  2 19 49 59.9810000  0  8 16 18 02 31 29 19 27 12
  18350190.915    -2079651.537 3  -1124667.541 1
  16097060.775      550222.701 6    426437.226 2
  16365779.900    -3808746.546 6  -2776205.095 2
  16380964.556     -764219.545 6   -569810.647 2
  18978251.110     1302493.746 3    954480.937 1
  14814896.985    -2163256.137 7  -1574548.716 3
  15340949.384    -3869453.983 7  -2823166.568 3
  17531070.564    -3956803.984 5  -2887364.255 1
 96  3  2 19 50 29.9810000  0  8 16 18 02 31 29 19 27 12
  18339357.892    -2136608.091 3  -1169049.344 1
  16100999.985      570922.937 6    442567.258 2
  16343928.126    -3923586.776 6  -2865690.957 2
  16378157.071     -778978.903 6   -581311.448 1
  18986305.235     1344824.991 3    987466.171 1
  14802799.946    -2226829.225 7  -1624086.182 3
  15318434.407    -3987765.056 7  -2915357.004 3
  17507916.079    -4078471.539 5  -2982170.134 1
 96  3  2 19 50 59.9810000  0  8 16 18 02 31 29 19 27 12
  18328609.681    -2193069.172 3  -1213045.009 1
  16105003.837      591962.737 6    458961.882 2
  16322120.720    -4038175.945 6  -2954981.193 2
  16375456.329     -793163.853 6   -592364.661 1
  18994378.868     1387224.131 3   1020504.308 1
  14790753.798    -2290134.117 7  -1673414.670 3
  15295956.353    -4105902.189 7  -3007411.902 3
  17484786.407    -4200014.434 5  -3076878.819 1
 96  3  2 19 51 29.9800000  0  8 16 18 02 31 29 19 27 12
  18317954.465    -2249067.533 4  -1256680.145 1
  16109072.152      613345.567 6    475623.804 2
  16300358.770    -4152539.406 6  -3044095.553 2
  16372859.168     -806808.412 6   -602996.773 2
  19002453.965     1429659.311 4
  14778752.613    -2353199.236 7  -1722556.321 3
  15273501.731    -4223896.820 7  -3099355.758 3
  17461675.606    -4321454.990 5  -3171507.780 1
 96  3  2 19 51 59.9800000  0  8 16 18 02 31 29 19 27 12
  18307383.371    -2304603.645 3  -1299955.098 1
  16113208.059      635076.818 6    492557.224 2
  16278639.277    -4266679.983 6  -3133036.233 2
  16370364.652     -819920.738 6   -613214.180 1
  19010536.176     1472134.402 3
  14766796.488    -2416028.829 7  -1771514.440 3
  15251074.832    -4341749.052 7  -3191188.652 3
  17438586.981    -4442797.895 5  -3266060.681 1
 96  3  2 19 52 29.9800000  0  8 16 18 02 31 29 19 27 12
  18296906.395    -2359670.559 3  -1342864.415 1
  16117408.168      657150.792 6    509757.708 2
  16256961.770    -4380581.977 6  -3221791.003 2
  16367971.113     -832509.399 6   -623023.525 1
  19018625.129     1514658.986 4
  14754887.754    -2478612.514 7  -1820280.945 3
  15228679.902    -4459439.053 7  -3282895.138 3
  17415518.676    -4564033.114 5  -3360529.662 1
 96  3  2 19 52 59.9800000  0  8 16 18 02 31 29 19 27 12
  18286518.918    -2414255.295 3  -1385398.010 1
  16121676.129      679579.482 6    527234.591 2
  16235336.449    -4494240.438 6  -3310356.003 2
  16365672.395     -844581.920 6   -632430.686 1
  19026730.660     1557239.571 3
  14743026.777    -2540940.500 7  -1868848.202 3
  15206319.473    -4576943.916 7  -3374457.352 3
  17392465.176    -4685151.640 5  -3454907.712 1
 96  3  2 19 53 29.9800000  0  8 16 18 02 31 29 19 27 12
  18276220.113    -2468368.249 3  -1427563.960 1
  16126004.910      702331.653 6    544963.527 1
  16213749.449    -4607665.644 6  -3398739.257 2
  16363473.317     -856146.116 6   -641441.751 1
  19034846.910     1599868.222 3
  14731213.410    -2603015.274 7  -1917218.155 3
  15183992.770    -4694272.668 7  -3465882.340 3
  17369438.871    -4806165.106 5  -3549203.942 1
 96  3  2 19 53 59.9800000  0  8 16 18 02 31 29 19 27 12
  18266017.668    -2522009.385 3  -1469362.318 1
  16130392.848      725384.224 6    562926.565 1
  16192213.965    -4720844.873 6  -3486930.834 2
  16361369.262     -867201.773 6   -650056.548 1
  19042964.152     1642546.392 3
  14719450.512    -2664826.856 7  -1965383.025 3
  15161701.738    -4811406.860 7  -3557155.720 3
  17346431.856    -4927070.299 5  -3643415.792 1
 96  3  2 19 54 29.9800000  0  8 16 18 02 31 29 19 27 12
  18255899.051    -2575173.519 3  -1510788.976 1
  16134838.449      748751.752 6    581135.021 1
  16170724.356    -4833773.398 6  -3574927.064 2
  16359365.402     -877731.469 6   -658261.510 1
  19051098.512     1685280.128 3
  14707742.168    -2726362.869 7  -2013333.160 3
  15139450.496    -4928339.384 7  -3648271.960 3
  17323446.559    -5047859.801 5  -3737537.445 1
 96  3  2 19 54 59.9800000  0  7 16 18 02 31 19 27 12
  18245870.824    -2627866.577 4  -1551848.535 1
  16139345.106      772427.819 6    599583.890 1
  16149278.465    -4946457.068 6  -3662732.492 2
  16357461.270     -887732.384 6   -666054.430 1
  14696083.317    -2787629.458 7  -2061073.359 3
  15117235.496    -5045087.619 7  -3739244.595 3
  17300483.520    -5168543.716 5  -3831576.848 1
 96  3  2 19 55 29.9800000  0  8 16 18 02 31 07 19 27 12
  18235930.699    -2680095.543 4  -1592546.506 1
  16143909.137      796415.231 6    618275.362 1
  16127890.606    -5058869.841 6  -3750326.832 2
  16355661.043     -897194.896 6   -673427.822 1
  18852246.692          -0.44615
  14684475.168    -2848634.206 7  -2108609.534 3
  15095051.207    -5161660.410 7  -3830080.522 3
  17277536.434    -5289115.875 5  -3925529.165 1
 96  3  2 19 55 59.9800000  0  8 16 18 02 31 07 19 27 12
  18226079.840    -2731864.684 4  -1632886.158 1
  16148536.684      820729.853 6    637221.808 1
  16106552.543    -5171004.853 6  -3837704.734 2
  16353961.926     -906122.045 6   -680384.046 1
  18818712.824     -176242.913 5
  14672916.004    -2909371.861 7  -2155937.575 3
  15072902.473    -5278049.951 7  -3920773.656 3
  17254614.340    -5409570.482 5  -4019389.876 1
 96  3  2 19 56 29.9800000  0  8 16 18 02 31 07 19 27 12
  18216317.637    -2783174.361 4  -1672867.772 1
  16153225.723      845377.675 6    656427.883 1
  16085264.863    -5282862.118 7  -3924866.216 2
  16352362.527     -914515.222 6   -686924.178 1
  18785168.668     -352486.938 4
  14661411.379    -2969838.457 7  -2203054.413 3
  15050786.488    -5394269.034 7  -4011333.970 3
  17231717.012    -5529912.856 5  -4113163.135 1
 96  3  2 19 56 59.9800000  0  8 16 18 02 31 07 19 27 12
  18206634.301    -2834045.813 4  -1712507.886 1
  16157974.184      870332.580 6    675873.244 1
  16064032.520    -5394437.805 6  -4011808.286 2
  16350866.668     -922392.659 6   -693062.448 1
  18751633.856     -528730.232 4
  14649953.582    -3030040.407 7  -2249965.021 3
  15028703.723    -5510321.548 7  -4101764.482 3
  17208836.426    -5650151.860 5  -4206855.844 1
 96  3  2 19 57 29.9800000  0  8 16 18 02 31 07 19 27 12
  18197036.410    -2884487.984 4  -1751813.575 1
  16162780.434      895584.737 6    695550.236 1
  16042852.168    -5505739.930 6  -4098537.197 2
  16349463.074     -929758.908 6   -698802.397 2
  18718093.613     -704981.228 4        -0.08611
  14638548.371    -3089982.023 7  -2296672.783 3
  15006653.981    -5626197.290 7  -4192057.255 3
  17185971.152    -5770291.708 5  -4300471.331 1
 96  3  2 19 57 59.9800000  0  8 16 18 02 31 07 19 27 12
  18187525.488    -2934483.335 4  -1790771.056 1
  16167643.027      921139.183 6    715462.766 1
  16021721.738    -5616779.865 6  -4185061.800 2
  16348157.340     -936619.930 6   -704148.681 1
  18684551.488     -881242.270 3   -137346.115 1
  14627195.574    -3149638.672 7  -2343158.486 3
  14984640.410    -5741879.169 7  -4282198.966 3
  17163125.895    -5890330.971 5  -4394008.373 1
 96  3  2 19 58 29.9800000  0  8 16 18 02 31 07 19 27 12
  18178098.957    -2984028.964 4  -1829378.101 1
  16172565.067      947002.563 6    735616.024 1
  16000642.090    -5727551.481 6  -4271377.323 2
  16346948.270     -942976.557 6   -709101.895 1
  18651007.785    -1057503.646 3   -274692.405 1
  14615896.356    -3209011.811 7  -2389423.275 3
  14962663.582    -5857363.919 7  -4372187.066 3
  17140304.207    -6010263.853 5  -4487462.572 1
 96  3  2 19 58 59.9800000  0  8 16 18 02 31 07 19 27 12
  18168754.981    -3033131.972 4  -1867640.231 1
  16177544.254      973168.251 6    756004.841 1
  15979611.652    -5838077.247 7  -4357501.281 2
  16345834.254     -948830.894 6   -713663.734 2
  18617464.543    -1233776.692 3   -412047.780 1
  14604650.988    -3268112.182 7  -2435475.519 3
  14940723.965    -5972648.261 7  -4462019.000 3
  17117504.246    -6130087.214 5  -4580831.387 1
 96  3  2 19 59 29.9800000  0  8 16 18 02 31 07 19 27 12
  18159490.574    -3081794.634 4  -1905559.262 1
  16182583.574      999637.735 6    776630.391 1
  15958621.442    -5948387.619 7  -4443457.395 2
  16344811.496     -954204.029 6   -717850.603 1
  18583918.160    -1410072.315 3   -549420.781 1
  14593452.285    -3326959.119 7  -2481330.279 3
  14918822.598    -6087743.153 7  -4551703.320 3
  17094722.160    -6249809.015 5  -4674121.078 1
 96  3  2 19 59 59.9800000  0  8 16 18 02 31 07 19 27 12
  18150316.371    -3130012.230 4  -1943131.493 1
  16187677.684     1026415.031 6    797495.787 1
  15937670.488    -6058486.267 7  -4529248.529 2
  16343879.098     -959104.919 6   -721669.500 1
  18550365.840    -1586380.401 3   -686803.434 1
  14582302.613    -3385548.862 7  -2526984.632 3
  14896957.910    -6202638.328 7  -4641232.012 3
  17071960.918    -6369422.647 5  -4767326.475 1
 96  3  2 20  0 29.9800000  0  8 16 18 02 31 07 19 27 12
  18141224.652    -3177806.266 4  -1980373.674 1
  16192826.410     1053468.274 6    818576.210 1
  15916754.949    -6168392.405 7  -4614889.638 2
  16343036.527     -963529.795 6   -725117.470 1
  18516816.215    -1762704.979 3   -824198.957 1
  14571197.895    -3443903.587 7  -2572455.851 3
  14875131.356    -6317342.303 7  -4730611.717 3
  17049218.574    -6488940.227 5  -4860457.042 1
 96  3  2 20  0 59.9800000  0  8 16 18 02 31 07 19 27 12
  18132212.027    -3225163.476 4  -2017275.408 1
  16198020.723     1080782.452 6    839859.960 1
  15895876.504    -6278104.889 7  -4700379.865 2
  16342286.559     -967472.499 6   -728189.721 1
  18483258.090    -1939035.616 4   -961599.184 1
  14560141.965    -3502008.188 7  -2617732.169 3
  14853342.426    -6431848.717 7  -4819837.484 3
  17026492.817    -6608362.466 5  -4953513.304 1
 96  3  2 20  1 29.9800000  0  8 16 18 02 31 07 19 27 12
  18123282.340    -3272075.595 4  -2053830.361 1
  16203269.067     1108352.473 6    861343.065 1
  15875039.871    -6387600.168 7  -4785700.833 2
  16341628.699     -970933.516 6   -730886.630 1
  18449707.324    -2115362.280 4  -1098996.371 1
  14549133.723    -3559856.644 7  -2662808.891 3
  14831590.723    -6546152.992 7  -4908905.735 3
  17003784.981    -6727694.182 5  -5046499.036 1
 96  3  2 20  1 59.9800000  0  8 16 18 02 31 07 19 27 12
  18114441.981    -3318535.578 4  -2090032.978 1
  16208564.418     1136179.634 6    883026.538 1
  15854246.692    -6496857.105 7  -4870836.089 2
  16341066.762     -973885.373 6   -733186.797 1
  18416157.832    -2291665.248 3  -1236375.082 1
  14538178.270    -3617422.897 7  -2707665.711 3
  14809882.043    -6660243.474 7  -4997807.396 3
  16981096.465    -6846930.177 5  -5139410.171 1
 96  3  2 20  2 29.9800000  0  8 16 18 02 31 07 19 27 12
  18105686.856    -3364538.954 4  -2125879.803 1
  16213910.082     1164277.111 6    904920.648 1
  15833507.637    -6605855.129 7  -4955769.583 2
  16340602.918     -976322.468 6   -735085.848 1
  18382614.246    -2467918.312 3  -1373714.941 1
  14527279.668    -3674700.724 7  -2752297.784 3
  14788209.824    -6774127.058 7  -5086547.844 3
  16958422.699    -6966065.761 5  -5232243.039 1
 96  3  2 20  2 59.9790000  0  8 16 18 02 31 07 19 27 12
  18097024.538    -3410078.718 4  -2161365.372 1
  16219315.038     1192665.890 6    927041.744 1
  15812818.687    -6714582.105 7  -5040491.887 2
  16340234.632     -978260.362 6   -736595.909 1
  18349087.077    -2644123.550 3  -1511017.484 1
  14516434.179    -3731694.819 7  -2796708.767 3
  14766574.780    -6887805.016 7  -5175128.059 3
  16935772.562    -7085096.463 5  -5324994.220 1
 96  3  2 20  3 29.9790000  0  8 16 18 02 31 07 19 27 12
  18088439.601    -3455179.614 4  -2196508.952 1
  16224772.304     1221349.244 6    949392.378 1
  15792175.804    -6823062.398 7  -5125021.948 2
  16339955.460     -979712.842 6   -737727.719 1
  18315555.218    -2820310.140 4  -1648305.548 1
  14505638.382    -3788422.819 7  -2840912.402 3
  14744980.187    -7001287.900 7  -5263556.266 3
  16913140.569    -7204038.487 5  -5417676.280 1
 96  3  2 20  3 59.9790000  0  8 16 18 02 31 07 19 27 12
  18079941.327    -3499850.257 4  -2231317.315 1
  16230288.460     1250334.847 6    971978.535 1
  15771574.999    -6931305.785 7  -5209367.415 2
  16339769.116     -980693.618 6   -738491.966 1
  18282035.296    -2996466.172 4  -1785569.808 1
  14494891.491    -3844894.981 7  -2884916.682 3
  14723425.038    -7114572.840 7  -5351830.232 3
  16890522.030    -7322888.349 5  -5510286.547 1
 96  3  2 20  4 29.9790000  0  8 16 18 02 31 07 19 27 12
  18071524.757    -3544080.518 4  -2265782.477 1
  16235861.249     1279626.231 6    994802.954 1
  15751022.609    -7039309.673 7  -5293526.272 2
  16339671.546     -981216.560 6   -738899.465 1
  18248516.109    -3172599.650 4  -1922816.489 1
  14484193.382    -3901120.956 7  -2928729.134 3
  14701904.812    -7227656.126 7  -5439947.078 3
  16867927.655    -7441636.128 5  -5602817.238 1
 96  3  2 20  4 59.9790000  0  8 16 18 02 31 07 19 27 12
  18063189.765    -3587878.328 4  -2299910.685 1
  16241490.468     1309205.549 6   1017851.740 1
  15730518.023    -7147081.183 7  -5377504.046 2
  16339660.976     -981278.140 6
  18214997.765    -3348739.632 4  -2060068.266 1
  14473541.476    -3957091.451 7  -2972342.508 3
  14680424.648    -7340529.012 7  -5527899.959 3
  16845349.155    -7560285.480 5  -5695271.239 1
 96  3  2 20  5 29.9790000  0  8 16 18 02 31 07 19 27 12
  18054934.929    -3631251.978 4  -2333708.367 1
  16247172.421     1339060.962 6   1041115.668 1
  15710050.687    -7254616.075 7  -5461297.447 2
  16339732.202     -980888.913 6
  18181483.015    -3524860.047 5  -2197304.775 1
  14462942.921    -4012793.509 7  -3015746.709 3
  14658990.616    -7453176.776 7  -5615677.426 3
  16822786.609    -7678834.949 5  -5787647.408 1
 96  3  2 20  5 59.9790000  0  8 16 18 02 31 07 19 27 12
  18046762.491    -3674208.407 4  -2367180.940 1
  16252905.069     1369184.371 6   1064588.421 1
  15689633.663    -7361908.870 7  -5544902.201 2
  16339893.702     -980049.369 6   -737989.974 1
  18147971.601    -3700962.280 4  -2334527.161 1
  14452393.234    -4068230.125 7  -3058944.070 3
  14637594.734    -7565609.307 7  -5703287.179 3
  16800243.210    -7797289.800 5  -5879949.849 1
 96  3  2 20  6 29.9790000  0  8 16 18 02 31 07 19 27 12
  18038664.444    -3716753.462 4  -2400332.979 1
  16258684.734     1399563.898 6   1088260.752 1
  15669266.304    -7468958.533 7  -5628317.504 2
  16340139.859     -978748.230 6   -736976.110 1
  18114462.835    -3877062.761 5  -2471748.171 1
  14441897.648    -4123383.636 7  -3101920.830 3
  14616239.202    -7677827.704 7  -5790730.073 3
  16777723.148    -7915652.713 5  -5972180.652 1
 96  3  2 20  6 59.9790000  0  8 16 18 02 31 07 19 27 12
  18030646.593    -3758882.929 4  -2433161.157 1
  16264517.601     1430212.359 6   1112142.641 1
  15648941.609    -7575751.367 7  -5711532.680 2
  16340482.866     -976970.974 6   -735591.232 1
  18080958.148    -4053140.119 5  -2608951.164 1
  14431461.398    -4178229.985 7  -3144658.243 3
  14594932.405    -7789809.802 7  -5877988.843 3
  16755215.343    -8033917.343 5  -6064334.878 1
 96  3  2 20  7 29.9790000  0  8 16 18 02 31 07 19 27 12
  18022707.765    -3800601.620 4  -2465669.260 1
  16270400.155     1461122.836 6   1136228.697 1
  15628667.194    -7682299.823 7  -5794557.431 2
  16340904.991     -974726.119 6   -733841.998 1
  18047456.382    -4229180.273 5  -2746125.193 1
  14421079.937    -4232783.011 7  -3187167.095 3
  14573663.179    -7901570.717 7  -5965075.264 3
  16732730.437    -8152091.413 5  -6156418.524 1
 96  3  2 20  7 59.9790000  0  8 16 18 02 31 07 19 27 12
  18014846.726    -3841907.716 4  -2497855.872 1
  16276328.101     1492279.618 6   1160506.683 1
  15608437.468    -7788613.181 7  -5877398.986 2
  16341425.171     -972002.685 6   -731719.844 1
  18013959.148    -4405210.105 5  -2883291.180 1
  14410753.671    -4287048.975 7  -3229452.262 3
  14552433.898    -8013133.077 7  -6052006.965 3
  16710258.140    -8270182.451 5  -6248437.505 1
 96  3  2 20  8 29.9790000  0  8 16 18 02 31 07 19 27 12
  18007069.788    -3882786.449 4  -2529709.474 1
  16282305.437     1523684.636 6   1184978.084 1
  15588249.640    -7894688.182 7  -5960054.821 2
  16342032.788     -968808.273 6   -729230.693 1
  17980469.812    -4581205.994 5  -3020430.734 1
  14400483.663    -4341013.623 7  -3271502.637 3
  14531244.741    -8124483.218 7  -6138773.304 3
  16687804.968    -8388180.675 5  -6340384.136 1
 96  3  2 20  8 59.9790000  0  8 16 18 02 31 07 19 27 12
  17999369.241    -3923245.163 4  -2561235.792 1
  16288326.132     1555321.390 6   1209630.070 1
  15568111.944    -8000529.756 7  -6042528.757 2
  16342727.374     -965158.234 6   -726386.509 1
  17946989.335    -4757144.824 5  -3157525.819 1
  14390270.241    -4394686.450 7  -3313325.621 3
  14510092.616    -8235632.331 7  -6225383.001 3
  16665367.734    -8506090.718 5  -6432262.054 1
 96  3  2 20  9 29.9790000  0  8 16 18 02 31 07 19 27 12
  17991753.421    -3963291.644 4  -2592440.871 1
  16294388.710     1587186.542 6   1234460.025 1
  15548008.593    -8106150.443 7  -6124830.569 2
  16343506.304     -961055.734 6   -723189.761 1
  17913520.773    -4933011.882 5  -3294565.000 1
  14380110.624    -4448080.247 7  -3354931.174 3
  14488979.929    -8346592.841 7  -6311845.728 3
  16642949.773    -8623912.180 5  -6524070.953 1
 96  3  2 20  9 59.9790000  0  8 16 18 02 31 07 19 27 12
  17984206.749    -4002930.362 4  -2623328.220 1
  16300499.359     1619292.128 6   1259477.322 1
  15527954.523    -8211553.816 7  -6206963.051 2
  16344371.991     -956515.840 6   -719652.194 1
  17880065.609    -5108812.244 5  -3431552.174 1
  14370002.843    -4501193.942 7  -3396318.471 3
  14467899.569    -8457356.693 7  -6398155.215 3
  16620542.905    -8741645.926 5  -6615811.511 1
 96  3  2 20 10 29.9790000  0  8 16 18 02 31 07 19 27 12
  17976737.359    -4042156.722 4  -2653894.262 1
  16306657.312     1651655.223 6   1284695.280 1
  15507936.671    -8316729.245 7  -6288917.909 2
  16345319.444     -951538.725 6   -715773.930 1
  17846631.054    -5284523.818 5  -3568470.225 1
  14359951.499    -4554012.949 7  -3437476.139 3
  14446868.015    -8567893.281 7  -6484287.613 3
  16598158.124    -8859277.940 5  -6707472.796 1
 96  3  2 20 10 59.9790000  0  8 16 18 02 31 07 19 27 12
  17969353.968    -4080981.010 4  -2684147.011 1
  16312861.710     1684266.194 6   1310106.388 1
  15487970.359    -8421675.907 7  -6370694.510 2
  16346351.476     -946126.443 6   -711556.579 1
  17813206.116    -5460165.342 4  -3705333.655 1
  14349952.335    -4606558.707 7  -3478420.888 3
  14425872.265    -8678208.351 7  -6570247.398 3
  16575792.234    -8976815.721 5  -6799060.659 1
 96  3  2 20 11 29.9790000  0  8 16 18 02 31 07 19 27 12
  17962040.796    -4119397.183 4  -2714081.714 1
  16319116.663     1717125.883 6   1335711.294 1
  15468041.382    -8526384.483 7  -6452285.592 2
  16347462.179     -940281.173 6   -707001.836 1
  17779792.046    -5635752.303 4  -3842154.602 1
  14340005.421    -4658831.591 7  -3519153.002 3
  14404928.124    -8788290.790 7  -6656025.908 3
  16553441.335    -9094257.797 5  -6890573.931 1
 96  3  2 20 11 59.9790000  0  8 16 18 02 31 07 19 27 12
  17954810.359    -4157400.833 4  -2743695.010 1
  16325413.280     1750217.149 6   1361496.661 1
  15448168.913    -8630836.092 7  -6533676.440 2
  16348656.421     -934009.058 6   -702114.490 1
  17746389.218    -5811296.425 4  -3978942.151 1
  14330112.077    -4710816.914 7  -3559661.045 3
  14384024.382    -8898123.523 7  -6741609.843 3
  16531110.960    -9211603.236 5  -6982011.899 1
 96  3  2 20 12 29.9790000  0  8 16 18 02 31 07 19 27 12
  17947656.429    -4194993.252 4  -2772987.873 1
  16331749.819     1783516.093 6   1387443.852 1
  15428336.648    -8735031.006 7  -6614867.261 2
  16349927.843     -927305.187 6   -696890.721 1
  17712995.132    -5986788.665 4  -4115689.271 1
  14320273.593    -4762523.185 7  -3599951.648 3
  14363174.905    -9007707.542 7  -6826999.972 3
  16508797.796    -9328854.282 5  -7073376.313 1
 96  3  2 20 12 59.9790000  0  8 16 18 02 31 07 19 27 12
  17940580.726    -4232196.453 4  -2801977.399 1
  16338124.273     1817009.606 6   1413542.656 1
  15408557.015    -8838985.930 7  -6695871.070 2
  16351284.882     -920181.852 6   -691340.085 1
  17679612.538    -6162228.369 5  -4252395.482 1
  14310484.937    -4813964.727 7  -3640035.960 3
  14342361.788    -9117059.719 7  -6912209.452 3
  16486503.413    -9446026.497 5  -7164679.327 1
 96  3  2 20 13 29.9790000  0  8 16 18 02 31 07 19 27 12
  17933575.499    -4269000.688 4  -2830656.074 1
  16344538.194     1850719.624 6   1439810.156 1
  15388820.054    -8942697.425 7  -6776685.206 3
  16352724.898     -912626.745 6   -685453.017 1
  17646238.507    -6337589.335 5  -4389040.294 1
  14300752.351    -4865111.688 7  -3679890.725 3
  14321603.187    -9226161.808 7  -6997224.065 3
  16464223.109    -9563110.338 5  -7255913.438 1
 96  3  2 20 13 59.9790000  0  8 16 18 02 31 07 19 27 12
  17926645.593    -4305405.349 4  -2859023.381 1
  16350995.124     1884657.752 6   1466255.419 1
  15369129.507    -9046183.756 7  -6857323.892 3
  16354244.296     -904632.527 6   -679223.782 1
  17612885.140    -6512866.663 5  -4525619.975 1
  14291075.046    -4915962.842 7  -3719515.003 3
  14300888.593    -9335001.162 7  -7082033.945 3
  16441959.265    -9680105.348 5  -7347078.356 1
 96  3  2 20 14 29.9780000  0  8 16 18 02 31 07 19 27 12
  17919800.424    -4341402.199 4  -2887072.924 1
  16357500.026     1918841.184 6   1492891.819 1
  15349477.010    -9149446.044 7  -6937787.992 2
  16355852.627     -896185.286 6   -672641.542 1
  17579546.736    -6688046.349 5  -4662123.547 1
  14281454.729    -4966517.331 7  -3758908.101 3
  14280228.752    -9443585.075 7  -7166644.770 3
  16419711.979    -9797004.512 5  -7438168.590 1
 96  3  2 20 14 59.9780000  0  8 16 18 02 31 07 19 27 12
  17913021.229    -4377008.890 4  -2914818.465 1
  16364054.369     1953276.134 6   1519724.203 1
  15329869.768    -9252489.546 7  -7018081.610 2
  16357546.322     -887282.154 6   -665704.063 1
  17546225.955    -6863156.316 5  -4798572.791 1
  14271892.151    -5016772.258 7  -3798067.784 3
  14259609.565    -9551926.404 7  -7251066.583 3
  16397486.440    -9913821.355 5  -7529194.679 1
 96  3  2 20 15 29.9780000  0  8 16 18 02 31 07 19 27 12
  17906321.010    -4412212.066 4  -2942249.571 1
  16370652.932     1987953.295 6   1546745.321 1
  15310301.807    -9355312.114 7  -7098203.075 2
  16359329.736     -877914.619 6   -658404.705 1
  17512917.393    -7038202.809 5  -4934972.563 1
  14262385.752    -5066724.274 7  -3836991.428 3
  14239042.947    -9660013.096 7  -7335289.969 3
  16375271.557   -10030547.322 5  -7620149.959 1
 96  3  2 20 15 59.9780000  0  8 16 18 02 31 07 19 27 12
  17899698.080    -4447027.982 4  -2969378.902 1
  16377295.393     2022858.625 6   1573944.232 1
  15290776.565    -9457918.468 7  -7178156.058 2
  16361199.979     -868092.626 6   -650751.223 1
  17479613.854    -7213208.506 4  -5071340.547 1
  14252936.158    -5116381.383 7  -3875685.278 3
  14218523.018    -9767851.875 7  -7419320.186 3
  16353075.197   -10147186.138 5  -7711037.318 1
 96  3  2 20 16 29.9780000  0  8 16 18 02 31 07 19 27 12
  17893141.307    -4481463.776 4  -2996211.997 1
  16383981.010     2057992.019 6   1601320.853 1
  15271299.901    -9560287.202 7  -7257923.889 2
  16363155.260     -857813.162 6   -642741.275 1
  17446320.815    -7388154.983 5  -5207662.377 1
  14243546.440    -5165726.189 7  -3914135.775 3
  14198046.057    -9875440.560 7  -7503155.516 3
  16330897.854   -10263728.927 5  -7801849.844 1
 96  3  2 20 16 59.9780000  0  8 16 18 02 31 07 19 27 12
  17886660.354    -4515535.780 4  -3022761.643 1
  16390706.018     2093333.142 6   1628859.351 1
  15251857.565    -9662434.421 7  -7337519.114 3
  16365192.072     -847107.900 6   -634399.531 1
  17413041.807    -7563047.224 5  -5343941.959 1
  14234212.666    -5214776.186 7  -3952356.546 3
  14177624.252    -9982775.837 7  -7586793.389 3
  16308740.752   -10380188.797 5  -7892597.762 1
 96  3  2 20 17 29.9780000  0  8 16 18 02 31 07 19 27 12
  17880251.065    -4549238.625 4  -3049023.645 1
  16397470.229     2128879.525 6   1656557.788 1
  15232462.705    -9764365.109 7  -7416945.602 3
  16367306.276     -835998.317 6   -625742.732 1
  17379774.299    -7737863.982 5  -5480162.710 1
  14224935.729    -5263527.173 7  -3990344.335 3
  14157245.158   -10089856.197 7  -7670232.631 3
  16286592.322   -10496565.017 5  -7983280.507 1
 96  3  2 20 17 59.9780000  0  8 16 18 02 31 07 19 27 12
  17873906.182    -4582574.394 4  -3074999.609 1
  16404273.713     2164636.817 6   1684420.562 1
  15213112.799    -9866059.277 7  -7496187.790 3
  16369499.518     -824497.737 6   -616781.262 1
  17346527.815    -7912578.639 5  -5616303.893 1
  14215713.783    -5311978.960 7  -4028098.963 3
  14136915.666   -10196686.761 7  -7753477.223 3
  16264460.830   -10612854.177 5  -8073895.405 1
 96  3  2 20 18 29.9780000  0  8 16 18 02 31 07 19 27 12
  17867631.619    -4615528.351 3  -3100678.055 1
  16411119.940     2200602.859 6   1712446.003 1
  15193804.760    -9967504.790 7  -7575236.229 3
  16371755.104     -812607.793 6   -607516.386 1
  17313305.361    -8087167.972 5  -5752347.439 1
  14206552.619    -5360128.220 7  -4065617.865 3
  14116636.776   -10303270.771 7  -7836529.697 3
  16242349.963   -10729050.684 5  -8164438.110 1
 96  3  2 20 18 59.9780000  0  8 16 18 02 31 07 19 27 12
  17861433.635    -4648104.814 3  -3126062.352 1
  16418000.213     2236768.988 6   1740627.356 1
  15174549.221   -10068705.642 7  -7654094.026 3
  16374090.963     -800343.315 6   -597959.663 1
  17280104.854    -8261636.919 5  -5888297.167 1
  14197446.815    -5407980.874 7  -4102905.654 3
  14096397.854   -10409617.386 7  -7919397.183 3
  16220259.651   -10845157.964 5  -8254911.283 1
 96  3  2 20 19 29.9780000  0  8 16 18 02 31 07 19 27 12
  17855304.752    -4680306.192 3  -3151154.356 1
  16424920.596     2273122.799 6   1768954.953 1
  15155339.369   -10169654.854 7  -7732755.737 3
  16376498.463     -787701.912 6   -588109.236 1
  17246925.893    -8435992.793 5  -6024158.804 1
  14188397.330    -5455534.907 7  -4139960.747 3
  14076203.986   -10515737.514 7  -8002088.200 3
  16198177.463   -10961177.725 5  -8345316.275 1
 96  3  2 20 19 59.9780000  0  8 16 18 02 31 07 19 27 12
  17849248.471    -4712141.839 3  -3175961.406 1
  16431870.861     2309655.848 6   1797422.215 1
  15136175.635   -10270349.490 7  -7811219.073 3
  16378974.588     -774681.947 6   -577963.829 1
  17213767.213    -8610253.102 5  -6159945.954 1
  14179404.533    -5502796.156 7  -4176787.697 3
  14056053.736   -10621630.407 7  -8084602.127 3
  16176117.502   -11077113.377 6  -8435655.704 1
 96  3  2 20 20 29.9780000  0  8 16 18 02 31 07 19 27 12
  17843262.205    -4743604.055 3  -3200477.444 1
  16438859.221     2346375.634 6   1826034.994 1
  15117066.486   -10370790.472 7  -7889484.772 3
  16381526.791     -761272.749 6   -567515.120 1
  17180622.213    -8784421.730 5  -6295661.668 1
  14170469.377    -5549746.779 7  -4213372.599 3
  14035946.502   -10727286.505 7  -8166931.555 3
  16154069.268   -11192959.942 6  -8525925.719 1
 96  3  2 20 20 59.9780000  0  8 16 18 02 31 07 19 27 12
  17837345.455    -4774695.576 4  -3224704.657 1
  16445882.518     2383287.701 6   1854797.589 1
  15097996.854   -10470987.136 7  -7967560.079 3
  16384153.143     -747468.281 6   -556758.408 1
  17147497.807    -8958491.877 5  -6431300.639 1
  14161593.283    -5596385.945 7  -4249714.813 3
  14015890.822   -10832688.042 7  -8249062.615 3
  16132045.244   -11308719.146 6  -8616127.668 1
 96  3  2 20 21 29.9780000  0  8 16 18 02 31 07 19 27 12
  17831502.080    -4805416.818 4  -3248643.325 1
  16452944.690     2420396.293 6   1883713.337 1
  15078976.080   -10570941.131 7  -8045446.299 3
  16386859.096     -733262.345 6   -545688.862 1
  17114389.986    -9132458.156 5  -6566858.675 1
  14152778.135    -5642717.684 7  -4285817.474 3
  13995884.151   -10937826.070 7  -8330988.353 3
  16110034.393   -11424394.416 6  -8706264.197 1
 96  3  2 20 21 59.9780000  0  8 16 18 02 31 07 19 27 12
  17825724.854    -4835775.069 3  -3272299.141 1
  16460045.830     2457715.300 6   1912793.037 1
  15060000.361   -10670666.342 7  -8123154.255 3
  16389636.205     -718655.285 6   -534306.758 1
  17081311.158    -9306306.949 5  -6702325.181 1
  14144020.877    -5688736.849 7  -4321676.572 3
  13975927.127   -11042685.842 7  -8412697.256 3
  16088036.424   -11539984.771 6  -8796334.579 1
 96  3  2 20 22 29.9780000  0  8 16 18 02 31 07 19 27 12
  17820014.166    -4865766.973 3  -3295669.510 1
  16467185.447     2495239.090 6   1942032.305 1
  15041063.830   -10770175.359 7  -8200693.731 3
  16392492.041     -703647.086 6   -522612.090 1
  17048250.783    -9480031.489 5  -6837694.884 1
  14135322.729    -5734445.139 7  -4357293.422 3
  13956028.776   -11147261.215 7  -8494184.556 3
  16066055.776   -11655491.838 6  -8886340.050 1
 96  3  2 20 22 59.9780000  0  8 16 18 02 31 07 19 27 12
  17814372.151    -4895409.475 3  -3318767.616 1
  16474363.213     2532954.718 6   1971421.068 1
  15022163.908   -10869482.167 7  -8278075.652 3
  16395420.916     -688248.649 6   -510613.336 1
  17015215.924    -9653633.352 5  -6972968.971 1
  14126681.361    -5779853.379 7  -4392676.477 3
  13936187.174   -11251541.796 7  -8575442.145 3
  16044091.252   -11770919.842 6  -8976283.918 1
 96  3  2 20 23 29.9780000  0  8 16 18 02 31 07 19 27 12
  17808799.533    -4924705.018 3  -3341595.348 1
  16481573.713     2570846.193 5   2000946.847 1
  15003306.932   -10968583.939 7  -8355297.802 3
  16398426.135     -672459.227 6   -498309.903 1
  16982204.229    -9827117.900 5  -7108151.670 1
  14118098.049    -5824956.510 7  -4427821.775 3
  13916396.908   -11355530.754 7  -8656472.503 3
  16022138.260   -11886267.842 6  -9066165.442 1
 96  3  2 20 23 59.9780000  0  8 16 18 02 31 07 19 27 12
  17803296.291    -4953638.200 4  -3364140.721 1
  16488816.682     2608904.214 5   2030602.390 1
  14984489.127   -11067472.695 7  -8432353.961 3
  16401505.557     -656272.594 6   -485696.973 1
  16949210.072   -10000483.025 5  -7243241.314 1
  14109574.440    -5869749.374 7  -4462725.311 3
  13896664.955   -11459213.164 7  -8737263.981 3
  16000207.330   -12001528.323 6  -9155978.774 1
 96  3  2 20 24 29.9780000  0  8 16 18 02 31 07 19 27 12
  17797853.721    -4982221.599 4  -3386413.543 1
  16496087.549     2647117.338 5   2060378.785 1
  14965711.401   -11166155.891 7  -8509249.948 3
  16404660.713     -639704.133 6   -472786.514 1
  16916243.651   -10173736.482 5  -7378243.939 1
  14101108.479    -5914243.564 7  -4497396.114 3
  13876989.385   -11562607.453 7  -8817830.960 3
  15978290.736   -12116711.040 6  -9245731.511 1
 96  3  2 20 24 59.9780000  0  8 16 18 02 31 07 19 27 12
  17792479.651    -5010467.374 4  -3408423.297 1
  16503388.838     2685488.128 5   2090278.058 1
  14946971.041   -11264636.472 7  -8585988.053 3
  16407884.807     -622756.980 6   -459580.965 1
  16883296.346   -10346873.617 5  -7513155.932 1
  14092696.385    -5958446.585 7  -4531840.033 3
  13857366.229   -11665730.663 7  -8898186.708 3
  15956383.721   -12231820.791 6  -9335427.406 1
 96  3  2 20 25 29.9780000  0  8 16 18 02 31 07 19 27 12
  17787171.565    -5038359.289 3  -3430157.281 1
  16510724.721     2724032.898 5   2120312.897 1
  14928272.111   -11362901.003 7  -8662557.803 3
  16411183.955     -605422.097 6   -446073.295 1
  16850377.807   -10519873.936 5  -7647961.293 1
  14084342.447    -6002352.326 7  -4566052.310 3
  13837792.916   -11768587.077 7  -8978334.558 3
  15934491.158   -12346845.957 6  -9425057.379 1
 96  3  2 20 25 59.9770000  0  8 16 18 02 31 07 19 27 12
  17781927.536    -5065917.430 4  -3451631.201 1
  16518094.443     2762757.132 5   2150487.568 1
  14909610.411   -11460968.232 7  -8738973.810 3
  16414548.450     -587732.040 6   -432288.864 1
  16817479.739   -10692736.767 5  -7782659.536 1
  14076040.528    -6045973.279 7  -4600042.664 3
  13818269.138   -11871190.709 7  -9058285.439 3
  15912618.443   -12461792.911 6  -9514626.413 1
 96  3  2 20 26 29.9770000  0  8 16 18 02 31 07 19 27 12
  17776747.622    -5093148.433 4  -3472850.232 1
  16525498.138     2801669.949 5   2180809.197 1
  14890984.333   -11558842.611 7  -8815239.545 3
  16417983.443     -569687.466 6   -418228.181 1
  16784614.888   -10865453.752 5  -7917244.132 1
  14067798.810    -6089285.468 7  -4633792.433 3
  13798789.896   -11973556.026 7  -9138050.622 3
  15890761.349   -12576661.106 6  -9604134.083 1
 96  3  2 20 26 59.9770000  0  8 16 18 02 31 07 19 27 12
  17771622.958    -5120056.040 3  -3493817.227 1
  16532932.528     2840732.625 5   2211247.601 1
  14872395.825   -11656518.630 7  -8891350.719 3
  16421483.482     -551294.405 6   -403895.965 1
  16751774.443   -11038029.733 5  -8051718.839 1
  14059614.669    -6132289.663 7  -4667302.204 3
  13779357.130   -12075679.268 7  -9217627.179 3
  15868920.185   -12691454.074 6  -9693583.113 1
 96  3  2 20 27 29.9770000  0  8 16 18 02 31 07 19 27 12
  17766568.169    -5146628.008 3  -3514522.691 1
  16540393.443     2879942.060 5   2241800.353 1
  14853850.193   -11753975.916 7  -8967291.438 3
  16425049.177     -532557.295 6   -389295.648 1
  16718961.794   -11210456.873 5  -8186077.590 1
  14051493.091    -6174970.809 7  -4700560.241 3
  13759976.380   -12177531.483 7  -9296992.534 3
  15847090.435   -12806161.437 6  -9782965.459 1
 96  3  2 20 27 59.9770000  0  8 16 18 02 31 07 19 27 12
  17761578.341    -5172865.171 3  -3534967.299 1
  16547881.130     2919288.123 5   2272459.579 1
  14835350.474   -11851199.210 7  -9043049.848 3
  16428679.099     -513472.839 6   -374424.670 1
  16686176.341   -11382736.084 5  -8320321.077 1
  14043434.919    -6217321.079 7  -4733560.468 3
  13740647.896   -12279096.240 7  -9376133.901 3
  15825276.419   -12920784.550 6  -9872282.149 1
 96  3  2 20 28 29.9770000  0  8 16 18 02 31 07 19 27 12
  17756646.450    -5198772.850 3  -3555155.137 1
  16555389.372     2958747.799 5   2303207.329 1
  14816896.052   -11948190.358 7  -9118627.349 3
  16432377.716     -494040.065 6   -359282.278 1
  16653419.263   -11554875.444 5  -8454455.578 1
  14035435.950    -6259355.823 7  -4766314.820 3
  13721374.841   -12380364.647 7  -9455044.339 3
  15803477.153   -13035332.768 6  -9961540.493 1
 96  3  2 20 28 59.9770000  0  8 16 18 02 31 07 19 27 12
  17751779.989    -5224339.134 3  -3575076.971 1
  16562923.388     2998337.462 5   2334056.365 1
  14798481.427   -12044949.856 7  -9194024.350 3
  16436145.068     -474255.304 6   -343865.617 1
  16620688.021   -11726880.206 5  -8588485.198 1
  14027491.474    -6301104.058 7  -4798845.915 3
  13702166.177   -12481313.171 7  -9533705.523 3
  15781698.943   -13149805.087 6 -10050739.674 1
 96  3  2 20 29 29.9770000  0  8 16 18 02 31 07 19 27 12
  17746983.130    -5249562.970 3  -3594731.984 1
  16570489.302     3038087.463 5   2365030.333 1
  14780111.083   -12141478.775 7  -9269241.673 3
  16439976.810     -454116.856 6   -328173.351 1
  16587985.153   -11898742.417 5  -8722403.745 1
  14019601.005    -6342565.759 7  -4831153.734 3
  13683020.560   -12581936.044 7  -9612112.953 3
  15759930.294   -13264197.579 6 -10139876.645 1
 96  3  2 20 29 59.9770000  0  8 16 18 02 31 07 19 27 12
  17742245.724    -5274455.479 3  -3614128.807 1
  16578078.177     3077986.056 5   2396120.088 1
  14761783.661   -12237813.402 7  -9344307.602 3
  16443871.294     -433635.951 6   -312214.224 1
  16555303.880   -12070478.458 5  -8856223.973 1
  14011764.841    -6383749.915 7  -4863245.295 3
  13663927.919   -12682252.332 7  -9690281.494 3
  15738171.411   -13378525.190 6 -10228963.074 1
 96  3  2 20 30 29.9770000  0  8 16 18 02 31 07 19 27 12
  17737570.646    -5299018.725 3  -3633269.065 1
  16585702.560     3118036.901 5   2427328.486 1
  14743482.403   -12333961.066 7  -9419227.853 3
  16447835.224     -412815.093 6   -295990.206 1
  16522649.333   -12242081.585 5  -8989940.660 1
  14003980.982    -6424648.704 7  -4895114.484 3
  13644901.068   -12782259.624 7  -9768209.246 3
  15716429.763   -13492783.588 6 -10317995.556 1
 96  3  2 20 30 59.9770000  0  8 16 18 02 31 07 19 27 12
  17732953.560    -5323258.501 2  -3652157.271 1
  16593350.950     3158245.825 5   2458660.064 1
  14725227.974   -12429907.610 7  -9493991.388 3
  16451863.521     -391643.922 5   -279493.227 1
  16490019.989   -12413541.252 5  -9123545.551 1
  13996258.302    -6465232.770 7  -4926738.435 3
  13625922.958   -12881962.729 7  -9845899.978 3
  15694703.810   -13606965.928 6 -10406968.783 1
 96  3  2 20 31 29.9770000  0  8 16 18 02 31 07 19 27 12
  17728399.083    -5347196.997 2  -3670810.702 1
  16601030.396     3198593.776 5   2490099.970 1
  14707006.286   -12525650.686 7  -9568596.367 3
  16455957.896     -370136.915 5   -262734.554 1
  16457421.935   -12584852.065 5  -9257034.464 1
  13988598.778    -6505482.298 7  -4958101.713 3
  13607008.544   -12981380.818 7  -9923368.617 3
  15672987.888   -13721074.891 6 -10495884.839 1
 96  3  2 20 31 59.9770000  0  8 16 18 02 31 07 19 27 12
  17723907.122    -5370833.240 2  -3689228.628 1
  16608735.763     3239080.765 5   2521648.221 1
  14688826.044   -12621185.084 7  -9643038.740 3
  16460113.880     -348291.270 5   -245712.019 1
  16424855.216   -12756000.355 6  -9390396.716 1
  13981004.247    -6545389.658 7  -4989198.368 3
  13588142.825   -13080513.367 7 -10000614.751 3
  15651290.872   -13835103.940 6 -10584738.615 1
 96  3  2 20 32 29.9770000  0  8 16 18 02 31 07 19 27 12
  17719464.364    -5394179.693 2  -3707420.735 1
  16616466.958     3279705.768 5   2553304.006 1
  14670694.380   -12716485.285 7  -9717298.626 3
  16464333.427     -326107.957 5   -228426.349 1
  16392320.599   -12926971.849 5  -9523621.222 1
  13973476.114    -6584954.104 7  -5020027.816 3
  13569330.278   -13179361.913 7 -10077639.592 3
  15629608.864   -13949047.473 6 -10673525.758 1
 96  3  2 20 32 59.9770000  0  8 16 18 02 31 07 19 27 12
  17715075.552    -5417239.443 2  -3725389.453 1
  16624221.833     3320460.183 5   2585060.646 1
  14652600.622   -12811559.317 7  -9791382.275 3
  16468616.755     -303610.525 5   -210895.899 1
  16359813.200   -13097781.163 5  -9656719.351 1
  13966009.513    -6624192.549 7  -5050603.239 3
  13550574.161   -13277938.965 7 -10154452.873 3
  15607937.880   -14062915.595 6 -10762254.140 1
 96  3  2 20 33 29.9770000  0  8 16 18 02 31 07 19 27 12
  17710739.794    -5440006.682 2  -3743130.225 1
  16631998.802     3361339.485 5   2616914.593 1
  14634549.568   -12906410.425 7  -9865292.219 3
  16472954.794     -280827.419 5   -193142.865 1
  16327338.974   -13268440.650 6  -9789700.729 1
  13958600.560    -6663123.708 7  -5080939.211 3
  13531869.427   -13376240.859 7 -10231051.742 3
  15586282.107   -14176712.202 6 -10850926.803 1
 96  3  2 20 33 59.9770000  0  8 16 18 02 31 07 19 27 12
  17706466.747    -5462491.936 2  -3760651.222 1
  16639800.919     3402330.147 5   2648855.309 1
  14616540.943   -13001046.824 7  -9939034.857 3
  16477340.310     -257767.102 5   -175173.820 1
  16294892.169   -13438958.285 6  -9922571.593 1
  13951247.450    -6701763.849 7  -5111048.425 3
  13513213.146   -13474271.694 7 -10307439.415 3
  15564641.349   -14290448.895 6 -10939552.767 1
 96  3  2 20 34 29.9770000  0  8 16 18 02 31 07 19 27 12
  17702237.974    -5484691.141 2  -3777949.379 1
  16647621.130     3443422.705 5   2680875.429 1
  14598577.075   -13095460.365 7 -10012603.835 3
  16481783.513     -234424.068 5   -156984.472 1
  16262470.224   -13609335.093 6 -10055332.703 1
  13943951.318    -6740108.164 7  -5140927.121 3
  13494612.083   -13572019.115 7 -10383606.229 3
  15543006.380   -14404121.626 6 -11028128.908 1
 96  3  2 20 34 59.9770000  0  8 16 18 02 31 07 19 27 12
  17698073.685    -5506587.887 2  -3795011.811 1
  16655461.318     3484628.995 5   2712984.169 1
  14580653.310   -13189651.008 7 -10085999.130 3
  16486281.755     -210778.196 5   -138559.164 1
  16230075.294   -13779561.389 6 -10187976.539 1
  13936712.169    -6778148.698 7  -5170569.107 3
  13476066.583   -13669466.765 7 -10459539.464 3
  15521392.052   -14517722.525 6 -11116649.065 1
 96  3  2 20 35 29.9770000  0  8 16 18 02 31 07 19 27 12
  17693959.380    -5528205.694 2  -3811856.918 1
  16663325.521     3525935.307 5   2745170.859 1
  14562769.521   -13283633.974 7 -10159232.602 3
  16490841.997     -186811.491 5   -119883.857 1
  16197715.200   -13949628.307 6 -10320496.186 1
  13929529.778    -6815893.516 7  -5199980.671 3
  13457580.224   -13766620.466 7 -10535243.645 3
  15499785.388   -14631261.919 6 -11205121.296 1
 96  3  2 20 35 59.9770000  0  8 16 18 02 31 07 19 27 12
  17689900.232    -5549543.465 2  -3828483.793 1
  16671200.974     3567330.769 5   2777427.002 1
  14544922.833   -13377421.366 7 -10232313.676 3
  16495468.638     -162498.135 5   -100938.417 1
  16165386.294   -14119511.737 6 -10452872.850 1
  13922402.325    -6853344.741 7  -5229163.457 3
  13439149.146   -13863474.535 7 -10610714.342 3
  15478188.599   -14744742.857 6 -11293547.983 1
 96  3  2 20 36 29.9770000  0  8 16 18 02 31 07 19 27 12
  17685888.747    -5570618.468 3  -3844905.908 1
  16679088.591     3608792.018 5   2809734.406 1
  14527104.466   -13471055.988 7 -10305275.713 3
  16500153.833     -137870.076 5    -81747.766 1
  16133088.278   -14289238.769 6 -10585127.651 1
  13915326.122    -6890536.549 7  -5258144.101 3
  13420774.255   -13960038.229 7 -10685958.779 3
  15456600.044   -14858192.381 6 -11381950.182 1
 96  3  2 20 36 59.9770000  0  7 18 02 31 07 19 27 12
  16687026.302          -0.45815
  14509343.599          -0.55417
  16504931.138                          -0.17115
  16100852.458          -0.04516
  13908331.068          -0.87717
  13402487.052          -0.53617
  15435047.732   -14971441.389 6 -11470196.374 1
 96  3  2 20 37 29.9760000  0  8 16 18 02 31 07 19 27 12
  17678143.133      -20035.859 3
  16695043.133       42129.932 5        -0.28311
  14491679.891      -92816.309 7        -0.07413
  16509827.797       25735.978 5        -0.16511
  16068717.250     -168868.217 5        -0.34811
  13901456.656      -36127.854 7        -0.35013
  13384327.445      -95441.042 7        -0.16813
  15413574.852   -15084293.010 6 -11558132.715 1
 96  3  2 20 37 59.9760000  0  8 16 18 02 31 07 19 27 12
  17674380.758      -39823.255 3        -0.23811
  16703070.485       84319.505 5     32874.644 1
  14474047.422     -185495.242 7    -72217.417 3
  16514772.110       51716.055 5     20244.010 1
  16036608.313     -337594.695 5   -131475.481 1
  13894633.172      -71984.162 7    -27940.349 3
  13366215.422     -190599.468 7    -74149.579 3
  15392105.406   -15197117.897 6 -11646048.184 1
 96  3  2 20 38 29.9760000  0  8 16 18 02 31 07 19 27 12
  17670658.219      -59386.513 3    -15244.316 1
  16711110.875      126566.735 5     65794.508 1
  14456432.719     -278036.144 7   -144327.211 3
  16519758.820       77913.242 5     40657.361 1
  16004527.344     -506195.538 6   -262852.707 1
  13887864.149     -107551.936 7    -55655.512 2
  13348161.414     -285486.452 7   -148087.487 3
  15370641.360   -15309913.259 6 -11733940.651 1
 96  3  2 20 38 59.9760000  0  8 16 18 02 31 07 19 27 12
  17666978.672      -78722.725 3    -30311.609 1
  16719164.774      168877.332 5     98763.735 1
  14438859.742     -370404.800 7   -216302.778 3
  16524790.945      104351.091 5     61258.234 1
  15972471.531     -674648.446 6   -394114.665 1
  13881160.367     -142786.247 7    -83110.831 3
  13330153.914     -380106.125 7   -221817.100 3
  15349185.586   -15422660.015 6 -11821795.237 1
 96  3  2 20 39 29.9760000  0  8 16 18 02 31 07 19 27 12
  17663345.813      -97805.940 3
  16727226.945      211260.822 5    131789.777 1
  14421316.594     -462571.661 7   -288121.101 3
  16529876.524      131067.597 5     82076.252 1
  15940449.055     -842920.883 6   -525235.993 1
  13874522.695     -177665.815 7   -110289.724 3
  13312206.531     -474440.927 7   -295324.741 3
  15327743.813   -15535336.741 6 -11909595.268 1
 96  3  2 20 39 59.9760000  0  7 18 02 31 07 19 27 12
  16735303.875      253704.870 5    164862.999 1
  14403815.485     -554556.289 7   -359797.425 3
  16535012.867      158056.385 5    103106.430 1
  15908458.047    -1011029.801 6   -656229.896 1
  13867950.914     -212196.866 7   -137197.056 3
  13294305.610     -568496.679 7   -368614.930 3
  15306311.000   -15647957.541 6 -11997351.706 1
 96  3  2 20 40 29.9760000  0  8 15 18 02 31 07 19 27 12
  17514142.617          -0.40314
  16743397.742      296231.175 5    198000.313 1
  14386351.555     -646331.342 7   -431310.454 3
  16540203.406      185348.492 5    124372.970 1
  15876507.445    -1178943.192 6   -787071.440 1
  13861450.274     -246362.460 7   -163819.616 3
  13276467.524     -662231.235 7   -441654.838 3
  15284898.203   -15760500.158 6 -12085047.227 1
 96  3  2 20 40 59.9760000  0  8 15 18 02 31 07 19 27 12
  17488913.203     -132561.593 4
  16751503.336      338826.712 5    231191.583 1
  14368924.649     -737906.881 7   -502668.008 3
  16545451.320      212935.174 5    145869.047 1
  15844591.961    -1346661.185 6   -917760.720 1
  13855009.797     -280203.354 7   -190189.157 3
  13258692.024     -755647.646 7   -514446.851 3
  15263493.149   -15872977.526 6 -12172691.902 1
 96  3  2 20 41 29.9760000  0  8 15 18 02 31 07 19 27 12
  17463731.039     -264907.847 4        -0.42511
  16759625.539      381522.481 5    264460.959 1
  14351538.078     -829267.369 7   -573857.998 3
  16550758.680      240817.186 5    167595.252 1
  15812715.852    -1514165.685 6  -1048283.644 1
  13848630.164     -313726.807 7   -216311.342 2
  13240985.055     -848710.854 7   -586963.635 3
  15242102.406   -15985373.913 6 -12260273.477 1
 96  3  2 20 41 59.9760000  0  8 15 18 02 31 07 19 27 12
  17438585.547     -397043.298 4   -102963.126 1
  16767772.797      424319.301 5    297809.065 1
  14334193.492     -920416.524 7   -644883.307 3
  16556112.617      268963.112 5    189527.098 1
  15780879.531    -1681465.838 6  -1178647.344 1
  13842309.250     -346946.656 7   -242196.963 3
  13223342.547     -941417.993 7   -659202.971 3
  15220730.922   -16097696.591 6 -12347797.618 1
 96  3  2 20 42 29.9760000  0  8 15 18 02 31 07 19 27 12
  17413487.391     -528961.489 5   -205756.421 1
  16775937.211      467224.314 5    331241.485 1
  14316891.485    -1011338.092 7   -715731.269 3
  16561521.203      297376.900 5    211667.648 1
  15749082.102    -1848550.511 6  -1308843.142 1
  13836044.617     -379870.566 7   -267851.986 3
  13205765.985    -1033781.487 7   -731174.527 3
  15199370.867   -16209942.655 6 -12435262.066 1
 96  3  2 20 42 59.9760000  0  8 15 18 02 31 07 19 27 12
  17388421.953     -660658.503 4   -308377.448 1
  16784119.820      510238.312 5    364758.823 1
  14299633.586    -1102033.589 7   -786403.079 3
  16566979.438      326061.711 5    234019.415 1
  15717331.711    -2015414.868 6  -1438867.258 1
  13829836.961     -412491.228 7   -293270.700 3
  13188254.188    -1125800.565 7   -802877.702 3
  15178025.977   -16322110.290 6 -12522665.391 1
 96  3  2 20 43 29.9760000  0  8 15 18 02 31 07 19 27 12
  17363403.078     -792128.183 4   -410821.275 1
  16792327.860      553358.561 5    398358.956 1
  14282419.656    -1192496.803 7   -856893.887 3
  16572490.899      355021.785 5    256585.675 1
  15685619.328    -2182052.219 6  -1568714.500 1
  13823689.922     -444793.758 7   -318441.526 2
  13170810.594    -1217465.026 7   -874304.553 3
  15156697.820   -16434197.331 6 -12610005.912 1
 96  3  2 20 43 59.9760000  0  8 15 18 02 31 07 19 27 12
  17338425.016     -923371.375 4   -513088.623 1
  16800546.328      596556.476 5    432019.600 1
  14265240.742    -1282754.589 7   -927224.619 3
  16578056.852      384268.577 5    279375.333 1
  15653955.641    -2348463.091 6  -1698385.263 1
  13817603.000     -476779.612 7   -343365.585 3
  13153434.266    -1308782.730 7   -945461.209 3
  15135385.555   -16546207.985 6 -12697286.918 1
 96  3  2 20 44 29.9760000  0  8 15 18 02 31 07 19 27 12
  17313497.828    -1054386.908 4   -615178.614 1
  16808777.985      639819.928 5    465731.313 1
  14248101.969    -1372832.246 7   -997414.989 3
  16583681.430      413818.195 5    302400.975 1
  15622329.625    -2514653.707 6  -1827884.393 1
  13811577.266     -508441.957 7   -368037.558 2
  13136121.875    -1399756.077 7  -1016349.537 3
  15114080.774   -16658143.735 6 -12784509.563 1
 96  3  2 20 44 59.9760000  0  8 15 18 02 31 07 19 27 12
  17288608.117    -1185164.571 4   -717083.186 1
  16817024.711      683148.920 5    499494.095 1
  14230993.274    -1462740.179 7  -1067473.105 3
  16589359.867      443664.476 5    325657.761 1
  15590746.086    -2680622.418 6  -1957210.625 1
  13805615.633     -539775.233 7   -392453.120 2
  13118881.906    -1490364.409 7  -1086953.431 3
  15092792.930   -16769997.746 6 -12871668.510 1
 96  3  2 20 45 29.9760000  0  8 15 18 02 31 07 19 27 12
  17263770.086    -1315706.641 4   -818804.249 1
  16825279.719      726527.908 5    533295.858 1
  14213916.820    -1552486.103 7  -1137404.988 3
  16595091.000      473784.383 5    349127.788 1
  15559205.445    -2846374.516 6  -2086368.058 1
  13799715.938     -570779.355 7   -416612.182 3
  13101703.070    -1580624.275 7  -1157285.789 3
  15071524.797   -16881775.476 6 -12958768.012 1
 96  3  2 20 45 59.9760000  0  8 15 18 02 31 07 19 27 12
  17238971.016    -1446022.701 3   -920349.244 1
  16833542.391      769940.043 5    567123.419 1
  14196863.211    -1642095.715 7  -1207230.640 3
  16600869.860      504149.640 5    372788.992 1
  15527701.852    -3011919.366 6  -2215363.996 1
  13793876.906     -601463.799 7   -440522.157 2
  13084590.164    -1670559.006 7  -1227364.799 3
  15050266.274   -16993489.535 6 -13045817.907 1
 96  3  2 20 46 29.9760000  0  8 15 18 02 31 07 19 27 12
  17214219.672    -1576096.556 4  -1021705.431 1
  16841813.860      813412.543 5    600998.024 1
  14179843.781    -1731529.640 7
  16606695.274      534739.769 5    396625.412 1
  15496244.078    -3177236.351 6  -2344182.384 1
  13788102.000     -631810.285 7   -464168.772 2
  13067540.211    -1760158.017 7
  15029023.594   -17105126.636 6 -13132807.832 1
 96  3  2 20 46 59.9760000  0  8 15 18 02 31 07 19 27 12
  17189507.195    -1705941.771 3  -1122883.479 1
  16850090.633      856917.314 5    634897.797 1
  14162859.086    -1820776.077 7
  16612547.305      565521.690 5    420611.284 1
  15464829.547    -3342323.624 6  -2472821.771 1
  13782387.336     -661838.750 7   -487567.594 2
  13050552.039    -1849444.444 7
  15007790.766   -17216703.335 6 -13219750.684 1
 96  3  2 20 47 29.9760000  0  8 15 18 02 31 07 19 27 12
  17164851.227    -1835541.056 3  -1223869.887 1
  16858376.235      900452.047 5    668820.897 1
  14145917.977    -1909812.678 7
  16618446.758      596521.358 5    444766.832 1
  15433462.211    -3507156.510 6  -2601262.926 1
  13776737.500     -691529.310 7   -510703.101 2
  13033620.578    -1938404.977 7
  14986572.235   -17328206.216 6 -13306636.015 1
 96  3  2 20 47 59.9760000  0  8 15 18 02 31 07 19 27 12
  17140234.633    -1964890.231 3  -1324661.405 1
  16866670.297      944027.759 5    702775.927 1
  14129017.961    -1998629.468 7  -1485049.106 3
  16624387.672      627749.804 5    469100.659 1
  15402144.867    -3671728.095 6  -2729500.481 1
  13771150.570     -720891.879 7   -533583.041 2
  13016756.297    -2027022.852 7  -1505128.821 3
  14965368.445   -17439633.438 6 -13393462.397 1
 96  3  2 20 48 29.9760000  0  8 15 18 02 31 07 19 27 12
  17115666.008    -2093986.440 4  -1425255.774 1
  16874967.742      987645.437 5    736763.658 1
  14112161.570    -2087207.456 7  -1554070.901 3
  16630381.289      659220.824 5    493623.495 1
  15370875.352    -3836048.307 6  -2857542.146 1
  13765625.125     -749927.661 7   -556208.332 2
  12999956.547    -2115291.234 7  -1573909.375 3
  14944181.492   -17550985.319 6 -13480230.061 1
 96  3  2 20 48 59.9750000  0  8 15 18 02 31 07 19 27 12
  17091154.964    -2222816.507 4  -1525642.787 1
  16883279.222     1031311.878 4    770789.398 1
  14095348.761    -2175548.802 7  -1622908.302 3
  16636420.019      690962.326 5    518357.081 1
  15339656.534    -4000117.232 6  -2985388.009 1
  13760161.581     -778637.291 7   -578579.479 2
  12983234.698    -2203185.200 7  -1642398.178 3
  14923008.573   -17662252.651 6 -13566931.863 1
 96  3  2 20 49 29.9750000  0  8 15 18 02 31 07 19 27 12
  17066679.448    -2351394.371 3  -1625833.308 1
  16891601.347     1075052.227 4    804872.688 1
  14078578.995    -2263680.008 7  -1691581.958 3
  16642509.839      722961.479 5    543291.450 1
  15308475.745    -4163963.695 6  -3113060.531 1
  13754759.316     -807028.433 7   -600702.465 2
  12966579.370    -2290715.851 7  -1710603.879 3
  14901845.355   -17773450.726 6 -13653579.683 1
 96  3  2 20 49 59.9750000  0  8 15 18 02 31 07 19 27 12
  17042268.667    -2479711.448 4  -1725820.567 1
  16899945.159     1118887.112 4    839029.684 1
  14061848.894    -2351596.270 7  -1760088.124 3
  16648641.683      755198.599 5    568411.241 1
  15277339.159    -4327584.188 6  -3240556.962 1
  13749419.402     -835093.295 7   -622571.197 2
  12949987.862    -2377885.081 7  -1778527.962 3
  14880701.503   -17884575.028 6 -13740170.027 1
 96  3  2 20 50 29.9750000  0  8 15 18 02 31 07 19 27 12
  17017898.683    -2607772.390 3  -1825608.277 1
  16908298.511     1162798.974 4    873246.612 1
  14045154.894    -2439320.218 7  -1828444.439 3
  16654822.300      787657.103 5    593703.545 1
  15246243.409    -4490989.444 6  -3367885.665 1
  13744142.128     -862824.778 7   -644180.167 2
  12933468.472    -2464710.626 7  -1846184.230 3
  14859565.214   -17995632.864 6 -13826708.575 1
 96  3  2 20 50 59.9750000  0  8 15 18 02 31 07 19 27 12
  16993577.362    -2735566.379 3  -1925187.951 1
  16916673.519     1206786.097 4    907522.220 1
  14028495.816    -2526863.867 7  -1896660.256 3
  16661037.261      820332.024 5    619164.494 1
  15215193.917    -4654161.410 6  -3495032.598 1
  13738931.112     -890202.383 7   -665513.385 2
  12917015.097    -2551183.514 7  -1913565.699 3
  14838443.245   -18106616.530 6 -13913189.330 1
 96  3  2 20 51 29.9750000  0  8 15 18 02 31 07 19 27 12
  16969314.573    -2863090.225 3  -2024557.107 1
  16925050.659     1250827.933 4    941840.452 1
  14011870.487    -2614235.427 7  -1964741.973 3
  16667297.269      853217.079 5    644789.189 1
  15184189.784    -4817084.941 6  -3621985.948 1
  13733792.542     -917209.920 7   -686558.236 3
  12900622.612    -2637316.270 7  -1980682.129 3
  14817339.409   -18217525.731 6 -13999612.057 1
 96  3  2 20 51 59.9750000  0  8 15 18 02 31 07 19 27 12
  16945099.487    -2990339.682 4  -2123712.507 1
  16933435.636     1294887.885 4    976172.807 1
  13995274.245    -2701447.498 7  -2032699.427 3
  16673588.691      886324.306 5    670586.972 1
  15153234.136    -4979756.522 6  -3748742.984 1
  13728723.206     -943848.549 7   -707315.620 2
  12884296.761    -2723099.776 7  -2047526.423 3
  14796252.745   -18328359.104 6 -14085975.713 1
 96  3  2 20 52 29.9750000  0  8 15 18 02 31 07 19 27 12
  16920932.027    -3117313.026 4  -2222652.708 1
  16941820.909     1338944.705 4   1010502.697 1
  13978707.456    -2788507.849 7  -2100538.651 3
  16679937.644      919668.873 5    696569.723 1
  15122327.761    -5142179.156 6  -3875306.022 1
  13723721.097     -970134.784 7   -727798.413 2
  12868043.120    -2808524.464 7  -2114091.114 3
  14775171.019   -18439118.205 6 -14172281.490 1
 96  3  2 20 52 59.9750000  0  8 15 18 02 31 07 19 27 12
  16896825.644    -3244006.290 4  -2321374.703 1
  16950204.878     1383002.092 4   1044833.050 1
  13962167.972    -2875412.563 7  -2168256.597 3
  16686331.402      953251.108 5    722737.652 1
  15091467.691    -5304343.879 6  -4001668.100 1
  13718781.159     -996089.735 7   -748023.076 2
  12851859.612    -2893577.200 7  -2180365.977 3
  14754113.284   -18549802.051 6 -14258528.608 1
 96  3  2 20 53 29.9750000  0  8 15 18 02 31 07 19 27 12
  16872770.120    -3370414.848 4  -2419874.804 1
  16958588.784     1427066.046 4   1079168.505 1
  13945664.495    -2962151.630 7  -2235845.470 3
  16692767.128      987073.429 5    749092.664 1
  15060661.612    -5466237.019 6  -4127818.551 1
  13713903.448    -1021724.908 7   -767998.547 2
  12835744.495    -2978248.431 7  -2246343.563 3
  14733063.730   -18660408.531 6 -14344715.463 1
 96  3  2 20 53 59.9750000  0  8 15 18 02 31 07 19 27 12
  16848772.816    -3496528.559 4  -2518145.186 1
  16966976.339     1471154.861 4   1113523.347 1
  13929192.644    -3048702.962 7  -2303288.057 3
  16699247.245     1021135.411 5    775634.426 1
  15029907.206    -5627853.300 6  -4253753.287 1
  13709084.292    -1047049.507 7   -787732.007 2
  12819709.456    -3062515.328 7  -2312006.081 3
  14712032.472   -18770930.833 6 -14430836.719 1
 96  3  2 20 54 29.9750000  0  8 15 18 02 31 07 19 27 12
  16824827.230    -3622364.670 4  -2616199.224 1
  16975375.152     1515273.434 4   1147901.351 1
  13912763.808    -3135060.514 7  -2370579.651 3
  16705767.034     1055399.264 5    802333.494 1
  14999201.050    -5789209.912 6  -4379485.667 1
  13704321.777    -1072075.197 7   -807232.568 2
  12803747.933    -3146384.956 7  -2377359.037 3
  14691011.339   -18881388.663 6 -14516907.735 1
 96  3  2 20 54 59.9750000  0  8 15 18 02 31 07 19 27 12
  16800935.792    -3747911.066 4  -2714027.585 1
  16983778.425     1559433.802 4   1182311.951 1
  13896365.378    -3221215.569 7  -2437713.450 3
  16712326.816     1089858.329 5    829184.672 1
  14968549.769    -5950287.936 6  -4505000.976 1
  13699622.167    -1096773.959 7   -826478.363 2
  12787870.167    -3229846.961 7  -2442394.365 3
  14670005.730   -18991773.121 6 -14602921.581 1
 96  3  2 20 55 29.9750000  0  8 15 18 02 31 07 19 27 12
  16777101.027    -3873163.769 4  -2811627.016 1
  16992185.214     1603623.308 3   1216745.205 1
  13880010.120    -3307155.224 7  -2504679.408 3
  16718919.183     1124509.725 5    856185.718 1
  14937949.823    -6111090.056 6  -4630301.296 1
  13694987.722    -1121130.243 7   -845457.291 2
  12772064.339    -3312908.020 7  -2507117.270 3
  14649014.808   -19102082.811 6 -14688877.165 1
 96  3  2 20 55 59.9750000  0  8 15 18 02 31 07 19 27 12
  16753325.456    -3998112.671 4  -2908989.765 1
  17000600.331     1647834.785 3   1251195.611 1
  13863697.534    -3392875.508 7  -2571474.425 3
  16725549.230     1159349.766 5    883333.773 1
  14907400.644    -6271623.323 6  -4755392.137 1
  13690420.917    -1145130.182 7   -864158.563 2
  12756334.058    -3395568.677 7  -2571528.174 3
  14628041.237   -19212310.679 6 -14774768.994 1
 96  3  2 20 56 29.9750000  0  8 15 18 02 31 07 19 27 12
  16729601.027    -4122767.620 5  -3006123.425 1
  17009010.300     1692035.377 3   1285637.512 1
  13847422.472    -3478406.726 7  -2638122.116 3
  16732213.581     1194374.012 5    910625.352 1
  14876901.972    -6431899.406 6  -4880282.574 1
  13685921.612    -1168775.088 7   -882583.173 2
  12740675.198    -3477857.744 7  -2635649.522 3
  14607076.058   -19322469.204 6 -14860606.793 1
 96  3  2 20 56 59.9750000  0  8 15 18 02 31 07 19 27 12
  16705939.855    -4247125.502 4  -3103025.629 1
  17017415.652     1736201.356 4   1320052.462 1
  13831181.136    -3563767.246 7  -2704636.801 3
  16738913.558     1229588.537 5    938065.199 1
  14846452.081    -6591913.249 6  -5004968.669 1
  13681488.277    -1192073.383 7   -900737.707 2
  12725080.261    -3559793.026 7  -2699495.200 3
  14586128.128   -19432558.241 6 -14946390.434 1
 96  3  2 20 57 29.9750000  0  8 15 18 02 26 07 19 27 12
  16682333.487    -4371174.038 4  -3199686.786 1
  17025815.698     1780334.441 4   1354441.795 1
  13814973.144    -3648940.877 7  -2771005.860 3
  16951511.362          -0.02014
  14816054.386    -6751656.650 6  -5129444.023 1
  13677120.277    -1215023.369 7   -918620.816 2
  12709556.144    -3641367.338 7  -2763059.598 3
  14565193.816   -19542568.392 6 -15032112.612 1
 96  3  2 20 57 59.9750000  0  7 15 02 26 07 19 27 12
  16658787.144    -4494900.963 4  -3296097.339 1
  13798797.183    -3733935.944 7  -2837235.771 3
  16922988.573     -149886.591 4
  14785710.159    -6911111.333 6  -5253694.399 1
  13672818.417    -1237624.736 7   -936232.299 2
  12694108.495    -3722561.112 7  -2826327.472 3
  14544274.948   -19652490.211 6 -15117765.953 1
 96  3  2 20 58 29.9750000  0  7 15 02 26 07 19 27 12
  16635303.964    -4618322.799 4  -3392270.156 1
  13782656.284    -3818766.065 7  -2903337.156 3
  16894526.284     -299471.439 4
  14755419.206    -7070282.484 6  -5377723.850 1
  13668578.667    -1259909.483 7   -953597.053 2
  12678727.019    -3803384.145 7  -2889306.465 3
  14523370.386   -19762342.390 6 -15203365.033 1
 96  3  2 20 58 59.9750000  0  8 15 18 02 26 07 19 27 12
  16611876.456    -4741435.038 5  -3488201.740 1
  17050994.909       44099.718 4
  13766546.706    -3903425.067 7  -2969305.201 3
  16866114.347     -448752.398 4        -0.39411
  14725186.245    -7229163.169 6  -5501526.960 1
  13664395.972    -1281892.054 7   -970726.347 2
  12663417.300    -3883827.018 7  -2951989.221 3
  14502482.800   -19872123.726 6 -15288908.913 1
 96  3  2 20 59 29.9750000  0  8 15 18 02 26 07 19 27 12
  16588505.886    -4864232.202 5  -3583887.805 1
  17059388.237       88206.634 4
  13750468.081    -3987919.810 7  -3035145.256 3
  16837766.980     -597721.880 3   -116080.516 1
  14695010.339    -7387738.206 6  -5625091.903 1
  13660269.612    -1303571.973 7   -987619.806 2
  12648184.066    -3963881.606 7  -3014369.425 3
  14481603.558   -19981831.375 6 -15374395.369 1
 96  3  2 20 59 59.9750000  0  7 15 02 26 07 19 27 12
  16565202.019    -4986708.581 5  -3679323.898 1
  13734420.925    -4072254.374 7  -3100860.494 3
  16809487.073     -746356.348 4   -231899.532 1
  14664894.198    -7546004.040 6  -5748415.909 1
  13656202.300    -1324952.287 7  -1004279.810 2
  12633026.198    -4043543.056 7  -3076443.287 3
  14460741.847   -20091462.112 6 -15459821.885 1
 96  3  2 21  0 29.9740000  0  8 15 31 02 26 07 19 27 12
  16541954.537    -5108857.289 5  -3774504.680 1
  16786820.873          -0.38015
  13718403.951    -4156419.107 7  -3166443.388 3
  16781268.131     -894638.854 4   -347444.315 1
  14634835.819    -7703959.097 6  -5871497.746 1
  13652193.037    -1346014.655 7  -1020692.065 2
  12617938.600    -4122820.365 7  -3138217.813 3
  14439894.115   -20201012.273 6 -15545185.618 1
 96  3  2 21  0 59.9740000  0  8 15 31 02 26 07 19 27 12
  16518778.631    -5230657.780 5  -3869414.102 1
  16793812.436       36707.449 5        -0.05411
  13702421.444    -4240390.297 7  -3231875.474 3
  16753117.803    -1042564.587 4   -462711.071 1
  14604839.225    -7861594.789 6  -5994330.728 1
  13648254.803    -1366716.679 7  -1036823.538 2
  12602929.248    -4201709.552 7  -3199689.913 3
  14419067.529   -20310463.286 6 -15630472.087 1
 96  3  2 21  1 29.9740000  0  7 15 02 26 07 19 27 12
  16495665.928    -5352130.013 5  -3964067.738 1
  13686479.654    -4324179.710 7  -3297165.915 3
  16725032.123    -1190151.277 4   -577713.661 1
  14574898.358    -8018946.375 6  -6116942.328 1
  13644379.834    -1387070.491 7  -1052683.668 2
  12587985.631    -4280231.053 7  -3260875.502 3
  14398253.061   -20419838.167 6 -15715699.248 1
 96  3  2 21  1 59.9740000  0  8 15 18 02 26 07 19 27 12
  16472609.350    -5473278.387 4  -4058469.016 1
  17101379.694          -0.89313
  13670570.037    -4407770.644 7  -3362301.694 3
  16697007.194    -1337417.468 4   -692466.483 1
  14545003.904    -8176039.999 6  -6239352.921 1
  13640574.084    -1407073.982 7  -1068270.824 2
  12573114.162    -4358385.211 7  -3321774.845 3
  14377454.889   -20529144.097 6 -15800872.685 1
 96  3  2 21  2 29.9740000  0  7 15 02 26 07 19 27 12
  16449619.092    -5594089.364 5  -4152607.398 1
  13654706.725    -4491147.984 7  -3427271.035 3
  16669042.014    -1484380.548 4   -806983.136 1
  14515159.990    -8332858.149 6  -6361548.849 1
  13636838.264    -1426709.191 7  -1083571.009 2
  12558311.865    -4436160.027 7  -3382378.599 3
  14356668.389   -20638369.974 6 -15885983.719 1
 96  3  2 21  2 59.9740000  0  8 15 31 02 26 07 19 27 12
  16426696.951    -5714559.486 5  -4246480.156 1
  16822096.733          -0.42414
  13638880.225    -4574312.525 7  -3492074.563 3
  16641134.553    -1631043.545 4   -921265.914 1
  14485372.834    -8489391.073 6  -6483522.526 1
  13633169.115    -1445995.127 7  -1098599.030 2
  12543590.186    -4513534.790 7  -3442670.619 3
  14335899.061   -20747515.109 6 -15971031.844 1
 96  3  2 21  3 29.9740000  0  8 15 31 02 26 07 19 27 12
  16403836.092    -5834697.322 5  -4340094.030 1
  16829246.576       37573.167 5
  13623089.334    -4657288.798 7  -3556731.387 3
  16613282.451    -1777411.614 4  -1035318.923 1
  14455642.748    -8645633.090 6  -6605269.520 2
  13629560.678    -1464955.848 7  -1113373.639 2
  12528946.194    -4590492.654 7  -3502637.790 3
  14315142.834   -20856590.191 6 -16056025.393 1
 96  3  2 21  3 59.9740000  0  8 15 31 02 26 07 19 27 12
  16381036.264    -5954496.548 5  -4433444.054 1
  16836426.397       75302.558 4        -0.11311
  13607334.061    -4740086.289 7  -3621248.901 3
  16585483.967    -1923480.143 4  -1149138.494 1
  14425970.170    -8801557.024 6  -6726768.663 2
  13626013.904    -1483592.565 7  -1127895.769 2
  12514380.490    -4667034.141 7  -3562280.506 3
  14294399.694   -20965591.932 6 -16140961.782 1
 96  3  2 21  4 29.9740000  0  8 15 31 02 26 07 19 27 12
  16358304.240    -6073951.787 5  -4526526.046 1
  16843636.998      113188.462 4     29521.337 1
  13591611.404    -4822718.271 7  -3685637.448 3
  16557750.404    -2069234.154 4  -1262712.982 1
  14396361.912    -8957150.698 6  -6848010.457 1
  13622528.623    -1501909.980 7  -1142169.100 2
  12499892.990    -4743157.485 7  -3621597.401 3
  14273671.022   -21074517.291 6 -16225838.672 1
 96  3  2 21  4 59.9740000  0  8 15 31 02 26 07 19 27 12
  16335640.873    -6193061.571 5  -4619338.826 1
  16850873.615      151221.430 4     59157.377 1
  13575913.873    -4905194.799 7  -3749904.860 3
  16530076.569    -2214650.693 4  -1376024.516 1
  14366817.342    -9112416.425 6  -6968996.707 2
  13619102.819    -1519911.938 7  -1156196.618 2
  12485488.928    -4818859.152 7  -3680585.711 3
  14252960.779   -21183367.236 6 -16310656.780 1
 96  3  2 21  5 29.9740000  0  8 15 31 02 26 07 19 27 12
  16313041.584    -6311821.827 5  -4711879.282 1
  16858136.162      189393.549 4     88901.833 1
  13560250.686    -4987514.565 7  -3814050.122 3
  16502469.319    -2359723.149 4  -1489067.949 1
  14337331.373    -9267362.091 6  -7089733.571 1
  13615738.733    -1537584.724 7  -1169967.644 2
  12471160.506    -4894142.837 7  -3739248.325 3
  14232262.795   -21292140.364 6 -16395415.034 1
 96  3  2 21  5 59.9740000  0  8 15 31 02 26 07 19 27 12
  16290507.147    -6430229.624 5  -4804145.095 1
  16865420.389      227690.002 4    118743.217 1
  13544614.365    -5069675.507 7  -3878071.620 3
  16474931.217    -2504444.002 4  -1601837.418 1
  14307903.647    -9422002.516 6  -7210232.586 2
  13612440.311    -1554919.078 7  -1183474.946 2
  12456915.662    -4969022.762 7  -3797596.318 3
  14211573.569   -21400836.124 6 -16480113.005 1
 96  3  2 21  6 29.9740000  0  8 15 31 02 26 07 19 27 12
  16268042.264    -6548278.096 5  -4896130.900 1
  16872731.990      266105.720 4    148677.505 1
  13529010.998    -5151671.945 7  -3941964.939 3
  16447460.545    -2648810.214 5  -1714330.513 1
  14278533.889    -9576338.621 6  -7330494.462 2
  13609209.006    -1571900.317 7  -1196707.097 2
  12442744.287    -5043486.254 7  -3855619.826 3
  14190905.998   -21509449.962 6 -16564747.152 1
 96  3  2 21  6 59.9740000  0  8 15 31 02 26 07 19 27 12
  16245651.076    -6665962.759 5  -4987833.228 1
  16880068.100      304643.195 5    178706.664 1
  13513438.154    -5233499.090 7  -4005726.339 3
  16420053.920    -2792819.055 4  -1826545.134 1
  14249224.584    -9730365.357 6  -7450515.264 2
  13606047.006    -1588519.867 7  -1209657.410 2
  12428654.389    -5117534.640 7  -3913319.877 3
  14170254.272   -21617980.291 6 -16649316.217 1
 96  3  2 21  7 29.9740000  0  8 15 31 02 26 07 19 27 12
  16223324.717    -6783292.848 5  -5079259.258 1
  16887422.225      343295.206 4    208825.055 1
  13497901.764    -5315159.260 7  -4069357.631 3
  16392716.725    -2936497.229 5  -1938502.108 1
  14219969.108    -9884098.405 6  -7570307.226 2
  13602951.709    -1604783.406 7  -1222330.311 2
  12414637.108    -5191188.514 7  -3970712.515 3
  14149613.959   -21726438.779 6 -16733829.297 1
 96  3  2 21  7 59.9740000  0  8 15 31 02 26 07 19 27 12
  16201060.694    -6900263.690 5  -5170405.339 1
  16894803.311      382087.432 4    239052.742 1
  13482394.858    -5396653.873 7  -4132859.915 3
  16365433.350    -3079850.172 5  -2050205.654 1
  14190772.811   -10037525.975 6  -7689861.159 2
  13599923.928    -1620693.649 7  -1234727.921 2
  12400695.537    -5264447.981 7  -4027797.814 3
  14128991.475   -21834822.605 6 -16818284.206 1
 96  3  2 21  8 29.9740000  0  8 15 31 02 26 07 19 27 12
  16178873.733    -7016866.919 5  -5261264.981 1
  16902216.178      421035.046 4    269401.473 1
  13466916.451    -5477979.709 7  -4196230.682 3
  16338219.897    -3222873.456 5  -2161652.318 1
  14161636.428   -10190637.227 6  -7809168.613 2
  13596963.748    -1636254.653 7  -1246853.392 2
  12386832.154    -5337308.041 7  -4084571.887 3
  14108380.342   -21943126.154 6 -16902676.555 1
 96  3  2 21  8 59.9740000  0  8 15 31 02 26 07 19 27 12
  16156760.600    -7133085.779 5  -5351825.109 1
  16909663.006      460159.286 4    299887.855 1
  13451475.983    -5559124.700 7  -4259460.536 3
  16311071.412    -3365537.410 5  -2272818.989 1
  14132562.694   -10343420.385 6  -7928220.397 2
  13594066.834    -1651476.261 7  -1258714.403 2
  12373045.365    -5409753.590 7  -4141022.969 3
  14087791.654   -22051335.457 6 -16986995.475 1
 96  3  2 21  9 29.9740000  0  8 15 31 02 26 07 19 27 12
  16134709.412    -7248931.857 5  -5442094.775 1
  16917134.709      499437.595 4    330494.271 1
  13436067.319    -5640115.403 7  -4322570.166 3
  16283990.725    -3507847.754 5  -2383710.128 1
  14103550.358   -10495885.364 6  -8047024.259 2
  13591228.967    -1666390.945 7  -1270336.251 2
  12359335.272    -5481789.020 7  -4197154.476 3
  14067211.201   -22159463.766 6 -17071251.279 1
 96  3  2 21  9 59.9740000  0  8 15 31 02 26 07 19 27 12
  16112743.248    -7364402.572 5  -5532071.942 1
  16924639.303      538851.897 4    361206.642 1
  13420681.084    -5720957.108 7  -4385563.690 3
  16256977.061    -3649790.633 5  -2494314.918 1
  14074600.951   -10648017.198 6  -8165568.526 2
  13588447.826    -1681005.804 7  -1281724.467 2
  12345707.358    -5553399.080 7  -4252954.529 3
  14046653.592   -22267511.321 6 -17155444.160 1
 96  3  2 21 10 29.9740000  0  8 15 31 02 26 07 19 27 12
  16090834.123    -7479506.520 5  -5621763.295 1
  16932154.842      578357.941 4    391990.534 1
  13405323.944    -5801655.936 7  -4448445.880 3
  16230040.522    -3791358.000 5  -2604627.114 1
  14045712.092   -10799830.914 6  -8283864.908 2
  13585721.858    -1695327.478 7  -1292884.230 2
  12332161.326    -5624592.904 7  -4308430.235 3
  14026108.178   -22375488.603 6 -17239582.284 1
 96  3  2 21 10 59.9740000  0  8 15 31 02 26 07 19 27 12
  16069003.303    -7594236.098 5  -5711162.944 1
  16939689.951      617953.082 4    422843.813 1
  13389995.764    -5882205.113 7  -4511211.458 3
  16203171.053    -3932549.153 5  -2714646.157 1
  14016885.561   -10951314.710 6  -8401904.212 2
  13583054.865    -1709347.211 7  -1303808.713 2
  12318697.662    -5695356.666 7  -4363570.832 3
  14005572.654   -22483391.083 6 -17323662.119 1
 96  3  2 21 11 29.9740000  0  8 15 31 02 26 07 19 27 12
  16047242.811    -7708583.114 5  -5800264.491 1
  16947242.076      657638.801 3    453767.754 1
  13374699.787    -5962595.299 7  -4573853.152 3
  16176373.701    -4073374.724 5  -2824380.337 1
  13988125.076   -11102451.857 6  -8519673.395 2
  13580449.178    -1723034.599 7  -1314474.230 2
  12305312.842    -5765684.601 7  -4418371.826 3
  13985053.459   -22591211.891 6 -17407678.312 1
 96  3  2 21 11 59.9730000  0  8 15 31 02 26 07 19 27 12
  16025556.939    -7822541.726 5  -5889063.371 1
  16954809.571      697421.263 3    484767.005 1
  13359435.525    -6042807.451 7  -4636356.115 3
  16149644.681    -4213840.746 5  -2933834.320 1
  13959429.642   -11253244.814 6  -8637174.384 2
  13577911.931    -1736370.272 7  -1324865.672 2
  12292010.196    -5835586.704 7  -4472841.003 3
  13964552.267   -22698948.005 6 -17491628.510 1
 96  3  2 21 12 29.9730000  0  8 15 31 02 26 07 19 27 12
  16003945.446    -7936127.685 5  -5977571.860 1
  16962404.845      737304.289 3    515844.642 1
  13344200.736    -6122853.056 7  -4698729.305 3
  16122981.439    -4353969.681 5  -3043025.670 1
  13930794.392   -11403721.960 6  -8754429.289 2
  13575438.790    -1749368.694 7  -1334994.326 2
  12278786.501    -5905092.346 7  -4527001.244 3
  13944064.282   -22806616.773 6 -17575526.232 2
 96  3  2 21 12 59.9730000  0  8 15 31 02 26 07 19 27 12
  15982405.548    -8049317.760 5  -6065771.895 1
  16970014.134      777318.569 4    547024.531 1
  13329006.900    -6202706.373 7  -4760952.657 3
  16096378.196    -4493754.467 5  -3151948.835 1
  13902227.439   -11553846.437 6  -8871409.381 2
  13573032.634    -1762016.663 7  -1344849.894 2
  12265639.228    -5974182.530 7  -4580837.754 3
  13923591.759   -22914197.644 6 -17659355.464 2
 96  3  2 21 13 29.9730000  0  8 15 31 02 26 07 19 27 12
  15960938.892    -8162111.842 5  -6153663.332 1
  16977651.087      817454.005 3    578298.890 1
  13313849.267    -6282370.250 7  -4823028.391 3
  16069844.150    -4633190.283 5  -3260600.095 1
  13873727.517   -11703622.726 6  -8988118.165 2
  13570692.103    -1774311.414 7  -1354430.238 2
  12252566.282    -6042871.662 7  -4634361.753 3
  13903136.892   -23021692.622 7 -17743117.760 1
 96  3  2 21 13 59.9730000  0  8 15 31 02 26 07 19 27 12
  15939548.196    -8274513.152 5  -6241248.751 1
  16985311.259      857688.836 4    609650.677 1
  13298724.900    -6361856.273 7  -4884965.536 3
  16043375.751    -4772268.571 5  -3368972.759 1
  13845288.071   -11853061.868 6  -9104564.237 2
  13568416.712    -1786268.849 6  -1363747.737 2
  12239568.509    -6111171.227 7  -4687582.199 3
  13882696.173   -23129106.785 7 -17826817.083 1
 96  3  2 21 14 29.9730000  0  8 15 31 02 26 07 19 27 12
  15918240.915    -8386507.703 5  -6328517.192 1
  16992987.087      898026.296 4    641082.422 1
  13283629.134    -6441162.564 7  -4946762.632 3
  16016983.821    -4910963.734 5  -3477046.883 1
  13816921.134   -12002133.975 6  -9220724.305 2
  13566206.220    -1797883.937 6  -1372798.470 2
  12226653.196    -6179054.909 7  -4740478.578 3
  13862274.368   -23236428.961 7 -17910444.735 2
 96  3  2 21 14 59.9730000  0  8 15 31 02 26 07 19 27 12
  15897001.454    -8498113.642 5  -6415482.815 1
  17000675.751      938440.352 4    672573.831 1
  13268567.532    -6520322.074 7  -5008445.362 3
  15990664.009    -5049284.704 5  -3584829.421 1
  13788621.431   -12150851.914 6  -9336608.405 2
  13564058.446    -1809172.580 6  -1381594.835 2
  12213810.165    -6246530.450 7  -4793056.921 3
  13841867.814   -23343678.697 7 -17994015.939 1
 96  3  2 21 15 29.9730000  0  8 15 31 02 26 07 19 27 12
  15875844.493    -8609310.649 5  -6502129.809 1
  17008383.228      978942.165 4    704133.716 1
  13253531.157    -6599336.722 7  -5070015.205 3
  15964419.423    -5187200.932 5  -3692296.573 1
  13760389.103   -12299213.874 6  -9452215.110 2
  13561974.954    -1820114.989 6  -1390121.407 2
  12201053.040    -6313577.705 7  -4845301.534 3
  13821473.423   -23450838.174 7 -18077516.815 2
 96  3  2 21 15 59.9730000  0  8 15 31 02 26 07 19 27 12
  15854759.267    -8720091.777 5  -6588452.715 1
  17016107.876     1019543.457 3    735771.032 1
  13238525.446    -6678199.374 7  -5131466.614 3
  15938251.376    -5324704.447 5  -3799442.112 1
  13732226.634   -12447208.560 6  -9567535.625 2
  13559957.884    -1830717.310 6  -1398382.969 2
  12188379.790    -6380169.954 7  -4897191.601 3
  13801099.939   -23557902.397 7 -18160943.459 2
 96  3  2 21 16 29.9730000  0  8 15 31 02 26 07 19 27 12
  15833757.071    -8830463.429 5  -6674456.594 1
  17023855.486     1060250.401 3    767490.687 1
  13223546.368    -6756910.779 7  -5192800.164 3
  15912164.048    -5461804.007 5  -3906272.912 1
  13704130.665   -12594849.857 6  -9682580.782 2
  13558002.603    -1840996.292 6  -1406392.589 2
  12175796.017    -6446297.122 7  -4948719.263 3
  13780742.540   -23664879.488 7 -18244302.208 2
 96  3  2 21 16 59.9730000  0  8 15 31 02 26 07 19 27 12
  15812830.993    -8940432.248 5  -6760146.537 1
  17031617.196     1101049.603 3    799282.239 1
  13208593.611    -6835480.887 7  -5254023.617 3
  15886146.251    -5598522.529 5  -4012806.787 1
  13676098.103   -12742165.113 6  -9797371.876 2
  13556106.220    -1850960.552 6  -1414156.966 2
  12163301.532    -6511970.641 7  -4999893.437 3
  13760399.548   -23771778.284 7 -18327599.953 2
 96  3  2 21 17 29.9730000  0  8 15 31 02 26 07 19 27 12
  15791985.040    -9049982.756 5  -6845510.544 1
  17039397.892     1141955.572 3    831156.990 1
  13193674.587    -6913890.366 7  -5315121.901 3
  15860201.079    -5734861.315 5  -4119044.760 1
  13648127.251   -12889149.580 6  -9911905.200 2
  13554271.071    -1860607.665 6  -1421674.218 2
  12150889.345    -6577183.048 7  -5050708.303 3
  13740075.196   -23878585.728 7 -18410826.504 2
 96  3  2 21 17 59.9730000  0  8 15 31 02 26 07 19 27 12
  15771214.657    -9159130.937 5  -6930561.051 1
  17047200.564     1182936.967 2    863090.530 1
  13178781.751    -6992141.571 7  -5376096.862 3
  15834324.509    -5870841.154 5  -4225003.033 1
  13620218.603   -13035812.054 6 -10026187.635 2
  13552490.462    -1869961.872 6  -1428963.229 2
  12138567.478    -6641949.473 7  -5101175.640 3
  13719764.618   -23985319.690 7 -18493995.801 2
 96  3  2 21 18 29.9730000  0  8 15 31 02 26 07 19 27 12
  15750522.939    -9267858.540 5  -7015283.823 1
  17055013.681     1224000.791 2    895088.259 1
  13163923.821    -7070222.008 7  -5436938.737 3
  15808521.446    -6006445.642 5  -4330668.859 1
  13592373.150   -13182144.116 6 -10140212.600 2
  13550772.556    -1878989.934 6  -1435998.100 2
  12126324.665    -6706280.707 7  -5151303.875 3
  13699472.665   -24091963.648 7 -18577094.973 2
 96  3  2 21 18 59.9730000  0  8 15 31 02 26 07 19 27 12
  15729906.853    -9376167.948 5  -7099680.733 1
  17062843.353     1265133.127 3    927139.350 1
  13149095.321    -7148147.251 7  -5497659.714 3
  15782792.157    -6141678.902 5  -4436045.385 1
  13564591.181   -13328129.522 6 -10253967.429 2
  13549118.462    -1887681.519 6  -1442770.783 2
  12114162.314    -6770197.875 7  -5201109.464 3
  13679193.040   -24198521.862 7 -18660127.317 2
 96  3  2 21 19 29.9730000  0  8 15 31 02 26 07 19 27 12
  15709382.931    -9484051.764 5  -7183746.025 1
  17070678.970     1306339.922 3    959248.448 1
  13134297.689    -7225911.019 7  -5558254.857 3
  15757126.798    -6276526.976 5  -4541121.771 1
  13536882.361   -13473745.480 6 -10367434.398 2
  13547530.892    -1896027.806 6  -1449274.402 2
  12102075.814    -6833697.284 7  -5250589.522 3
  13658935.415   -24304988.867 7 -18743088.606 2
 96  3  2 21 19 59.9730000  0  8 15 31 02 26 07 19 27 12
  15688935.509    -9591513.123 5  -7267482.122 1
  17078542.923     1347615.642 4
  13119527.634    -7303520.634 7  -5618729.871 3
  15731542.501    -6410988.241 5  -4645896.748 1
  13509245.126   -13618982.672 6 -10480606.214 2
  13546009.532    -1904014.959 6  -1455498.172 2
  12090074.712    -6896773.139 7  -5299739.536 3
  13638688.603   -24411369.237 7 -18825982.379 2
 96  3  2 21 20 29.9730000  0  8 15 31 02 26 07 19 27 12
  15668564.150    -9698545.621 5  -7350884.056 1
  17086409.798     1388979.436 4        -0.09611
  13104790.478    -7380979.581 7  -5679087.485 3
  15706027.493    -6545059.254 5  -4750367.639 1
  13481682.493   -13763828.674 6 -10593473.199 2
  13544560.689    -1911639.073 6  -1461439.057 2
  12078152.821    -6959415.957 7  -5348552.122 3
  13618463.040   -24517658.823 7 -18908805.411 2
 96  3  2 21 20 59.9730000  0  8 15 31 02 26 07 19 27 12
  15648282.282    -9805148.952 5  -7433951.588 1
  17094295.892     1430420.335 3     32291.545 1
  13090077.290    -7458291.511 7  -5739330.539 3
  15680588.946    -6678739.134 5  -4854533.733 1
  13454193.525   -13908279.012 6 -10706031.880 2
  13543173.673    -1918920.688 6  -1467113.059 2
  12066320.571    -7021603.928 7  -5397010.285 3
  13598254.275   -24623859.380 7 -18991559.073 2
 96  3  2 21 21 29.9730000  0  8 15 31 02 26 07 19 27 12
  15628078.134    -9911318.517 5
  17102195.720     1471924.416 3
  13075393.509    -7535455.337 7  -5799458.188 3
  15655228.282    -6812023.502 5  -4958391.646 1
  13426777.532   -14052346.273 6 -10818292.068 2
  13541853.087    -1925866.611 6  -1472525.488 2
  12054572.392    -7083334.423 7  -5445111.970 3
  13578063.673   -24729967.960 7 -19074241.059 2
 96  3  2 21 21 59.9730000  0  7 15 02 26 07 19 27 12
  15607956.220   -10017055.956 5
  13060738.150    -7612472.710 7  -5859471.712 3
  15629939.025    -6944910.273 5  -5061939.740 1
  13399433.173   -14196051.497 6 -10930270.146 2
  13540591.579    -1932491.483 6  -1477687.744 2
  12042909.782    -7144618.954 7  -5492866.146 3
  13557887.564   -24835987.677 7 -19156853.814 2
 96  3  2 21 22 29.9730000  0  7 15 02 26 07 19 27 12
  15587917.400   -10122363.825 5        -0.48311
  13046106.915    -7689350.348 7  -5919376.360 3
  15604726.923    -7077405.332 5  -5165182.634 1
  13372152.564   -14339406.670 6 -11041975.444 2
  13539387.501    -1938816.297 6  -1482616.186 2
  12031331.548    -7205475.760 7  -5540287.029 3
  13537727.579   -24941923.110 7 -19239400.880 2
 96  3  2 21 22 59.9730000  0  7 15 02 26 07 19 27 12
  15567960.056   -10227221.785 5    -81707.988 1
  13031509.986    -7766075.941 7  -5979162.526 3
  15579590.157    -7209490.180 5  -5268105.865 1
  13344944.079   -14482388.765 6 -11153390.048 2
  13538246.611    -1944816.419 6  -1487291.621 2
  12019828.915    -7265904.368 7  -5587374.265 3
  13517588.423   -25047755.375 7 -19321867.559 2
 96  3  2 21 23 29.9720000  0  7 15 02 26 07 19 27 12
  15548094.559   -10331640.703 5   -163073.351 1
  13016936.871    -7842657.788 7  -6038836.683 3
  15554529.590    -7341179.185 5  -5370720.644 1
  13317804.738   -14625005.586 6 -11264520.010 2
  13537162.692    -1950502.822 6  -1491722.606 2
  12008407.153    -7325932.769 7  -5634149.648 3
  13497466.918   -25153497.192 7 -19404263.761 2
 96  3  2 21 23 59.9720000  0  7 15 02 26 07 19 27 12
  15528307.715   -10435621.928 5   -244097.677 1
  13002391.910    -7919083.404 7  -6098389.096 3
  15529545.879    -7472472.305 5  -5473026.926 1
  13290739.254   -14767241.889 6 -11375353.470 2
  13536140.895    -1955876.321 6  -1495909.767 2
  11997062.707    -7385555.572 7  -5680608.979 3
  13477361.676   -25259151.890 7 -19486592.087 2
 96  3  2 21 24 29.9720000  0  7 15 02 26 07 19 27 12
  15508603.129   -10539156.009 5   -324773.566 1
  12987881.731    -7995340.041 7  -6157809.849 3
  15504640.137    -7603354.528 5  -5575013.049 1
  13263750.262   -14909067.788 6 -11485867.136 2
  13535181.426    -1960920.770 6  -1499840.529 2
  11985795.731    -7444757.701 7  -5726740.515 3
  13457274.699   -25364711.126 7 -19568846.019 2
 96  3  2 21 24 59.9720000  0  7 15 02 26 07 19 27 12
  15488990.192   -10642240.422 5   -405099.058 1
  12973402.285    -8071430.766 7  -6217101.298 3
  15479813.988    -7733814.064 5  -5676669.785 1
  13236837.551   -15050489.367 7 -11596065.751 2
  13534285.965    -1965632.417 6  -1503511.968 2
  11974611.801    -7503524.088 7  -5772532.509 3
  13437204.512   -25470174.279 7 -19651025.077 2
 96  3  2 21 25 29.9720000  0  7 15 02 26 07 19 27 12
  15469455.871   -10744876.844 5   -485075.456 1
  12958954.778    -8147340.305 7  -6276251.575 3
  15455071.356    -7863843.795 5  -5777991.631 1
  13209998.356   -15191531.499 6 -11705968.681 2
  13533449.449    -1970025.460 6  -1506935.139 2
  11963519.567    -7561833.758 7  -5817968.624 3
  13417155.035   -25575544.608 7 -19733131.807 2
 96  3  2 21 25 59.9720000  0  7 15 02 26 07 19 27 12
  15450012.457   -10847046.006 5   -564687.783 1
  12944547.723    -8223059.062 7  -6335253.197 3
  15430417.254    -7993413.677 5  -5878955.155 1
  13183233.543   -15332183.699 6 -11815567.775 2
  13532678.957    -1974083.924 6  -1510097.596 2
  11952512.528    -7619653.341 7  -5863022.847 3
  13397124.770   -25680804.363 7 -19815152.383 2
 96  3  2 21 26 29.9720000  0  7 15 02 26 07 19 27 12
  15430656.606   -10948773.434 5   -643955.867 1
  12930166.824    -8298632.224 7  -6394141.363 3
  15405839.512    -8122554.261 5  -5979584.145 1
  13156532.207   -15472496.726 6 -11924902.577 2
  13531961.895    -1977829.128 6  -1513015.949 2
  11941601.434    -7676991.049 7  -5907701.595 3
  13377111.606   -25785980.591 7 -19897107.866 2
 96  3  2 21 26 59.9720000  0  7 15 02 26 07 19 27 12
  15411383.504   -11050039.992 5   -722864.842 1
  12915813.762    -8374057.039 7  -6452913.930 3
  15381349.090    -8251247.092 5  -6079864.248 1
  13129897.965   -15612459.294 6 -12033964.283 2
  13531310.871    -1981254.511 6  -1515685.104 2
  11930786.949    -7733825.413 7  -5951988.114 3
  13357116.871   -25891055.688 7 -19978984.548 2
 96  3  2 21 27 29.9720000  0  7 15 02 26 07 19 27 12
  15392204.863   -11150852.493 5   -801420.000 1
  12901489.137    -8449328.685 7  -6511567.148 3
  15356944.371    -8379500.218 5  -6179801.722 1
  13103333.754   -15752061.691 7 -12142745.340 2
  13530718.317    -1984365.469 6  -1518109.250 2
  11920065.262    -7790178.841 7  -5995899.886 3
  13337134.754   -25996037.901 7 -20060788.853 2
 96  3  2 21 27 59.9720000  0  7 15 02 26 07 19 27 12
  15373103.879   -11251196.664 5   -879610.216 1
  12887192.981    -8524457.062 7  -6570108.737 3
  15332621.629    -8507320.304 5  -6279401.767 1
  13076841.278   -15891274.496 6 -12251222.829 3
  13530191.942    -1987142.566 6  -1520273.242 1
  11909432.996    -7846051.034 7  -6039436.667 3
  13317181.574   -26100914.556 7 -20142510.904 2
 96  3  2 21 28 29.9720000  0  7 15 02 26 07 19 27 12
  15354097.996   -11351071.675 5   -957434.849 1
  12872923.512    -8599439.464 7  -6628536.569 3
  15308375.973    -8634721.520 5  -6378675.413 1
  13050426.434   -16030084.243 6 -12359386.237 2
  13529724.145    -1989590.005 6  -1522180.362 2
  11898890.488    -7901459.064 7  -6082611.759 3
  13297243.848   -26205685.839 7 -20224150.848 2
 96  3  2 21 28 59.9720000  0  7 15 02 26 07 19 27 12
  15335186.567   -11450474.673 5  -1034891.699 1
  12858682.629    -8674276.110 7  -6686850.829 3
  15284217.551    -8761700.398 5  -6477619.970 1
  13024091.715   -16168473.022 6 -12467221.613 3
  13529318.887    -1991726.053 6  -1523844.848 2
  11888430.043    -7956429.331 7  -6125445.745 3
  13277325.301   -26310350.927 7 -20305708.044 2
 96  3  2 21 29 29.9720000  0  7 15 02 26 07 19 27 12
  15316357.215   -11549419.426 5  -1111991.488 1
  12844463.942    -8748982.603 7  -6745063.664 3
  15260125.160    -8888287.048 5  -6576258.885 1
  12997835.379   -16306458.641 6 -12574742.839 3
  13528970.973    -1993563.559 6  -1525276.695 1
  11878048.973    -8010985.634 7  -6167957.153 3
  13257426.473   -26414924.590 7 -20387194.007 2
 96  3  2 21 29 59.9720000  0  7 15 02 26 07 19 27 12
  15297612.551   -11647907.509 5  -1188735.411 1
  12830272.949    -8823575.582 7  -6803188.058 3
  15236110.379    -9014487.821 5  -6674597.119 1
  12971653.262   -16444039.416 6 -12681948.610 3
  13528676.067    -1995104.989 6  -1526477.832 1
  11867744.676    -8065121.096 7  -6210140.642 3
  13237543.942   -26519409.700 7 -20468610.964 2
 96  3  2 21 30 29.9720000  0  7 15 02 26 07 19 27 12
  15278962.403   -11745929.297 5  -1265116.006 1
  12816100.574    -8898040.638 7  -6861212.767 3
  15212173.551    -9140268.794 5  -6772608.235 1
  12945553.012   -16581206.282 6 -12788831.852 3
  13528439.449    -1996348.237 6  -1527446.618 1
  11857526.067    -8118820.011 7  -6251983.957 3
  13217680.918   -26623797.763 7 -20549952.294 2
 96  3  2 21 30 59.9720000  0  7 15 02 26 07 19 27 12
  15260405.215   -11843478.841 5  -1341128.609 1
  12801955.356    -8972377.107 7  -6919137.288 3
  15188323.684    -9265612.812 5  -6870278.880 1
  12919527.559   -16717968.530 6 -12895399.804 3
  13528262.715    -1997269.841 6  -1528164.776 1
  11847391.262    -8172070.767 7  -6293478.055 3
  13197832.684   -26728084.319 7 -20631214.528 2
 96  3  2 21 31 29.9720000  0  7 15 02 26 07 19 27 12
  15241929.137   -11940550.969 5  -1416769.215 1
  12787840.215    -9046569.588 7  -6976949.597 3
  15164554.715    -9390513.220 5  -6967603.859 1
  12893577.082   -16854333.125 6 -13001657.901 3
  13528155.473    -1997840.878 6  -1528609.763 1
  11837349.629    -8224848.156 7  -6334603.301 3
  13178006.317   -26832265.519 7 -20712394.667 2
 96  3  2 21 31 59.9720000  0  7 15 02 26 07 19 27 12
  15223540.348   -12037151.264 5  -1492042.149 1
  12773749.192    -9120618.209 7  -7034649.815 3
  15140874.051    -9514954.827 5  -7064571.313 1
  12867702.637   -16990311.587 7 -13107615.113 3
  13528111.910    -1998065.518 6
  11827395.535    -8277151.837 7  -6375359.422 3
  13158202.676   -26936348.326 7 -20793498.133 2
 96  3  2 21 32 29.9720000  0  7 15 02 26 07 19 27 12
  15205257.192   -12133255.483 5  -1566928.532 1
  12759686.981    -9194498.254 7  -7092218.674 3
  15117285.684    -9638906.061 5  -7161156.667 1
  12841900.121   -17125901.870 6 -13213269.846 3
  13528140.809    -1997922.495 6
  11817537.340    -8328964.417 7  -6415732.865 3
  13138419.840   -27040309.598 7 -20874506.903 2
 96  3  2 21 32 59.9720000  0  7 15 02 26 07 19 27 12
  15187063.168   -12228877.186 5  -1641438.926 1
  12745659.301    -9268224.559 7  -7149667.741 3
  15093787.176    -9762393.899 5  -7257380.942 1
  12816168.199   -17261117.776 7 -13318632.855 3
  13528234.403    -1997428.453 6  -1528288.457 1
  11807765.629    -8380310.318 7  -6455742.669 3
  13118656.473   -27144164.332 7 -20955432.653 2
 96  3  2 21 33 29.9720000  0  7 15 02 26 07 19 27 12
  15168953.410   -12324021.480 5  -1715577.321 1
  12731654.738    -9341805.019 7  -7207003.156 3
  15070373.028    -9885439.907 5  -7353260.926 1
  12790507.895   -17395961.624 7 -13423705.953 3
  13528392.067    -1996608.414 6  -1527649.487 1
  11798084.942    -8431194.042 7  -6495392.335 3
  13098913.262   -27247918.402 7 -21036279.964 2
 96  3  2 21 33 59.9720000  0  7 15 02 26 07 19 27 12
  15150940.262   -12418680.828 5  -1789337.832 1
  12717681.496    -9415238.119 7  -7264223.739 3
  15047041.403   -10008042.680 5  -7448795.525 1
  12764922.574   -17530416.796 7 -13528476.187 3
  13528607.574    -1995471.979 6  -1526763.974 1
  11788489.551    -8481620.262 7  -6534685.493 3
  13079188.035   -27351565.736 7 -21117044.101 2
 96  3  2 21 34 29.9720000  0  7 15 02 26 07 19 27 12
  15133019.442   -12512847.652 5  -1862714.551 1
  12703736.340    -9488522.961 7  -7321328.809 3
  15023795.981   -10130206.478 5  -7543988.063 1
  12739412.090   -17664465.913 7 -13632930.015 3
  13528881.856    -1994021.939 6  -1525634.092 1
  11778981.918    -8531580.987 7  -6573615.938 3
  13059487.153   -27455099.260 7 -21197719.563 2
